Wetterdaten: Mittwoch, 14.06.2017
Datum Zeit Temp. A. Pool Temp. Feuchte A. Luftdruck Regen Wind Richtung Richtung Sonnenschein ET UV Solar Taupunkt Windchill Windben Empfang
14.06.2017 00:00 16,6 C 25,0 C 70 % 1015,4 hPa 0,0 l/m 0,6 km/h (0 Bft) S 181 0 min 0,000 mm 0,0 UV-I 0 W/m 11,1 C 16,6 C 3,2 km/h (1 Bft) 96,23 %
14.06.2017 00:02 16,6 C 25,0 C 70 % 1015,4 hPa 0,0 l/m 2,1 km/h (1 Bft) S 181 0 min 0,000 mm 0,0 UV-I 0 W/m 11,1 C 16,6 C 4,8 km/h (1 Bft) 9,09 %
14.06.2017 00:04 16,4 C 25,0 C 71 % 1015,6 hPa 0,0 l/m 1,5 km/h (1 Bft) S 181 0 min 0,000 mm 0,0 UV-I 0 W/m 11,1 C 16,4 C 3,2 km/h (1 Bft) 95,35 %
14.06.2017 00:06 16,3 C 25,0 C 71 % 1015,5 hPa 0,0 l/m 1,0 km/h (0 Bft) S 181 0 min 0,000 mm 0,0 UV-I 0 W/m 11,0 C 16,3 C 1,6 km/h (1 Bft) 94,74 %
14.06.2017 00:08 16,3 C 25,0 C 73 % 1015,5 hPa 0,0 l/m 1,0 km/h (0 Bft) S 181 0 min 0,000 mm 0,0 UV-I 0 W/m 11,4 C 16,3 C 3,2 km/h (1 Bft) 96,61 %
14.06.2017 00:10 16,1 C 25,0 C 73 % 1015,5 hPa 0,0 l/m 0,4 km/h (0 Bft) S 181 0 min 0,000 mm 0,0 UV-I 0 W/m 11,3 C 16,1 C 1,6 km/h (1 Bft) 97,22 %
14.06.2017 00:12 15,9 C 25,0 C 73 % 1015,5 hPa 0,0 l/m 0,0 km/h (0 Bft) S 181 0 min 0,000 mm 0,0 UV-I 0 W/m 11,1 C 15,9 C 1,6 km/h (1 Bft) 97,56 %
14.06.2017 00:14 15,8 C 25,6 C 73 % 1015,5 hPa 0,0 l/m 0,0 km/h (0 Bft) S 181 0 min 0,000 mm 0,0 UV-I 0 W/m 11,0 C 15,8 C 1,6 km/h (1 Bft) 94,34 %
14.06.2017 00:16 15,7 C 25,0 C 74 % 1015,4 hPa 0,0 l/m 1,3 km/h (1 Bft) S 181 0 min 0,000 mm 0,0 UV-I 0 W/m 11,1 C 15,7 C 3,2 km/h (1 Bft) 92,00 %
14.06.2017 00:18 15,6 C 26,1 C 74 % 1015,4 hPa 0,0 l/m 0,8 km/h (0 Bft) S 181 0 min 0,000 mm 0,0 UV-I 0 W/m 11,0 C 15,6 C 1,6 km/h (1 Bft) 97,56 %
14.06.2017 00:20 15,6 C 25,6 C 75 % 1015,4 hPa 0,0 l/m 2,0 km/h (1 Bft) S 181 0 min 0,000 mm 0,0 UV-I 0 W/m 11,2 C 15,6 C 4,8 km/h (1 Bft) 98,11 %
14.06.2017 00:22 15,6 C 25,0 C 75 % 1015,4 hPa 0,0 l/m 1,2 km/h (1 Bft) S 181 0 min 0,000 mm 0,0 UV-I 0 W/m 11,2 C 15,6 C 3,2 km/h (1 Bft) 97,87 %
14.06.2017 00:24 15,6 C 25,6 C 75 % 1015,4 hPa 0,0 l/m 0,6 km/h (0 Bft) S 181 0 min 0,000 mm 0,0 UV-I 0 W/m 11,2 C 15,6 C 1,6 km/h (1 Bft) 97,87 %
14.06.2017 00:26 15,6 C 25,6 C 75 % 1015,4 hPa 0,0 l/m 0,7 km/h (0 Bft) S 181 0 min 0,000 mm 0,0 UV-I 0 W/m 11,2 C 15,6 C 3,2 km/h (1 Bft) 97,87 %
14.06.2017 00:28 15,5 C 25,0 C 75 % 1015,4 hPa 0,0 l/m 0,0 km/h (0 Bft) S 181 0 min 0,000 mm 0,0 UV-I 0 W/m 11,1 C 15,5 C 0,0 km/h (0 Bft) 95,74 %
14.06.2017 00:30 15,6 C 25,6 C 75 % 1015,4 hPa 0,0 l/m 0,1 km/h (0 Bft) S 181 0 min 0,000 mm 0,0 UV-I 0 W/m 11,2 C 15,6 C 1,6 km/h (1 Bft) 98,00 %
14.06.2017 00:32 15,6 C 25,0 C 75 % 1015,4 hPa 0,0 l/m 0,0 km/h (0 Bft) S 181 0 min 0,000 mm 0,0 UV-I 0 W/m 11,2 C 15,6 C 0,0 km/h (0 Bft) 97,37 %
14.06.2017 00:34 15,5 C 25,0 C 75 % 1015,4 hPa 0,0 l/m 0,0 km/h (0 Bft) S 181 0 min 0,000 mm 0,0 UV-I 0 W/m 11,1 C 15,5 C 1,6 km/h (1 Bft) 93,62 %
14.06.2017 00:36 15,4 C 25,0 C 76 % 1015,5 hPa 0,0 l/m 0,0 km/h (0 Bft) S 181 0 min 0,000 mm 0,0 UV-I 0 W/m 11,2 C 15,4 C 0,0 km/h (0 Bft) 100,00 %
14.06.2017 00:38 15,4 C 25,0 C 76 % 1015,5 hPa 0,0 l/m 0,0 km/h (0 Bft) S 181 0 min 0,000 mm 0,0 UV-I 0 W/m 11,2 C 15,4 C 0,0 km/h (0 Bft) 96,00 %
14.06.2017 00:40 15,4 C 25,0 C 76 % 1015,4 hPa 0,0 l/m 0,0 km/h (0 Bft) S 181 0 min 0,000 mm 0,0 UV-I 0 W/m 11,2 C 15,4 C 0,0 km/h (0 Bft) 98,00 %
14.06.2017 00:42 15,4 C 25,0 C 76 % 1015,4 hPa 0,0 l/m 0,0 km/h (0 Bft) S 181 0 min 0,000 mm 0,0 UV-I 0 W/m 11,2 C 15,4 C 0,0 km/h (0 Bft) 97,87 %
14.06.2017 00:44 15,4 C 25,0 C 76 % 1015,4 hPa 0,0 l/m 0,1 km/h (0 Bft) S 181 0 min 0,000 mm 0,0 UV-I 0 W/m 11,2 C 15,4 C 1,6 km/h (1 Bft) 94,29 %
14.06.2017 00:46 15,4 C 25,0 C 76 % 1015,3 hPa 0,0 l/m 1,5 km/h (1 Bft) S 181 0 min 0,000 mm 0,0 UV-I 0 W/m 11,2 C 15,4 C 3,2 km/h (1 Bft) 94,64 %
14.06.2017 00:48 15,3 C 25,0 C 76 % 1015,3 hPa 0,0 l/m 2,2 km/h (1 Bft) S 181 0 min 0,000 mm 0,0 UV-I 0 W/m 11,1 C 15,3 C 3,2 km/h (1 Bft) 96,00 %
14.06.2017 00:50 15,2 C 25,0 C 76 % 1015,3 hPa 0,0 l/m 2,8 km/h (1 Bft) S 181 0 min 0,000 mm 0,0 UV-I 0 W/m 11,0 C 15,2 C 3,2 km/h (1 Bft) 92,31 %
14.06.2017 00:52 15,2 C 25,0 C 75 % 1015,3 hPa 0,0 l/m 2,1 km/h (1 Bft) S 181 0 min 0,000 mm 0,0 UV-I 0 W/m 10,8 C 15,2 C 3,2 km/h (1 Bft) 90,00 %
14.06.2017 00:54 15,2 C 25,0 C 75 % 1015,4 hPa 0,0 l/m 0,9 km/h (0 Bft) S 181 0 min 0,000 mm 0,0 UV-I 0 W/m 10,8 C 15,2 C 1,6 km/h (1 Bft) 96,15 %
14.06.2017 00:56 15,2 C 25,0 C 76 % 1015,4 hPa 0,0 l/m 0,8 km/h (0 Bft) S 181 0 min 0,000 mm 0,0 UV-I 0 W/m 11,0 C 15,2 C 1,6 km/h (1 Bft) 95,24 %
14.06.2017 00:58 15,2 C 25,0 C 75 % 1015,4 hPa 0,0 l/m 1,3 km/h (1 Bft) S 181 0 min 0,000 mm 0,0 UV-I 0 W/m 10,8 C 15,2 C 3,2 km/h (1 Bft) 96,23 %
14.06.2017 01:00 15,2 C 25,0 C 75 % 1015,5 hPa 0,0 l/m 2,0 km/h (1 Bft) S 181 0 min 0,000 mm 0,0 UV-I 0 W/m 10,8 C 15,2 C 3,2 km/h (1 Bft) 91,49 %
14.06.2017 01:02 15,1 C 25,0 C 75 % 1015,4 hPa 0,0 l/m 1,4 km/h (1 Bft) S 181 0 min 0,000 mm 0,0 UV-I 0 W/m 10,7 C 15,1 C 3,2 km/h (1 Bft) 97,37 %
14.06.2017 01:04 15,1 C 25,0 C 75 % 1015,4 hPa 0,0 l/m 1,3 km/h (1 Bft) S 181 0 min 0,000 mm 0,0 UV-I 0 W/m 10,7 C 15,1 C 3,2 km/h (1 Bft) 92,00 %
14.06.2017 01:06 15,1 C 25,0 C 75 % 1015,4 hPa 0,0 l/m 1,2 km/h (1 Bft) S 181 0 min 0,000 mm 0,0 UV-I 0 W/m 10,7 C 15,1 C 3,2 km/h (1 Bft) 95,74 %
14.06.2017 01:08 15,1 C 25,0 C 75 % 1015,4 hPa 0,0 l/m 1,9 km/h (1 Bft) S 181 0 min 0,000 mm 0,0 UV-I 0 W/m 10,7 C 15,1 C 4,8 km/h (1 Bft) 96,00 %
14.06.2017 01:10 15,0 C 25,0 C 76 % 1015,4 hPa 0,0 l/m 2,5 km/h (1 Bft) S 181 0 min 0,000 mm 0,0 UV-I 0 W/m 10,8 C 15,0 C 3,2 km/h (1 Bft) 94,74 %
14.06.2017 01:12 14,9 C 25,0 C 76 % 1015,4 hPa 0,0 l/m 3,2 km/h (1 Bft) S 181 0 min 0,000 mm 0,0 UV-I 0 W/m 10,7 C 14,9 C 4,8 km/h (1 Bft) 96,23 %
14.06.2017 01:14 14,9 C 25,0 C 76 % 1015,5 hPa 0,0 l/m 2,7 km/h (1 Bft) S 181 0 min 0,000 mm 0,0 UV-I 0 W/m 10,7 C 14,9 C 4,8 km/h (1 Bft) 95,12 %
14.06.2017 01:16 14,9 C 25,0 C 76 % 1015,5 hPa 0,0 l/m 2,1 km/h (1 Bft) S 181 0 min 0,000 mm 0,0 UV-I 0 W/m 10,7 C 14,9 C 4,8 km/h (1 Bft) 92,00 %
14.06.2017 01:18 14,8 C 25,0 C 77 % 1015,5 hPa 0,0 l/m 1,8 km/h (1 Bft) S 181 0 min 0,000 mm 0,0 UV-I 0 W/m 10,8 C 14,8 C 3,2 km/h (1 Bft) 95,74 %
14.06.2017 01:20 14,7 C 25,0 C 77 % 1015,5 hPa 0,0 l/m 1,5 km/h (1 Bft) S 181 0 min 0,000 mm 0,0 UV-I 0 W/m 10,7 C 14,7 C 3,2 km/h (1 Bft) 97,87 %
14.06.2017 01:22 14,7 C 25,0 C 77 % 1015,5 hPa 0,0 l/m 1,1 km/h (1 Bft) S 181 0 min 0,000 mm 0,0 UV-I 0 W/m 10,7 C 14,7 C 3,2 km/h (1 Bft) 93,62 %
14.06.2017 01:24 14,7 C 25,0 C 77 % 1015,6 hPa 0,0 l/m 1,4 km/h (1 Bft) S 181 0 min 0,000 mm 0,0 UV-I 0 W/m 10,7 C 14,7 C 1,6 km/h (1 Bft) 97,87 %
14.06.2017 01:26 14,7 C 25,0 C 77 % 1015,5 hPa 0,0 l/m 1,7 km/h (1 Bft) S 181 0 min 0,000 mm 0,0 UV-I 0 W/m 10,7 C 14,7 C 3,2 km/h (1 Bft) 95,74 %
14.06.2017 01:28 14,7 C 25,0 C 77 % 1015,6 hPa 0,0 l/m 2,3 km/h (1 Bft) S 181 0 min 0,000 mm 0,0 UV-I 0 W/m 10,7 C 14,7 C 3,2 km/h (1 Bft) 97,44 %
14.06.2017 01:30 14,7 C 25,0 C 78 % 1015,5 hPa 0,0 l/m 2,2 km/h (1 Bft) S 181 0 min 0,000 mm 0,0 UV-I 0 W/m 10,9 C 14,7 C 3,2 km/h (1 Bft) 96,55 %
14.06.2017 01:32 14,7 C 25,0 C 78 % 1015,6 hPa 0,0 l/m 1,5 km/h (1 Bft) S 181 0 min 0,000 mm 0,0 UV-I 0 W/m 10,9 C 14,7 C 3,2 km/h (1 Bft) 95,24 %
14.06.2017 01:34 14,8 C 25,0 C 78 % 1015,5 hPa 0,0 l/m 1,7 km/h (1 Bft) S 181 0 min 0,000 mm 0,0 UV-I 0 W/m 11,0 C 14,8 C 3,2 km/h (1 Bft) 97,87 %
14.06.2017 01:36 14,8 C 25,0 C 78 % 1015,5 hPa 0,0 l/m 0,8 km/h (0 Bft) S 181 0 min 0,000 mm 0,0 UV-I 0 W/m 11,0 C 14,8 C 3,2 km/h (1 Bft) 94,00 %
14.06.2017 01:38 14,7 C 25,0 C 78 % 1015,5 hPa 0,0 l/m 0,5 km/h (0 Bft) S 181 0 min 0,000 mm 0,0 UV-I 0 W/m 10,9 C 14,7 C 1,6 km/h (1 Bft) 97,56 %
14.06.2017 01:40 14,5 C 25,0 C 78 % 1015,5 hPa 0,0 l/m 0,1 km/h (0 Bft) S 181 0 min 0,000 mm 0,0 UV-I 0 W/m 10,7 C 14,5 C 1,6 km/h (1 Bft) 94,00 %
14.06.2017 01:42 14,4 C 25,0 C 79 % 1015,5 hPa 0,0 l/m 0,6 km/h (0 Bft) S 181 0 min 0,000 mm 0,0 UV-I 0 W/m 10,8 C 14,4 C 1,6 km/h (1 Bft) 97,56 %
14.06.2017 01:44 14,4 C 25,0 C 79 % 1015,6 hPa 0,0 l/m 0,4 km/h (0 Bft) S 181 0 min 0,000 mm 0,0 UV-I 0 W/m 10,8 C 14,4 C 3,2 km/h (1 Bft) 98,00 %
14.06.2017 01:46 14,5 C 25,0 C 79 % 1015,6 hPa 0,0 l/m 0,5 km/h (0 Bft) S 181 0 min 0,000 mm 0,0 UV-I 0 W/m 10,9 C 14,5 C 3,2 km/h (1 Bft) 98,11 %
14.06.2017 01:48 14,5 C 25,0 C 79 % 1015,5 hPa 0,0 l/m 0,0 km/h (0 Bft) S 181 0 min 0,000 mm 0,0 UV-I 0 W/m 10,9 C 14,5 C 0,0 km/h (0 Bft) 98,00 %
14.06.2017 01:50 14,5 C 25,0 C 79 % 1015,6 hPa 0,0 l/m 0,0 km/h (0 Bft) S 181 0 min 0,000 mm 0,0 UV-I 0 W/m 10,9 C 14,5 C 0,0 km/h (0 Bft) 94,74 %
14.06.2017 01:52 14,4 C 25,0 C 79 % 1015,7 hPa 0,0 l/m 0,4 km/h (0 Bft) S 181 0 min 0,000 mm 0,0 UV-I 0 W/m 10,8 C 14,4 C 1,6 km/h (1 Bft) 97,73 %
14.06.2017 01:54 14,2 C 25,0 C 79 % 1015,7 hPa 0,0 l/m 0,4 km/h (0 Bft) S 181 0 min 0,000 mm 0,0 UV-I 0 W/m 10,6 C 14,2 C 1,6 km/h (1 Bft) 94,34 %
14.06.2017 01:56 13,7 C 25,0 C 80 % 1015,8 hPa 0,0 l/m 2,0 km/h (1 Bft) N-NO 24 0 min 0,000 mm 0,0 UV-I 0 W/m 10,3 C 13,7 C 4,8 km/h (1 Bft) 94,00 %
14.06.2017 01:58 13,3 C 25,0 C 82 % 1015,8 hPa 0,0 l/m 6,9 km/h (2 Bft) N-NO 18 0 min 0,000 mm 0,0 UV-I 0 W/m 10,3 C 13,0 C 12,9 km/h (3 Bft) 95,45 %
14.06.2017 02:00 13,2 C 25,0 C 84 % 1015,8 hPa 0,0 l/m 8,2 km/h (2 Bft) N-NO 33 0 min 0,000 mm 0,0 UV-I 0 W/m 10,6 C 12,1 C 12,9 km/h (3 Bft) 97,73 %
14.06.2017 02:02 13,1 C 25,0 C 85 % 1015,9 hPa 0,0 l/m 7,4 km/h (2 Bft) N-NO 28 0 min 0,000 mm 0,0 UV-I 0 W/m 10,6 C 12,5 C 9,7 km/h (2 Bft) 92,00 %
14.06.2017 02:04 13,2 C 25,0 C 85 % 1015,9 hPa 0,0 l/m 6,4 km/h (2 Bft) NO 36 0 min 0,000 mm 0,0 UV-I 0 W/m 10,7 C 13,2 C 9,7 km/h (2 Bft) 93,62 %
14.06.2017 02:06 13,3 C 25,0 C 84 % 1015,9 hPa 0,0 l/m 4,0 km/h (1 Bft) NO 36 0 min 0,000 mm 0,0 UV-I 0 W/m 10,7 C 13,3 C 4,8 km/h (1 Bft) 96,08 %
14.06.2017 02:08 13,3 C 25,0 C 84 % 1015,8 hPa 0,0 l/m 3,5 km/h (1 Bft) NO 36 0 min 0,000 mm 0,0 UV-I 0 W/m 10,7 C 13,3 C 4,8 km/h (1 Bft) 93,62 %
14.06.2017 02:10 13,4 C 25,0 C 84 % 1015,8 hPa 0,0 l/m 3,7 km/h (1 Bft) NO 49 0 min 0,000 mm 0,0 UV-I 0 W/m 10,8 C 13,4 C 4,8 km/h (1 Bft) 95,74 %
14.06.2017 02:12 13,4 C 25,0 C 84 % 1015,8 hPa 0,0 l/m 4,6 km/h (1 Bft) O 79 0 min 0,000 mm 0,0 UV-I 0 W/m 10,8 C 13,4 C 6,4 km/h (2 Bft) 94,87 %
14.06.2017 02:14 13,4 C 25,0 C 83 % 1015,8 hPa 0,0 l/m 4,3 km/h (1 Bft) O 79 0 min 0,000 mm 0,0 UV-I 0 W/m 10,6 C 13,4 C 4,8 km/h (1 Bft) 97,87 %
14.06.2017 02:16 13,6 C 25,0 C 83 % 1015,8 hPa 0,0 l/m 3,0 km/h (1 Bft) O 79 0 min 0,000 mm 0,0 UV-I 0 W/m 10,8 C 13,6 C 4,8 km/h (1 Bft) 91,49 %
14.06.2017 02:18 13,7 C 25,6 C 82 % 1015,8 hPa 0,0 l/m 1,3 km/h (1 Bft) O 80 0 min 0,000 mm 0,0 UV-I 0 W/m 10,7 C 13,7 C 3,2 km/h (1 Bft) 93,62 %
14.06.2017 02:20 13,6 C 25,0 C 82 % 1015,8 hPa 0,0 l/m 2,6 km/h (1 Bft) O 79 0 min 0,000 mm 0,0 UV-I 0 W/m 10,6 C 13,6 C 3,2 km/h (1 Bft) 98,11 %
14.06.2017 02:22 13,6 C 25,0 C 83 % 1015,8 hPa 0,0 l/m 1,6 km/h (1 Bft) O 79 0 min 0,000 mm 0,0 UV-I 0 W/m 10,8 C 13,6 C 3,2 km/h (1 Bft) 94,29 %
14.06.2017 02:24 13,6 C 25,0 C 83 % 1015,9 hPa 0,0 l/m 1,7 km/h (1 Bft) O 79 0 min 0,000 mm 0,0 UV-I 0 W/m 10,8 C 13,6 C 3,2 km/h (1 Bft) 96,61 %
14.06.2017 02:26 13,7 C 25,0 C 82 % 1015,9 hPa 0,0 l/m 1,4 km/h (1 Bft) O 79 0 min 0,000 mm 0,0 UV-I 0 W/m 10,7 C 13,7 C 3,2 km/h (1 Bft) 95,12 %
14.06.2017 02:28 13,7 C 25,6 C 82 % 1015,9 hPa 0,0 l/m 1,6 km/h (1 Bft) O 79 0 min 0,000 mm 0,0 UV-I 0 W/m 10,7 C 13,7 C 3,2 km/h (1 Bft) 98,11 %
14.06.2017 02:30 13,9 C 25,6 C 81 % 1015,8 hPa 0,0 l/m 2,5 km/h (1 Bft) O 79 0 min 0,000 mm 0,0 UV-I 0 W/m 10,7 C 13,9 C 4,8 km/h (1 Bft) 97,87 %
14.06.2017 02:32 14,0 C 25,6 C 81 % 1015,8 hPa 0,0 l/m 3,2 km/h (1 Bft) O 79 0 min 0,000 mm 0,0 UV-I 0 W/m 10,8 C 14,0 C 4,8 km/h (1 Bft) 97,14 %
14.06.2017 02:34 14,2 C 26,1 C 80 % 1015,8 hPa 0,0 l/m 1,3 km/h (1 Bft) O 79 0 min 0,000 mm 0,0 UV-I 0 W/m 10,8 C 14,2 C 3,2 km/h (1 Bft) 96,00 %
14.06.2017 02:36 14,3 C 25,6 C 80 % 1015,8 hPa 0,0 l/m 1,6 km/h (1 Bft) O 79 0 min 0,000 mm 0,0 UV-I 0 W/m 10,9 C 14,3 C 3,2 km/h (1 Bft) 95,74 %
14.06.2017 02:38 14,4 C 26,1 C 79 % 1015,8 hPa 0,0 l/m 0,9 km/h (0 Bft) O 79 0 min 0,000 mm 0,0 UV-I 0 W/m 10,8 C 14,4 C 3,2 km/h (1 Bft) 95,74 %
14.06.2017 02:40 14,3 C 26,1 C 80 % 1015,8 hPa 0,0 l/m 0,0 km/h (0 Bft) O 79 0 min 0,000 mm 0,0 UV-I 0 W/m 10,9 C 14,3 C 0,0 km/h (0 Bft) 92,00 %
14.06.2017 02:42 14,1 C 26,1 C 80 % 1015,9 hPa 0,0 l/m 0,0 km/h (0 Bft) O 79 0 min 0,000 mm 0,0 UV-I 0 W/m 10,7 C 14,1 C 1,6 km/h (1 Bft) 98,11 %
14.06.2017 02:44 13,8 C 26,1 C 81 % 1015,8 hPa 0,0 l/m 0,1 km/h (0 Bft) O 79 0 min 0,000 mm 0,0 UV-I 0 W/m 10,6 C 13,8 C 1,6 km/h (1 Bft) 97,56 %
14.06.2017 02:46 13,7 C 26,1 C 82 % 1015,8 hPa 0,0 l/m 0,1 km/h (0 Bft) O 79 0 min 0,000 mm 0,0 UV-I 0 W/m 10,7 C 13,7 C 1,6 km/h (1 Bft) 98,00 %
14.06.2017 02:48 13,7 C 26,1 C 82 % 1015,8 hPa 0,0 l/m 0,9 km/h (0 Bft) O 79 0 min 0,000 mm 0,0 UV-I 0 W/m 10,7 C 13,7 C 3,2 km/h (1 Bft) 97,87 %
14.06.2017 02:50 13,7 C 26,1 C 82 % 1015,8 hPa 0,0 l/m 2,2 km/h (1 Bft) O 79 0 min 0,000 mm 0,0 UV-I 0 W/m 10,7 C 13,7 C 3,2 km/h (1 Bft) 97,22 %
14.06.2017 02:52 13,6 C 26,1 C 82 % 1015,8 hPa 0,0 l/m 2,3 km/h (1 Bft) O 79 0 min 0,000 mm 0,0 UV-I 0 W/m 10,6 C 13,6 C 4,8 km/h (1 Bft) 96,00 %
14.06.2017 02:54 13,5 C 26,1 C 83 % 1015,9 hPa 0,0 l/m 0,1 km/h (0 Bft) O 79 0 min 0,000 mm 0,0 UV-I 0 W/m 10,7 C 13,5 C 1,6 km/h (1 Bft) 97,87 %
14.06.2017 02:56 13,6 C 26,1 C 82 % 1015,9 hPa 0,0 l/m 0,7 km/h (0 Bft) O 79 0 min 0,000 mm 0,0 UV-I 0 W/m 10,6 C 13,6 C 3,2 km/h (1 Bft) 100,00 %
14.06.2017 02:58 13,6 C 26,1 C 82 % 1015,9 hPa 0,0 l/m 0,1 km/h (0 Bft) O 79 0 min 0,000 mm 0,0 UV-I 0 W/m 10,6 C 13,6 C 1,6 km/h (1 Bft) 98,11 %
14.06.2017 03:00 13,7 C 26,1 C 82 % 1015,9 hPa 0,0 l/m 0,0 km/h (0 Bft) O 79 0 min 0,000 mm 0,0 UV-I 0 W/m 10,7 C 13,7 C 0,0 km/h (0 Bft) 100,00 %
14.06.2017 03:02 13,7 C 26,1 C 82 % 1015,9 hPa 0,0 l/m 0,2 km/h (0 Bft) O 79 0 min 0,000 mm 0,0 UV-I 0 W/m 10,7 C 13,7 C 1,6 km/h (1 Bft) 97,87 %
14.06.2017 03:04 13,7 C 26,1 C 81 % 1016,1 hPa 0,0 l/m 0,9 km/h (0 Bft) O 79 0 min 0,000 mm 0,0 UV-I 0 W/m 10,5 C 13,7 C 3,2 km/h (1 Bft) 98,21 %
14.06.2017 03:06 13,7 C 26,1 C 80 % 1016,0 hPa 0,0 l/m 2,2 km/h (1 Bft) O 79 0 min 0,000 mm 0,0 UV-I 0 W/m 10,3 C 13,7 C 4,8 km/h (1 Bft) 100,00 %
14.06.2017 03:08 13,7 C 26,1 C 80 % 1016,0 hPa 0,0 l/m 2,4 km/h (1 Bft) O 79 0 min 0,000 mm 0,0 UV-I 0 W/m 10,3 C 13,7 C 3,2 km/h (1 Bft) 96,00 %
14.06.2017 03:10 13,7 C 26,1 C 79 % 1016,0 hPa 0,0 l/m 2,4 km/h (1 Bft) O 79 0 min 0,000 mm 0,0 UV-I 0 W/m 10,1 C 13,7 C 3,2 km/h (1 Bft) 100,00 %
14.06.2017 03:12 13,7 C 26,1 C 78 % 1016,1 hPa 0,0 l/m 2,0 km/h (1 Bft) O 79 0 min 0,000 mm 0,0 UV-I 0 W/m 9,9 C 13,7 C 3,2 km/h (1 Bft) 98,00 %
14.06.2017 03:14 13,7 C 26,1 C 78 % 1016,1 hPa 0,0 l/m 3,3 km/h (1 Bft) O 79 0 min 0,000 mm 0,0 UV-I 0 W/m 9,9 C 13,7 C 4,8 km/h (1 Bft) 97,14 %
14.06.2017 03:16 13,7 C 26,1 C 77 % 1016,1 hPa 0,0 l/m 2,1 km/h (1 Bft) O 79 0 min 0,000 mm 0,0 UV-I 0 W/m 9,7 C 13,7 C 3,2 km/h (1 Bft) 97,87 %
14.06.2017 03:18 13,7 C 26,1 C 77 % 1016,1 hPa 0,0 l/m 2,9 km/h (1 Bft) O 79 0 min 0,000 mm 0,0 UV-I 0 W/m 9,7 C 13,7 C 4,8 km/h (1 Bft) 98,00 %
14.06.2017 03:20 13,7 C 26,1 C 77 % 1016,1 hPa 0,0 l/m 2,5 km/h (1 Bft) O 79 0 min 0,000 mm 0,0 UV-I 0 W/m 9,7 C 13,7 C 4,8 km/h (1 Bft) 97,56 %
14.06.2017 03:22 13,7 C 26,1 C 76 % 1016,1 hPa 0,0 l/m 3,9 km/h (1 Bft) O 79 0 min 0,000 mm 0,0 UV-I 0 W/m 9,5 C 13,7 C 4,8 km/h (1 Bft) 98,00 %
14.06.2017 03:24 13,8 C 26,1 C 76 % 1016,1 hPa 0,0 l/m 2,7 km/h (1 Bft) O 79 0 min 0,000 mm 0,0 UV-I 0 W/m 9,6 C 13,8 C 4,8 km/h (1 Bft) 98,00 %
14.06.2017 03:26 13,8 C 26,1 C 76 % 1016,1 hPa 0,0 l/m 1,7 km/h (1 Bft) O 79 0 min 0,000 mm 0,0 UV-I 0 W/m 9,6 C 13,8 C 3,2 km/h (1 Bft) 96,00 %
14.06.2017 03:28 13,8 C 26,1 C 76 % 1016,1 hPa 0,0 l/m 2,6 km/h (1 Bft) O 79 0 min 0,000 mm 0,0 UV-I 0 W/m 9,6 C 13,8 C 4,8 km/h (1 Bft) 95,74 %
14.06.2017 03:30 13,8 C 26,1 C 76 % 1016,1 hPa 0,0 l/m 3,3 km/h (1 Bft) O 79 0 min 0,000 mm 0,0 UV-I 0 W/m 9,6 C 13,8 C 4,8 km/h (1 Bft) 92,31 %
14.06.2017 03:32 13,8 C 26,1 C 75 % 1016,1 hPa 0,0 l/m 2,3 km/h (1 Bft) O 79 0 min 0,000 mm 0,0 UV-I 0 W/m 9,4 C 13,8 C 4,8 km/h (1 Bft) 98,11 %
14.06.2017 03:34 13,7 C 26,1 C 75 % 1016,0 hPa 0,0 l/m 3,6 km/h (1 Bft) O 79 0 min 0,000 mm 0,0 UV-I 0 W/m 9,3 C 13,7 C 4,8 km/h (1 Bft) 97,87 %
14.06.2017 03:36 13,7 C 26,1 C 75 % 1015,9 hPa 0,0 l/m 3,9 km/h (1 Bft) O-NO 71 0 min 0,000 mm 0,0 UV-I 0 W/m 9,3 C 13,7 C 6,4 km/h (2 Bft) 100,00 %
14.06.2017 03:38 13,6 C 26,1 C 75 % 1015,9 hPa 0,0 l/m 4,2 km/h (1 Bft) O-NO 57 0 min 0,000 mm 0,0 UV-I 0 W/m 9,3 C 13,6 C 6,4 km/h (2 Bft) 96,00 %
14.06.2017 03:40 13,6 C 26,1 C 75 % 1015,9 hPa 0,0 l/m 3,5 km/h (1 Bft) O-NO 59 0 min 0,000 mm 0,0 UV-I 0 W/m 9,3 C 13,6 C 4,8 km/h (1 Bft) 97,87 %
14.06.2017 03:42 13,7 C 26,1 C 74 % 1015,9 hPa 0,0 l/m 4,6 km/h (1 Bft) O-NO 61 0 min 0,000 mm 0,0 UV-I 0 W/m 9,2 C 13,7 C 6,4 km/h (2 Bft) 95,45 %
14.06.2017 03:44 13,7 C 26,1 C 74 % 1015,9 hPa 0,0 l/m 4,6 km/h (1 Bft) NO 49 0 min 0,000 mm 0,0 UV-I 0 W/m 9,2 C 13,7 C 6,4 km/h (2 Bft) 94,00 %
14.06.2017 03:46 13,7 C 26,1 C 74 % 1016,0 hPa 0,0 l/m 5,0 km/h (1 Bft) O-NO 66 0 min 0,000 mm 0,0 UV-I 0 W/m 9,2 C 13,7 C 8,0 km/h (2 Bft) 97,73 %
14.06.2017 03:48 13,8 C 26,1 C 73 % 1015,9 hPa 0,0 l/m 5,0 km/h (1 Bft) NO 41 0 min 0,000 mm 0,0 UV-I 0 W/m 9,0 C 13,8 C 8,0 km/h (2 Bft) 96,00 %
14.06.2017 03:50 13,8 C 26,1 C 73 % 1016,0 hPa 0,0 l/m 4,6 km/h (1 Bft) O-NO 61 0 min 0,000 mm 0,0 UV-I 0 W/m 9,0 C 13,8 C 8,0 km/h (2 Bft) 97,14 %
14.06.2017 03:52 13,9 C 26,1 C 72 % 1016,0 hPa 0,0 l/m 4,4 km/h (1 Bft) O-NO 61 0 min 0,000 mm 0,0 UV-I 0 W/m 8,9 C 13,9 C 8,0 km/h (2 Bft) 98,11 %
14.06.2017 03:54 13,9 C 26,1 C 72 % 1015,9 hPa 0,0 l/m 4,7 km/h (1 Bft) NO 53 0 min 0,000 mm 0,0 UV-I 0 W/m 8,9 C 13,9 C 6,4 km/h (2 Bft) 98,00 %
14.06.2017 03:56 13,9 C 26,1 C 73 % 1016,1 hPa 0,0 l/m 2,6 km/h (1 Bft) NO 55 0 min 0,000 mm 0,0 UV-I 0 W/m 9,1 C 13,9 C 4,8 km/h (1 Bft) 97,37 %
14.06.2017 03:58 13,8 C 26,1 C 73 % 1016,1 hPa 0,0 l/m 2,0 km/h (1 Bft) NO 55 0 min 0,000 mm 0,0 UV-I 0 W/m 9,0 C 13,8 C 3,2 km/h (1 Bft) 98,11 %
14.06.2017 04:00 13,7 C 26,1 C 73 % 1016,2 hPa 0,0 l/m 1,9 km/h (1 Bft) NO 55 0 min 0,025 mm 0,0 UV-I 0 W/m 8,9 C 13,7 C 3,2 km/h (1 Bft) 95,74 %
14.06.2017 04:02 13,7 C 26,1 C 73 % 1016,2 hPa 0,0 l/m 3,2 km/h (1 Bft) NO 55 0 min 0,000 mm 0,0 UV-I 0 W/m 8,9 C 13,7 C 3,2 km/h (1 Bft) 93,94 %
14.06.2017 04:04 13,6 C 26,1 C 74 % 1016,2 hPa 0,0 l/m 4,5 km/h (1 Bft) O-NO 72 0 min 0,000 mm 0,0 UV-I 0 W/m 9,1 C 13,6 C 6,4 km/h (2 Bft) 92,00 %
14.06.2017 04:06 13,6 C 26,1 C 74 % 1016,2 hPa 0,0 l/m 4,1 km/h (1 Bft) O 79 0 min 0,000 mm 0,0 UV-I 0 W/m 9,1 C 13,6 C 4,8 km/h (1 Bft) 90,48 %
14.06.2017 04:08 13,6 C 26,1 C 74 % 1016,2 hPa 0,0 l/m 4,6 km/h (1 Bft) O 79 0 min 0,000 mm 0,0 UV-I 0 W/m 9,1 C 13,6 C 6,4 km/h (2 Bft) 90,38 %
14.06.2017 04:10 13,6 C 26,1 C 74 % 1016,3 hPa 0,0 l/m 4,0 km/h (1 Bft) O-NO 76 0 min 0,000 mm 0,0 UV-I 0 W/m 9,1 C 13,6 C 6,4 km/h (2 Bft) 90,48 %
14.06.2017 04:13 13,6 C 26,1 C 73 % 1016,3 hPa 0,0 l/m 3,9 km/h (1 Bft) O-NO 76 0 min 0,000 mm 0,0 UV-I 0 W/m 8,9 C 13,6 C 6,4 km/h (2 Bft) 93,42 %
14.06.2017 04:14 13,6 C 26,1 C 73 % 1016,3 hPa 0,0 l/m 3,4 km/h (1 Bft) O-NO 76 0 min 0,000 mm 0,0 UV-I 0 W/m 8,9 C 13,6 C 4,8 km/h (1 Bft) 95,83 %
14.06.2017 04:16 13,6 C 25,6 C 73 % 1016,3 hPa 0,0 l/m 3,1 km/h (1 Bft) O 81 0 min 0,000 mm 0,0 UV-I 0 W/m 8,9 C 13,6 C 4,8 km/h (1 Bft) 97,37 %
14.06.2017 04:18 13,6 C 26,1 C 74 % 1016,3 hPa 0,0 l/m 4,1 km/h (1 Bft) O-NO 77 0 min 0,000 mm 0,0 UV-I 0 W/m 9,1 C 13,6 C 8,0 km/h (2 Bft) 89,36 %
14.06.2017 04:20 13,5 C 25,6 C 74 % 1016,3 hPa 0,0 l/m 3,6 km/h (1 Bft) O-NO 76 0 min 0,000 mm 0,0 UV-I 0 W/m 9,0 C 13,5 C 4,8 km/h (1 Bft) 92,45 %
14.06.2017 04:22 13,5 C 25,6 C 73 % 1016,2 hPa 0,0 l/m 5,3 km/h (1 Bft) O 82 0 min 0,000 mm 0,0 UV-I 0 W/m 8,8 C 13,5 C 6,4 km/h (2 Bft) 90,00 %
14.06.2017 04:24 13,6 C 25,6 C 73 % 1016,2 hPa 0,0 l/m 5,5 km/h (1 Bft) O 79 0 min 0,000 mm 0,0 UV-I 0 W/m 8,9 C 13,6 C 6,4 km/h (2 Bft) 94,29 %
14.06.2017 04:26 13,6 C 25,6 C 73 % 1016,2 hPa 0,0 l/m 5,3 km/h (1 Bft) O 83 0 min 0,000 mm 0,0 UV-I 0 W/m 8,9 C 13,6 C 8,0 km/h (2 Bft) 90,57 %
14.06.2017 04:28 13,6 C 25,6 C 73 % 1016,3 hPa 0,0 l/m 5,8 km/h (2 Bft) O-NO 77 0 min 0,000 mm 0,0 UV-I 0 W/m 8,9 C 13,6 C 8,0 km/h (2 Bft) 93,18 %
14.06.2017 04:30 13,6 C 25,6 C 73 % 1016,3 hPa 0,0 l/m 4,7 km/h (1 Bft) O-NO 73 0 min 0,000 mm 0,0 UV-I 0 W/m 8,9 C 13,6 C 6,4 km/h (2 Bft) 96,00 %
14.06.2017 04:32 13,6 C 25,6 C 73 % 1016,3 hPa 0,0 l/m 5,1 km/h (1 Bft) O 84 0 min 0,000 mm 0,0 UV-I 0 W/m 8,9 C 13,6 C 8,0 km/h (2 Bft) 88,64 %
14.06.2017 04:34 13,6 C 25,6 C 73 % 1016,2 hPa 0,0 l/m 4,6 km/h (1 Bft) O-NO 77 0 min 0,000 mm 0,0 UV-I 0 W/m 8,9 C 13,6 C 6,4 km/h (2 Bft) 94,34 %
14.06.2017 04:36 13,6 C 25,6 C 73 % 1016,2 hPa 0,0 l/m 4,5 km/h (1 Bft) O 100 0 min 0,000 mm 0,0 UV-I 0 W/m 8,9 C 13,6 C 6,4 km/h (2 Bft) 92,68 %
14.06.2017 04:38 13,4 C 25,6 C 74 % 1016,2 hPa 0,0 l/m 4,3 km/h (1 Bft) O 85 0 min 0,000 mm 0,0 UV-I 0 W/m 8,9 C 13,4 C 6,4 km/h (2 Bft) 94,00 %
14.06.2017 04:40 13,3 C 25,6 C 74 % 1016,2 hPa 0,0 l/m 4,0 km/h (1 Bft) O 83 0 min 0,000 mm 0,0 UV-I 0 W/m 8,8 C 13,3 C 6,4 km/h (2 Bft) 98,00 %
14.06.2017 04:42 13,2 C 25,6 C 75 % 1016,2 hPa 0,0 l/m 5,0 km/h (1 Bft) O 91 0 min 0,000 mm 0,0 UV-I 0 W/m 8,9 C 13,2 C 8,0 km/h (2 Bft) 94,44 %
14.06.2017 04:44 13,2 C 25,6 C 75 % 1016,1 hPa 0,0 l/m 6,3 km/h (2 Bft) O-NO 71 0 min 0,000 mm 0,0 UV-I 2 W/m 8,9 C 13,2 C 11,3 km/h (2 Bft) 96,00 %
14.06.2017 04:46 13,1 C 25,6 C 75 % 1016,2 hPa 0,0 l/m 6,7 km/h (2 Bft) O 87 0 min 0,000 mm 0,0 UV-I 5 W/m 8,8 C 12,9 C 9,7 km/h (2 Bft) 94,00 %
14.06.2017 04:48 13,2 C 25,6 C 74 % 1016,3 hPa 0,0 l/m 6,0 km/h (2 Bft) O 87 0 min 0,000 mm 0,0 UV-I 5 W/m 8,7 C 13,2 C 12,9 km/h (3 Bft) 92,00 %
14.06.2017 04:50 13,2 C 25,6 C 74 % 1016,3 hPa 0,0 l/m 4,9 km/h (1 Bft) O 81 0 min 0,000 mm 0,0 UV-I 5 W/m 8,7 C 13,2 C 6,4 km/h (2 Bft) 94,74 %
14.06.2017 04:52 13,2 C 25,6 C 75 % 1016,4 hPa 0,0 l/m 4,9 km/h (1 Bft) O 99 0 min 0,000 mm 0,0 UV-I 7 W/m 8,9 C 13,2 C 9,7 km/h (2 Bft) 95,45 %
14.06.2017 04:54 13,2 C 25,6 C 74 % 1016,4 hPa 0,0 l/m 6,5 km/h (2 Bft) O 80 0 min 0,000 mm 0,0 UV-I 7 W/m 8,7 C 13,2 C 11,3 km/h (2 Bft) 96,77 %
14.06.2017 04:56 13,3 C 25,6 C 74 % 1016,4 hPa 0,0 l/m 6,8 km/h (2 Bft) O-NO 78 0 min 0,000 mm 0,0 UV-I 8 W/m 8,8 C 13,1 C 11,3 km/h (2 Bft) 94,74 %
14.06.2017 04:58 13,3 C 25,6 C 74 % 1016,3 hPa 0,0 l/m 6,9 km/h (2 Bft) O-NO 74 0 min 0,000 mm 0,0 UV-I 9 W/m 8,8 C 13,0 C 11,3 km/h (2 Bft) 92,86 %
14.06.2017 05:00 13,3 C 25,6 C 74 % 1016,3 hPa 0,0 l/m 5,5 km/h (1 Bft) O 84 0 min 0,026 mm 0,0 UV-I 9 W/m 8,8 C 13,3 C 8,0 km/h (2 Bft) 97,56 %
14.06.2017 05:02 13,3 C 25,6 C 74 % 1016,3 hPa 0,0 l/m 5,4 km/h (1 Bft) O-NO 77 0 min 0,000 mm 0,0 UV-I 10 W/m 8,8 C 13,3 C 8,0 km/h (2 Bft) 97,87 %
14.06.2017 05:04 13,4 C 25,6 C 74 % 1016,3 hPa 0,0 l/m 4,2 km/h (1 Bft) O-NO 76 0 min 0,000 mm 0,0 UV-I 11 W/m 8,9 C 13,4 C 6,4 km/h (2 Bft) 100,00 %
14.06.2017 05:06 13,3 C 25,6 C 74 % 1016,4 hPa 0,0 l/m 3,9 km/h (1 Bft) O 86 0 min 0,000 mm 0,0 UV-I 11 W/m 8,8 C 13,3 C 6,4 km/h (2 Bft) 97,06 %
14.06.2017 05:08 13,3 C 25,6 C 74 % 1016,4 hPa 0,0 l/m 2,2 km/h (1 Bft) O 86 0 min 0,000 mm 0,0 UV-I 12 W/m 8,8 C 13,3 C 3,2 km/h (1 Bft) 98,00 %
14.06.2017 05:10 13,2 C 25,6 C 75 % 1016,4 hPa 0,0 l/m 2,9 km/h (1 Bft) O 84 0 min 0,000 mm 0,0 UV-I 13 W/m 8,9 C 13,2 C 4,8 km/h (1 Bft) 100,00 %
14.06.2017 05:12 13,1 C 25,6 C 75 % 1016,4 hPa 0,0 l/m 2,8 km/h (1 Bft) O 84 0 min 0,000 mm 0,0 UV-I 14 W/m 8,8 C 13,1 C 4,8 km/h (1 Bft) 98,00 %
14.06.2017 05:14 13,1 C 25,6 C 75 % 1016,4 hPa 0,0 l/m 4,0 km/h (1 Bft) O-NO 69 0 min 0,000 mm 0,0 UV-I 16 W/m 8,8 C 13,1 C 6,4 km/h (2 Bft) 95,74 %
14.06.2017 05:16 13,1 C 25,6 C 75 % 1016,4 hPa 0,0 l/m 4,4 km/h (1 Bft) O-NO 73 2 min 0,000 mm 0,0 UV-I 17 W/m 8,8 C 13,1 C 6,4 km/h (2 Bft) 100,00 %
14.06.2017 05:18 13,2 C 25,6 C 75 % 1016,4 hPa 0,0 l/m 5,2 km/h (1 Bft) O-NO 73 2 min 0,000 mm 0,0 UV-I 18 W/m 8,9 C 13,2 C 8,0 km/h (2 Bft) 97,56 %
14.06.2017 05:20 13,2 C 25,6 C 75 % 1016,5 hPa 0,0 l/m 5,4 km/h (1 Bft) O-NO 74 2 min 0,000 mm 0,0 UV-I 19 W/m 8,9 C 13,2 C 8,0 km/h (2 Bft) 97,87 %
14.06.2017 05:22 13,3 C 25,6 C 75 % 1016,4 hPa 0,0 l/m 4,0 km/h (1 Bft) O-NO 78 2 min 0,000 mm 0,0 UV-I 21 W/m 9,0 C 13,3 C 6,4 km/h (2 Bft) 97,78 %
14.06.2017 05:24 13,4 C 25,6 C 74 % 1016,4 hPa 0,0 l/m 2,8 km/h (1 Bft) O-NO 69 2 min 0,000 mm 0,0 UV-I 25 W/m 8,9 C 13,4 C 4,8 km/h (1 Bft) 98,11 %
14.06.2017 05:26 13,4 C 25,6 C 74 % 1016,4 hPa 0,0 l/m 3,5 km/h (1 Bft) O-NO 69 2 min 0,000 mm 0,0 UV-I 28 W/m 8,9 C 13,4 C 4,8 km/h (1 Bft) 97,87 %
14.06.2017 05:28 13,5 C 25,6 C 74 % 1016,4 hPa 0,0 l/m 3,0 km/h (1 Bft) O-NO 69 2 min 0,000 mm 0,0 UV-I 31 W/m 9,0 C 13,5 C 6,4 km/h (2 Bft) 100,00 %
14.06.2017 05:30 13,5 C 25,6 C 74 % 1016,4 hPa 0,0 l/m 2,1 km/h (1 Bft) O-NO 69 2 min 0,000 mm 0,0 UV-I 34 W/m 9,0 C 13,5 C 3,2 km/h (1 Bft) 98,00 %
14.06.2017 05:32 13,4 C 25,6 C 74 % 1016,5 hPa 0,0 l/m 1,2 km/h (1 Bft) O-NO 69 2 min 0,000 mm 0,0 UV-I 37 W/m 8,9 C 13,4 C 4,8 km/h (1 Bft) 97,87 %
14.06.2017 05:34 13,3 C 25,6 C 75 % 1016,6 hPa 0,0 l/m 0,0 km/h (0 Bft) O-NO 69 2 min 0,000 mm 0,0 UV-I 39 W/m 9,0 C 13,3 C 1,6 km/h (1 Bft) 100,00 %
14.06.2017 05:36 13,1 C 25,6 C 77 % 1016,6 hPa 0,0 l/m 1,6 km/h (1 Bft) O-NO 69 2 min 0,000 mm 0,0 UV-I 40 W/m 9,2 C 13,1 C 4,8 km/h (1 Bft) 98,00 %
14.06.2017 05:38 13,1 C 25,6 C 76 % 1016,6 hPa 0,0 l/m 2,6 km/h (1 Bft) O-NO 69 2 min 0,000 mm 0,0 UV-I 40 W/m 9,0 C 13,1 C 4,8 km/h (1 Bft) 96,00 %
14.06.2017 05:40 13,1 C 25,6 C 76 % 1016,7 hPa 0,0 l/m 3,9 km/h (1 Bft) O-NO 69 2 min 0,000 mm 0,0 UV-I 43 W/m 9,0 C 13,1 C 4,8 km/h (1 Bft) 95,74 %
14.06.2017 05:42 13,1 C 25,6 C 76 % 1016,7 hPa 0,0 l/m 3,2 km/h (1 Bft) O-NO 71 2 min 0,000 mm 0,0 UV-I 47 W/m 9,0 C 13,1 C 4,8 km/h (1 Bft) 100,00 %
14.06.2017 05:44 13,1 C 25,6 C 76 % 1016,7 hPa 0,0 l/m 4,9 km/h (1 Bft) O-NO 73 2 min 0,000 mm 0,0 UV-I 46 W/m 9,0 C 13,1 C 6,4 km/h (2 Bft) 97,87 %
14.06.2017 05:46 13,2 C 25,6 C 76 % 1016,7 hPa 0,0 l/m 4,2 km/h (1 Bft) O-NO 78 0 min 0,000 mm 0,0 UV-I 38 W/m 9,1 C 13,2 C 8,0 km/h (2 Bft) 100,00 %
14.06.2017 05:48 13,3 C 25,6 C 75 % 1016,7 hPa 0,0 l/m 2,7 km/h (1 Bft) O-NO 78 0 min 0,000 mm 0,0 UV-I 35 W/m 9,0 C 13,3 C 4,8 km/h (1 Bft) 98,00 %
14.06.2017 05:50 13,3 C 25,6 C 75 % 1016,8 hPa 0,0 l/m 3,4 km/h (1 Bft) O-NO 78 0 min 0,000 mm 0,0 UV-I 29 W/m 9,0 C 13,3 C 4,8 km/h (1 Bft) 100,00 %
14.06.2017 05:52 13,4 C 25,6 C 74 % 1016,8 hPa 0,0 l/m 1,5 km/h (1 Bft) O-NO 78 0 min 0,000 mm 0,0 UV-I 38 W/m 8,9 C 13,4 C 3,2 km/h (1 Bft) 96,61 %
14.06.2017 05:54 13,4 C 25,6 C 75 % 1016,9 hPa 0,0 l/m 0,7 km/h (0 Bft) O-NO 78 2 min 0,000 mm 0,0 UV-I 60 W/m 9,1 C 13,4 C 1,6 km/h (1 Bft) 97,37 %
14.06.2017 05:56 13,3 C 25,6 C 77 % 1016,9 hPa 0,0 l/m 0,6 km/h (0 Bft) O-NO 78 2 min 0,000 mm 0,0 UV-I 63 W/m 9,4 C 13,3 C 1,6 km/h (1 Bft) 100,00 %
14.06.2017 05:58 13,1 C 25,6 C 78 % 1016,9 hPa 0,0 l/m 0,5 km/h (0 Bft) O-NO 78 0 min 0,000 mm 0,0 UV-I 57 W/m 9,4 C 13,1 C 1,6 km/h (1 Bft) 98,00 %
14.06.2017 06:00 12,9 C 25,6 C 79 % 1016,9 hPa 0,0 l/m 0,0 km/h (0 Bft) O-NO 78 0 min 0,025 mm 0,0 UV-I 68 W/m 9,3 C 12,9 C 0,0 km/h (0 Bft) 96,30 %
14.06.2017 06:02 12,8 C 25,6 C 79 % 1016,9 hPa 0,0 l/m 0,9 km/h (0 Bft) O-NO 78 2 min 0,000 mm 0,0 UV-I 81 W/m 9,2 C 12,8 C 1,6 km/h (1 Bft) 95,52 %
14.06.2017 06:04 12,8 C 25,6 C 79 % 1016,9 hPa 0,0 l/m 0,0 km/h (0 Bft) O-NO 78 2 min 0,000 mm 0,0 UV-I 77 W/m 9,2 C 12,8 C 1,6 km/h (1 Bft) 95,24 %
14.06.2017 06:06 12,7 C 25,6 C 80 % 1016,9 hPa 0,0 l/m 0,0 km/h (0 Bft) O-NO 78 2 min 0,000 mm 0,0 UV-I 82 W/m 9,3 C 12,7 C 1,6 km/h (1 Bft) 97,87 %
14.06.2017 06:08 12,6 C 25,6 C 81 % 1016,8 hPa 0,0 l/m 0,8 km/h (0 Bft) O-NO 78 2 min 0,000 mm 0,0 UV-I 96 W/m 9,4 C 12,6 C 1,6 km/h (1 Bft) 97,87 %
14.06.2017 06:10 12,5 C 24,4 C 81 % 1016,8 hPa 0,0 l/m 1,8 km/h (1 Bft) O-NO 78 2 min 0,000 mm 0,0 UV-I 99 W/m 9,3 C 12,5 C 3,2 km/h (1 Bft) 97,87 %
14.06.2017 06:12 12,6 C 23,9 C 82 % 1016,8 hPa 0,0 l/m 2,0 km/h (1 Bft) O-NO 78 2 min 0,000 mm 0,0 UV-I 104 W/m 9,6 C 12,6 C 3,2 km/h (1 Bft) 95,74 %
14.06.2017 06:14 12,6 C 23,9 C 82 % 1016,8 hPa 0,0 l/m 3,2 km/h (1 Bft) O-NO 76 2 min 0,000 mm 0,0 UV-I 105 W/m 9,6 C 12,6 C 6,4 km/h (2 Bft) 96,00 %
14.06.2017 06:16 12,7 C 23,9 C 82 % 1016,8 hPa 0,0 l/m 3,0 km/h (1 Bft) O-NO 76 2 min 0,000 mm 0,0 UV-I 107 W/m 9,7 C 12,7 C 6,4 km/h (2 Bft) 92,00 %
14.06.2017 06:18 12,9 C 24,4 C 79 % 1016,8 hPa 0,0 l/m 4,3 km/h (1 Bft) O-NO 74 0 min 0,000 mm 0,0 UV-I 88 W/m 9,3 C 12,9 C 4,8 km/h (1 Bft) 88,64 %
14.06.2017 06:20 13,2 C 23,9 C 78 % 1016,8 hPa 0,0 l/m 5,3 km/h (1 Bft) O-NO 72 0 min 0,000 mm 0,0 UV-I 61 W/m 9,4 C 13,2 C 8,0 km/h (2 Bft) 94,74 %
14.06.2017 06:22 13,3 C 23,9 C 78 % 1016,8 hPa 0,0 l/m 5,8 km/h (2 Bft) O-NO 77 0 min 0,000 mm 0,0 UV-I 62 W/m 9,5 C 13,3 C 8,0 km/h (2 Bft) 86,79 %
14.06.2017 06:24 13,4 C 23,9 C 77 % 1016,8 hPa 0,0 l/m 6,2 km/h (2 Bft) O-NO 78 0 min 0,000 mm 0,0 UV-I 68 W/m 9,5 C 13,4 C 8,0 km/h (2 Bft) 90,62 %
14.06.2017 06:26 13,6 C 23,9 C 76 % 1016,9 hPa 0,0 l/m 6,4 km/h (2 Bft) O 81 0 min 0,000 mm 0,0 UV-I 56 W/m 9,4 C 13,6 C 11,3 km/h (2 Bft) 95,16 %
14.06.2017 06:28 13,7 C 23,9 C 76 % 1017,0 hPa 0,0 l/m 4,8 km/h (1 Bft) O-NO 74 0 min 0,000 mm 0,0 UV-I 70 W/m 9,5 C 13,7 C 8,0 km/h (2 Bft) 95,74 %
14.06.2017 06:30 13,8 C 23,9 C 75 % 1017,0 hPa 0,0 l/m 6,4 km/h (2 Bft) O-SO 104 2 min 0,000 mm 0,0 UV-I 123 W/m 9,4 C 13,8 C 11,3 km/h (2 Bft) 97,37 %
14.06.2017 06:32 13,8 C 23,3 C 74 % 1017,0 hPa 0,0 l/m 7,1 km/h (2 Bft) O 88 2 min 0,000 mm 0,0 UV-I 142 W/m 9,2 C 13,4 C 11,3 km/h (2 Bft) 96,43 %
14.06.2017 06:34 13,9 C 23,3 C 74 % 1017,1 hPa 0,0 l/m 5,8 km/h (2 Bft) O-NO 71 2 min 0,000 mm 0,0 UV-I 151 W/m 9,3 C 13,9 C 9,7 km/h (2 Bft) 94,00 %
14.06.2017 06:36 14,0 C 23,3 C 74 % 1017,0 hPa 0,0 l/m 4,9 km/h (1 Bft) O-NO 63 2 min 0,000 mm 0,0 UV-I 153 W/m 9,4 C 14,0 C 8,0 km/h (2 Bft) 95,12 %
14.06.2017 06:38 14,1 C 23,3 C 74 % 1017,1 hPa 0,0 l/m 5,5 km/h (1 Bft) O-NO 62 2 min 0,000 mm 0,0 UV-I 159 W/m 9,5 C 14,1 C 6,4 km/h (2 Bft) 94,34 %
14.06.2017 06:40 14,2 C 23,3 C 73 % 1017,1 hPa 0,0 l/m 3,8 km/h (1 Bft) O-NO 62 2 min 0,000 mm 0,0 UV-I 168 W/m 9,4 C 14,2 C 6,4 km/h (2 Bft) 97,87 %
14.06.2017 06:42 14,3 C 23,3 C 74 % 1017,1 hPa 0,0 l/m 4,5 km/h (1 Bft) NO 51 2 min 0,000 mm 0,0 UV-I 174 W/m 9,7 C 14,3 C 6,4 km/h (2 Bft) 97,22 %
14.06.2017 06:44 14,4 C 23,3 C 75 % 1017,1 hPa 0,0 l/m 4,5 km/h (1 Bft) NO 50 2 min 0,000 mm 0,0 UV-I 168 W/m 10,0 C 14,4 C 6,4 km/h (2 Bft) 98,00 %
14.06.2017 06:46 14,4 C 23,3 C 73 % 1017,1 hPa 0,0 l/m 3,9 km/h (1 Bft) O-NO 61 2 min 0,000 mm 0,0 UV-I 164 W/m 9,6 C 14,4 C 8,0 km/h (2 Bft) 94,00 %
14.06.2017 06:48 14,6 C 23,3 C 74 % 1017,1 hPa 0,0 l/m 4,1 km/h (1 Bft) NO 52 2 min 0,000 mm 0,0 UV-I 188 W/m 10,0 C 14,6 C 6,4 km/h (2 Bft) 94,34 %
14.06.2017 06:50 14,6 C 23,3 C 75 % 1017,1 hPa 0,0 l/m 4,7 km/h (1 Bft) NO 44 2 min 0,000 mm 0,0 UV-I 193 W/m 10,2 C 14,6 C 6,4 km/h (2 Bft) 97,37 %
14.06.2017 06:52 14,7 C 23,3 C 74 % 1017,1 hPa 0,0 l/m 4,5 km/h (1 Bft) N-NO 32 2 min 0,000 mm 0,0 UV-I 202 W/m 10,1 C 14,7 C 8,0 km/h (2 Bft) 96,00 %
14.06.2017 06:54 14,8 C 23,3 C 73 % 1017,1 hPa 0,0 l/m 1,9 km/h (1 Bft) NO 42 2 min 0,000 mm 0,0 UV-I 208 W/m 10,0 C 14,8 C 4,8 km/h (1 Bft) 100,00 %
14.06.2017 06:56 14,9 C 23,3 C 76 % 1017,1 hPa 0,0 l/m 0,4 km/h (0 Bft) NO 42 2 min 0,000 mm 0,0 UV-I 212 W/m 10,7 C 14,9 C 1,6 km/h (1 Bft) 100,00 %
14.06.2017 06:58 14,9 C 23,3 C 78 % 1017,1 hPa 0,0 l/m 1,7 km/h (1 Bft) NO 41 2 min 0,000 mm 0,0 UV-I 218 W/m 11,1 C 14,9 C 4,8 km/h (1 Bft) 97,37 %
14.06.2017 07:00 14,9 C 23,3 C 78 % 1017,1 hPa 0,0 l/m 2,6 km/h (1 Bft) NO 41 2 min 0,076 mm 0,0 UV-I 225 W/m 11,1 C 14,9 C 6,4 km/h (2 Bft) 96,23 %
14.06.2017 07:02 15,1 C 23,3 C 74 % 1017,1 hPa 0,0 l/m 3,6 km/h (1 Bft) N-NO 30 2 min 0,000 mm 0,0 UV-I 235 W/m 10,5 C 15,1 C 8,0 km/h (2 Bft) 97,37 %
14.06.2017 07:04 15,2 C 23,3 C 75 % 1017,2 hPa 0,0 l/m 3,4 km/h (1 Bft) N-NO 20 2 min 0,000 mm 0,0 UV-I 242 W/m 10,8 C 15,2 C 6,4 km/h (2 Bft) 98,21 %
14.06.2017 07:06 15,2 C 23,3 C 75 % 1017,2 hPa 0,0 l/m 4,9 km/h (1 Bft) N-NO 21 2 min 0,000 mm 0,5 UV-I 251 W/m 10,8 C 15,2 C 8,0 km/h (2 Bft) 97,87 %
14.06.2017 07:08 15,2 C 23,3 C 74 % 1017,2 hPa 0,0 l/m 6,6 km/h (2 Bft) N-NO 18 2 min 0,000 mm 0,5 UV-I 260 W/m 10,6 C 15,1 C 8,0 km/h (2 Bft) 92,68 %
14.06.2017 07:10 15,3 C 23,3 C 74 % 1017,2 hPa 0,0 l/m 4,4 km/h (1 Bft) N-NO 30 2 min 0,000 mm 0,5 UV-I 267 W/m 10,7 C 15,3 C 8,0 km/h (2 Bft) 95,74 %
14.06.2017 07:12 15,3 C 23,3 C 74 % 1017,1 hPa 0,0 l/m 4,1 km/h (1 Bft) NO 38 2 min 0,000 mm 0,5 UV-I 274 W/m 10,7 C 15,3 C 6,4 km/h (2 Bft) 94,34 %
14.06.2017 07:14 15,4 C 23,3 C 73 % 1017,1 hPa 0,0 l/m 4,4 km/h (1 Bft) N-NO 22 2 min 0,000 mm 0,5 UV-I 282 W/m 10,6 C 15,4 C 8,0 km/h (2 Bft) 91,49 %
14.06.2017 07:16 15,6 C 23,3 C 73 % 1017,2 hPa 0,0 l/m 4,6 km/h (1 Bft) NO 53 2 min 0,000 mm 0,6 UV-I 288 W/m 10,8 C 15,6 C 6,4 km/h (2 Bft) 98,00 %
14.06.2017 07:18 15,7 C 23,3 C 72 % 1017,2 hPa 0,0 l/m 3,8 km/h (1 Bft) N-NO 33 2 min 0,000 mm 0,6 UV-I 293 W/m 10,7 C 15,7 C 6,4 km/h (2 Bft) 95,12 %
14.06.2017 07:20 15,8 C 23,3 C 73 % 1017,2 hPa 0,0 l/m 3,7 km/h (1 Bft) N-NO 24 2 min 0,000 mm 0,6 UV-I 298 W/m 11,0 C 15,8 C 6,4 km/h (2 Bft) 95,74 %
14.06.2017 07:22 16,0 C 23,3 C 73 % 1017,2 hPa 0,0 l/m 3,1 km/h (1 Bft) N-NO 19 2 min 0,000 mm 0,6 UV-I 304 W/m 11,2 C 16,0 C 6,4 km/h (2 Bft) 95,24 %
14.06.2017 07:24 16,1 C 23,3 C 73 % 1017,3 hPa 0,0 l/m 4,3 km/h (1 Bft) N-NO 26 2 min 0,000 mm 0,6 UV-I 310 W/m 11,3 C 16,1 C 6,4 km/h (2 Bft) 90,57 %
14.06.2017 07:26 16,2 C 23,3 C 72 % 1017,3 hPa 0,0 l/m 3,5 km/h (1 Bft) N-NO 19 2 min 0,000 mm 0,7 UV-I 315 W/m 11,1 C 16,2 C 8,0 km/h (2 Bft) 96,00 %
14.06.2017 07:28 16,2 C 23,3 C 71 % 1017,3 hPa 0,0 l/m 5,4 km/h (1 Bft) N-NO 24 2 min 0,000 mm 0,7 UV-I 319 W/m 10,9 C 16,2 C 11,3 km/h (2 Bft) 97,37 %
14.06.2017 07:30 16,3 C 23,3 C 71 % 1017,3 hPa 0,0 l/m 4,7 km/h (1 Bft) N-NO 28 2 min 0,000 mm 0,7 UV-I 324 W/m 11,0 C 16,3 C 9,7 km/h (2 Bft) 96,43 %
14.06.2017 07:32 16,3 C 23,3 C 73 % 1017,3 hPa 0,0 l/m 2,2 km/h (1 Bft) N-NO 26 2 min 0,000 mm 0,7 UV-I 328 W/m 11,4 C 16,3 C 4,8 km/h (1 Bft) 97,37 %
14.06.2017 07:34 16,4 C 23,3 C 69 % 1017,2 hPa 0,0 l/m 6,0 km/h (2 Bft) N-NO 26 2 min 0,000 mm 0,8 UV-I 333 W/m 10,7 C 16,4 C 11,3 km/h (2 Bft) 92,45 %
14.06.2017 07:36 16,6 C 23,3 C 70 % 1017,3 hPa 0,0 l/m 7,1 km/h (2 Bft) NO 44 2 min 0,000 mm 0,8 UV-I 339 W/m 11,1 C 16,2 C 11,3 km/h (2 Bft) 97,87 %
14.06.2017 07:38 16,7 C 23,3 C 68 % 1017,2 hPa 0,0 l/m 7,4 km/h (2 Bft) N-NO 30 2 min 0,000 mm 0,8 UV-I 345 W/m 10,8 C 16,2 C 11,3 km/h (2 Bft) 98,00 %
14.06.2017 07:40 16,7 C 23,3 C 69 % 1017,3 hPa 0,0 l/m 7,0 km/h (2 Bft) O-NO 59 2 min 0,000 mm 0,8 UV-I 348 W/m 11,0 C 16,4 C 9,7 km/h (2 Bft) 97,87 %
14.06.2017 07:42 16,8 C 23,3 C 68 % 1017,2 hPa 0,0 l/m 7,7 km/h (2 Bft) NO 39 2 min 0,000 mm 0,9 UV-I 354 W/m 10,9 C 16,1 C 14,5 km/h (3 Bft) 97,73 %
14.06.2017 07:44 16,9 C 23,3 C 67 % 1017,2 hPa 0,0 l/m 9,5 km/h (2 Bft) N-NO 19 2 min 0,000 mm 0,9 UV-I 359 W/m 10,7 C 15,4 C 16,1 km/h (3 Bft) 97,56 %
14.06.2017 07:46 16,9 C 23,3 C 64 % 1017,3 hPa 0,0 l/m 11,3 km/h (2 Bft) O-NO 59 2 min 0,000 mm 0,9 UV-I 364 W/m 10,0 C 14,7 C 16,1 km/h (3 Bft) 96,23 %
14.06.2017 07:48 17,0 C 23,3 C 63 % 1017,3 hPa 0,0 l/m 9,4 km/h (2 Bft) N 9 2 min 0,000 mm 0,9 UV-I 368 W/m 9,9 C 15,6 C 14,5 km/h (3 Bft) 97,37 %
14.06.2017 07:50 17,1 C 23,3 C 65 % 1017,3 hPa 0,0 l/m 9,3 km/h (2 Bft) NO 43 2 min 0,000 mm 1,0 UV-I 374 W/m 10,5 C 15,7 C 16,1 km/h (3 Bft) 98,00 %
14.06.2017 07:52 17,1 C 23,3 C 64 % 1017,4 hPa 0,0 l/m 9,7 km/h (2 Bft) N-NO 22 2 min 0,000 mm 1,0 UV-I 379 W/m 10,2 C 15,6 C 14,5 km/h (3 Bft) 98,11 %
14.06.2017 07:54 17,2 C 23,3 C 66 % 1017,4 hPa 0,0 l/m 6,3 km/h (2 Bft) NO 49 2 min 0,000 mm 1,0 UV-I 383 W/m 10,8 C 17,2 C 11,3 km/h (2 Bft) 97,37 %
14.06.2017 07:56 17,4 C 23,3 C 67 % 1017,3 hPa 0,0 l/m 6,2 km/h (2 Bft) N-NO 22 2 min 0,000 mm 1,0 UV-I 388 W/m 11,2 C 17,4 C 11,3 km/h (2 Bft) 98,00 %
14.06.2017 07:58 17,4 C 23,3 C 65 % 1017,3 hPa 0,0 l/m 10,8 km/h (2 Bft) N-NO 25 2 min 0,000 mm 1,1 UV-I 394 W/m 10,8 C 15,5 C 16,1 km/h (3 Bft) 96,43 %
14.06.2017 08:00 17,4 C 23,3 C 66 % 1017,4 hPa 0,0 l/m 10,0 km/h (2 Bft) O-NO 64 2 min 0,000 mm 1,1 UV-I 401 W/m 11,0 C 15,8 C 14,5 km/h (3 Bft) 97,22 %
14.06.2017 08:02 17,4 C 23,3 C 62 % 1017,4 hPa 0,0 l/m 13,4 km/h (3 Bft) NO 42 2 min 0,204 mm 1,1 UV-I 405 W/m 10,0 C 14,6 C 19,3 km/h (3 Bft) 96,36 %
14.06.2017 08:04 17,4 C 23,3 C 62 % 1017,4 hPa 0,0 l/m 9,2 km/h (2 Bft) NO 53 2 min 0,000 mm 1,2 UV-I 411 W/m 10,0 C 16,1 C 16,1 km/h (3 Bft) 100,00 %
14.06.2017 08:06 17,5 C 23,3 C 64 % 1017,4 hPa 0,0 l/m 9,3 km/h (2 Bft) NO 34 2 min 0,000 mm 1,2 UV-I 417 W/m 10,6 C 16,2 C 16,1 km/h (3 Bft) 98,39 %
14.06.2017 08:08 17,6 C 23,3 C 63 % 1017,4 hPa 0,0 l/m 8,9 km/h (2 Bft) NO 48 2 min 0,000 mm 1,2 UV-I 412 W/m 10,5 C 16,4 C 11,3 km/h (2 Bft) 98,00 %
14.06.2017 08:10 17,7 C 23,3 C 63 % 1017,4 hPa 0,0 l/m 10,7 km/h (2 Bft) N-NO 15 2 min 0,000 mm 1,3 UV-I 410 W/m 10,6 C 15,8 C 17,7 km/h (3 Bft) 100,00 %
14.06.2017 08:12 17,8 C 23,3 C 63 % 1017,4 hPa 0,0 l/m 9,9 km/h (2 Bft) NO 46 2 min 0,000 mm 1,3 UV-I 440 W/m 10,7 C 16,2 C 14,5 km/h (3 Bft) 98,21 %
14.06.2017 08:14 17,8 C 23,3 C 60 % 1017,4 hPa 0,0 l/m 13,1 km/h (3 Bft) O-NO 59 2 min 0,000 mm 1,3 UV-I 441 W/m 9,9 C 15,1 C 19,3 km/h (3 Bft) 97,56 %
14.06.2017 08:16 17,7 C 23,3 C 59 % 1017,4 hPa 0,0 l/m 15,5 km/h (3 Bft) O 79 2 min 0,000 mm 1,4 UV-I 452 W/m 9,6 C 14,3 C 19,3 km/h (3 Bft) 97,56 %
14.06.2017 08:18 17,7 C 23,3 C 59 % 1017,4 hPa 0,0 l/m 13,2 km/h (3 Bft) NO 52 2 min 0,000 mm 1,4 UV-I 460 W/m 9,6 C 15,0 C 19,3 km/h (3 Bft) 94,64 %
14.06.2017 08:20 17,7 C 23,3 C 60 % 1017,5 hPa 0,0 l/m 12,0 km/h (2 Bft) O-NO 74 2 min 0,000 mm 1,4 UV-I 467 W/m 9,8 C 15,4 C 20,9 km/h (4 Bft) 97,37 %
14.06.2017 08:22 17,6 C 23,3 C 59 % 1017,5 hPa 0,0 l/m 12,3 km/h (3 Bft) NO 51 2 min 0,000 mm 1,5 UV-I 472 W/m 9,5 C 15,2 C 17,7 km/h (3 Bft) 93,62 %
14.06.2017 08:24 17,7 C 23,3 C 60 % 1017,6 hPa 0,0 l/m 10,5 km/h (2 Bft) O 88 2 min 0,000 mm 1,5 UV-I 467 W/m 9,8 C 15,9 C 16,1 km/h (3 Bft) 98,11 %
14.06.2017 08:26 17,8 C 23,3 C 61 % 1017,6 hPa 0,0 l/m 11,4 km/h (2 Bft) O-NO 67 2 min 0,000 mm 1,5 UV-I 445 W/m 10,2 C 15,7 C 17,7 km/h (3 Bft) 97,37 %
14.06.2017 08:28 17,8 C 23,3 C 59 % 1017,6 hPa 0,0 l/m 13,2 km/h (3 Bft) O-NO 62 2 min 0,000 mm 1,6 UV-I 489 W/m 9,7 C 15,1 C 17,7 km/h (3 Bft) 98,31 %
14.06.2017 08:30 17,8 C 23,3 C 60 % 1017,6 hPa 0,0 l/m 11,9 km/h (2 Bft) O-NO 60 2 min 0,000 mm 1,6 UV-I 499 W/m 9,9 C 15,5 C 16,1 km/h (3 Bft) 97,37 %
14.06.2017 08:32 17,9 C 23,3 C 62 % 1017,6 hPa 0,0 l/m 14,1 km/h (3 Bft) NO 38 2 min 0,000 mm 1,7 UV-I 511 W/m 10,5 C 15,0 C 19,3 km/h (3 Bft) 98,21 %
14.06.2017 08:34 18,0 C 23,3 C 62 % 1017,6 hPa 0,0 l/m 15,1 km/h (3 Bft) NO 40 2 min 0,000 mm 1,7 UV-I 517 W/m 10,6 C 14,8 C 22,5 km/h (4 Bft) 94,74 %
14.06.2017 08:36 18,0 C 23,3 C 60 % 1017,6 hPa 0,0 l/m 10,4 km/h (2 Bft) NO 49 2 min 0,000 mm 1,7 UV-I 520 W/m 10,1 C 16,3 C 14,5 km/h (3 Bft) 96,23 %
14.06.2017 08:38 18,1 C 23,3 C 60 % 1017,6 hPa 0,0 l/m 9,5 km/h (2 Bft) NO 44 2 min 0,000 mm 1,8 UV-I 523 W/m 10,2 C 16,7 C 14,5 km/h (3 Bft) 97,62 %
14.06.2017 08:40 18,2 C 23,3 C 58 % 1017,6 hPa 0,0 l/m 14,2 km/h (3 Bft) O-NO 57 2 min 0,000 mm 1,8 UV-I 536 W/m 9,8 C 15,3 C 19,3 km/h (3 Bft) 98,00 %
14.06.2017 08:42 18,2 C 23,3 C 59 % 1017,6 hPa 0,0 l/m 14,1 km/h (3 Bft) O-NO 65 2 min 0,000 mm 1,9 UV-I 549 W/m 10,1 C 15,3 C 22,5 km/h (4 Bft) 100,00 %
14.06.2017 08:44 18,2 C 23,9 C 56 % 1017,6 hPa 0,0 l/m 16,3 km/h (3 Bft) NO 52 2 min 0,000 mm 1,9 UV-I 559 W/m 9,3 C 14,7 C 20,9 km/h (4 Bft) 100,00 %
14.06.2017 08:46 18,2 C 23,9 C 58 % 1017,6 hPa 0,0 l/m 13,1 km/h (3 Bft) O-NO 67 2 min 0,000 mm 2,0 UV-I 567 W/m 9,8 C 15,6 C 19,3 km/h (3 Bft) 100,00 %
14.06.2017 08:48 18,2 C 23,9 C 57 % 1017,5 hPa 0,0 l/m 11,6 km/h (2 Bft) O 82 2 min 0,000 mm 2,0 UV-I 578 W/m 9,5 C 16,1 C 19,3 km/h (3 Bft) 100,00 %
14.06.2017 08:50 18,3 C 23,3 C 58 % 1017,5 hPa 0,0 l/m 11,0 km/h (2 Bft) NO 51 2 min 0,000 mm 2,1 UV-I 584 W/m 9,9 C 16,4 C 19,3 km/h (3 Bft) 100,00 %
14.06.2017 08:52 18,4 C 23,3 C 59 % 1017,5 hPa 0,0 l/m 9,1 km/h (2 Bft) N-NO 28 2 min 0,000 mm 2,1 UV-I 590 W/m 10,2 C 17,2 C 16,1 km/h (3 Bft) 98,39 %
14.06.2017 08:54 18,6 C 23,3 C 59 % 1017,5 hPa 0,0 l/m 11,0 km/h (2 Bft) NO 35 2 min 0,000 mm 2,2 UV-I 592 W/m 10,4 C 16,7 C 19,3 km/h (3 Bft) 100,00 %
14.06.2017 08:56 18,7 C 23,3 C 56 % 1017,6 hPa 0,0 l/m 14,7 km/h (3 Bft) O-NO 58 2 min 0,000 mm 2,2 UV-I 598 W/m 9,7 C 15,8 C 22,5 km/h (4 Bft) 100,00 %
14.06.2017 08:58 18,7 C 23,9 C 56 % 1017,5 hPa 0,0 l/m 16,4 km/h (3 Bft) O-NO 59 2 min 0,000 mm 2,2 UV-I 594 W/m 9,7 C 15,3 C 24,1 km/h (4 Bft) 100,00 %
14.06.2017 09:00 18,6 C 23,9 C 57 % 1017,5 hPa 0,0 l/m 11,5 km/h (2 Bft) O-NO 71 2 min 0,355 mm 2,3 UV-I 606 W/m 9,9 C 16,6 C 19,3 km/h (3 Bft) 100,00 %
14.06.2017 09:02 18,6 C 23,3 C 59 % 1017,5 hPa 0,0 l/m 9,2 km/h (2 Bft) N-NO 28 2 min 0,000 mm 2,3 UV-I 602 W/m 10,4 C 17,4 C 14,5 km/h (3 Bft) 100,00 %
14.06.2017 09:04 18,8 C 23,3 C 56 % 1017,4 hPa 0,0 l/m 9,4 km/h (2 Bft) NO 40 2 min 0,000 mm 2,3 UV-I 594 W/m 9,8 C 17,5 C 17,7 km/h (3 Bft) 100,00 %
14.06.2017 09:06 18,8 C 23,9 C 58 % 1017,5 hPa 0,0 l/m 10,0 km/h (2 Bft) O-NO 62 2 min 0,000 mm 2,4 UV-I 613 W/m 10,4 C 17,3 C 16,1 km/h (3 Bft) 100,00 %
14.06.2017 09:08 18,9 C 23,9 C 56 % 1017,5 hPa 0,0 l/m 14,8 km/h (3 Bft) NO 38 2 min 0,000 mm 2,5 UV-I 634 W/m 9,9 C 16,0 C 19,3 km/h (3 Bft) 100,00 %
14.06.2017 09:10 18,9 C 23,9 C 56 % 1017,5 hPa 0,0 l/m 14,1 km/h (3 Bft) O 83 2 min 0,000 mm 2,5 UV-I 652 W/m 9,9 C 16,2 C 20,9 km/h (4 Bft) 100,00 %
14.06.2017 09:12 18,9 C 23,9 C 57 % 1017,4 hPa 0,0 l/m 11,9 km/h (2 Bft) O-NO 63 2 min 0,000 mm 2,6 UV-I 656 W/m 10,2 C 16,8 C 17,7 km/h (3 Bft) 100,00 %
14.06.2017 09:14 18,9 C 23,9 C 57 % 1017,4 hPa 0,0 l/m 9,1 km/h (2 Bft) O-NO 69 2 min 0,000 mm 2,6 UV-I 680 W/m 10,2 C 17,8 C 16,1 km/h (3 Bft) 97,56 %
14.06.2017 09:16 18,9 C 23,9 C 56 % 1017,4 hPa 0,0 l/m 10,3 km/h (2 Bft) O-NO 67 2 min 0,000 mm 2,7 UV-I 659 W/m 9,9 C 17,3 C 17,7 km/h (3 Bft) 98,11 %
14.06.2017 09:18 18,9 C 23,9 C 56 % 1017,4 hPa 0,0 l/m 13,3 km/h (3 Bft) O 86 2 min 0,000 mm 2,6 UV-I 621 W/m 9,9 C 16,4 C 19,3 km/h (3 Bft) 100,00 %
14.06.2017 09:20 18,9 C 23,9 C 55 % 1017,4 hPa 0,0 l/m 11,9 km/h (2 Bft) O-NO 64 2 min 0,000 mm 2,6 UV-I 611 W/m 9,7 C 16,8 C 16,1 km/h (3 Bft) 100,00 %
14.06.2017 09:22 18,9 C 23,9 C 58 % 1017,3 hPa 0,0 l/m 11,1 km/h (2 Bft) NO 54 2 min 0,000 mm 2,7 UV-I 618 W/m 10,5 C 17,0 C 17,7 km/h (3 Bft) 98,18 %
14.06.2017 09:24 18,9 C 23,9 C 55 % 1017,4 hPa 0,0 l/m 11,7 km/h (2 Bft) NO 50 2 min 0,000 mm 2,7 UV-I 606 W/m 9,7 C 16,9 C 19,3 km/h (3 Bft) 95,24 %
14.06.2017 09:26 19,0 C 23,9 C 58 % 1017,3 hPa 0,0 l/m 11,2 km/h (2 Bft) O-NO 61 2 min 0,000 mm 2,6 UV-I 614 W/m 10,5 C 17,1 C 19,3 km/h (3 Bft) 97,87 %
14.06.2017 09:28 19,0 C 23,9 C 55 % 1017,4 hPa 0,0 l/m 12,0 km/h (2 Bft) O 90 2 min 0,000 mm 2,4 UV-I 523 W/m 9,8 C 16,9 C 17,7 km/h (3 Bft) 100,00 %
14.06.2017 09:30 18,9 C 23,9 C 56 % 1017,3 hPa 0,0 l/m 10,1 km/h (2 Bft) O-NO 69 2 min 0,000 mm 2,5 UV-I 438 W/m 9,9 C 17,4 C 12,9 km/h (3 Bft) 100,00 %
14.06.2017 09:32 18,9 C 23,9 C 58 % 1017,3 hPa 0,0 l/m 8,0 km/h (2 Bft) O-NO 76 2 min 0,000 mm 2,7 UV-I 567 W/m 10,5 C 18,2 C 14,5 km/h (3 Bft) 98,00 %
14.06.2017 09:34 19,1 C 23,9 C 56 % 1017,3 hPa 0,0 l/m 9,6 km/h (2 Bft) O 93 2 min 0,000 mm 2,9 UV-I 654 W/m 10,1 C 17,8 C 16,1 km/h (3 Bft) 97,56 %
14.06.2017 09:36 19,2 C 23,9 C 55 % 1017,3 hPa 0,0 l/m 14,5 km/h (3 Bft) O-NO 72 2 min 0,000 mm 2,9 UV-I 625 W/m 9,9 C 16,4 C 20,9 km/h (4 Bft) 100,00 %
14.06.2017 09:38 19,1 C 23,9 C 55 % 1017,3 hPa 0,0 l/m 14,0 km/h (3 Bft) O-NO 75 2 min 0,000 mm 2,8 UV-I 630 W/m 9,8 C 16,4 C 19,3 km/h (3 Bft) 97,37 %
14.06.2017 09:40 19,1 C 23,9 C 54 % 1017,3 hPa 0,0 l/m 14,4 km/h (3 Bft) O-NO 60 2 min 0,000 mm 3,0 UV-I 653 W/m 9,6 C 16,3 C 19,3 km/h (3 Bft) 100,00 %
14.06.2017 09:42 19,1 C 23,9 C 56 % 1017,3 hPa 0,0 l/m 10,0 km/h (2 Bft) O 86 2 min 0,000 mm 3,0 UV-I 618 W/m 10,1 C 17,6 C 14,5 km/h (3 Bft) 100,00 %
14.06.2017 09:44 19,1 C 23,9 C 56 % 1017,3 hPa 0,0 l/m 9,4 km/h (2 Bft) NO 46 2 min 0,000 mm 3,0 UV-I 616 W/m 10,1 C 17,9 C 19,3 km/h (3 Bft) 100,00 %
14.06.2017 09:46 19,2 C 23,9 C 55 % 1017,3 hPa 0,0 l/m 13,0 km/h (3 Bft) O 96 2 min 0,000 mm 3,3 UV-I 674 W/m 9,9 C 16,8 C 17,7 km/h (3 Bft) 100,00 %
14.06.2017 09:48 19,2 C 23,9 C 54 % 1017,3 hPa 0,0 l/m 12,7 km/h (3 Bft) O-NO 77 2 min 0,000 mm 3,4 UV-I 712 W/m 9,7 C 16,9 C 17,7 km/h (3 Bft) 100,00 %
14.06.2017 09:50 19,3 C 23,9 C 54 % 1017,3 hPa 0,0 l/m 10,3 km/h (2 Bft) O-NO 63 2 min 0,000 mm 3,5 UV-I 744 W/m 9,8 C 17,8 C 16,1 km/h (3 Bft) 95,74 %
14.06.2017 09:52 19,4 C 23,9 C 55 % 1017,3 hPa 0,0 l/m 10,4 km/h (2 Bft) O-NO 67 2 min 0,000 mm 3,6 UV-I 744 W/m 10,1 C 17,8 C 16,1 km/h (3 Bft) 100,00 %
14.06.2017 09:54 19,7 C 23,9 C 55 % 1017,3 hPa 0,0 l/m 11,1 km/h (2 Bft) NO 56 2 min 0,000 mm 3,6 UV-I 724 W/m 10,4 C 18,0 C 17,7 km/h (3 Bft) 100,00 %
14.06.2017 09:56 19,7 C 23,9 C 54 % 1017,3 hPa 0,0 l/m 7,2 km/h (2 Bft) NO 53 2 min 0,000 mm 3,5 UV-I 711 W/m 10,1 C 19,4 C 11,3 km/h (2 Bft) 97,44 %
14.06.2017 09:58 19,8 C 23,9 C 54 % 1017,3 hPa 0,0 l/m 9,0 km/h (2 Bft) NO 53 2 min 0,000 mm 3,3 UV-I 632 W/m 10,2 C 18,8 C 17,7 km/h (3 Bft) 100,00 %
14.06.2017 10:00 19,8 C 23,9 C 52 % 1017,3 hPa 0,0 l/m 13,2 km/h (3 Bft) O-NO 71 2 min 0,000 mm 3,4 UV-I 619 W/m 9,7 C 17,5 C 20,9 km/h (4 Bft) 97,37 %
14.06.2017 10:02 19,6 C 23,9 C 53 % 1017,3 hPa 0,0 l/m 9,8 km/h (2 Bft) NO 52 2 min 0,432 mm 3,5 UV-I 677 W/m 9,8 C 18,3 C 14,5 km/h (3 Bft) 98,21 %
14.06.2017 10:04 19,7 C 23,9 C 55 % 1017,2 hPa 0,0 l/m 9,1 km/h (2 Bft) NO 35 2 min 0,000 mm 3,8 UV-I 763 W/m 10,4 C 18,6 C 17,7 km/h (3 Bft) 98,00 %
14.06.2017 10:06 19,8 C 23,9 C 53 % 1017,2 hPa 0,0 l/m 8,0 km/h (2 Bft) O-NO 63 2 min 0,000 mm 3,8 UV-I 779 W/m 9,9 C 19,1 C 16,1 km/h (3 Bft) 97,37 %
14.06.2017 10:08 19,7 C 23,9 C 52 % 1017,2 hPa 0,0 l/m 4,2 km/h (1 Bft) NO 42 2 min 0,000 mm 4,0 UV-I 761 W/m 9,6 C 19,7 C 6,4 km/h (2 Bft) 98,21 %
14.06.2017 10:10 19,8 C 23,9 C 55 % 1017,2 hPa 0,0 l/m 8,7 km/h (2 Bft) NO 43 2 min 0,000 mm 3,7 UV-I 643 W/m 10,5 C 18,9 C 14,5 km/h (3 Bft) 97,73 %
14.06.2017 10:12 20,0 C 23,9 C 54 % 1017,1 hPa 0,0 l/m 10,2 km/h (2 Bft) N-NO 24 2 min 0,000 mm 3,9 UV-I 641 W/m 10,4 C 18,6 C 16,1 km/h (3 Bft) 98,00 %
14.06.2017 10:14 20,0 C 23,9 C 55 % 1017,1 hPa 0,0 l/m 9,1 km/h (2 Bft) N-NO 28 2 min 0,000 mm 4,1 UV-I 746 W/m 10,7 C 18,9 C 14,5 km/h (3 Bft) 95,12 %
14.06.2017 10:16 20,2 C 23,9 C 55 % 1017,2 hPa 0,0 l/m 7,7 km/h (2 Bft) NO 40 2 min 0,000 mm 4,3 UV-I 841 W/m 10,9 C 19,7 C 12,9 km/h (3 Bft) 98,00 %
14.06.2017 10:18 20,3 C 23,9 C 55 % 1017,3 hPa 0,0 l/m 7,7 km/h (2 Bft) O 85 2 min 0,000 mm 4,3 UV-I 839 W/m 11,0 C 19,8 C 17,7 km/h (3 Bft) 94,00 %
14.06.2017 10:20 20,3 C 23,9 C 52 % 1017,3 hPa 0,0 l/m 9,2 km/h (2 Bft) O 88 2 min 0,000 mm 4,0 UV-I 746 W/m 10,1 C 19,2 C 14,5 km/h (3 Bft) 97,56 %
14.06.2017 10:22 20,0 C 23,9 C 51 % 1017,2 hPa 0,0 l/m 7,8 km/h (2 Bft) O-NO 70 2 min 0,000 mm 3,9 UV-I 757 W/m 9,6 C 19,4 C 11,3 km/h (2 Bft) 97,73 %
14.06.2017 10:24 19,9 C 23,9 C 53 % 1017,2 hPa 0,0 l/m 11,4 km/h (2 Bft) O-NO 58 2 min 0,000 mm 4,3 UV-I 818 W/m 10,0 C 18,1 C 17,7 km/h (3 Bft) 96,00 %
14.06.2017 10:26 20,0 C 23,9 C 53 % 1017,2 hPa 0,0 l/m 12,8 km/h (3 Bft) NO 36 2 min 0,000 mm 3,4 UV-I 677 W/m 10,1 C 17,8 C 19,3 km/h (3 Bft) 97,56 %
14.06.2017 10:28 20,0 C 23,9 C 53 % 1017,1 hPa 0,0 l/m 10,9 km/h (2 Bft) NO 40 2 min 0,000 mm 3,3 UV-I 605 W/m 10,1 C 18,4 C 17,7 km/h (3 Bft) 98,21 %
14.06.2017 10:30 19,9 C 23,9 C 54 % 1017,1 hPa 0,0 l/m 13,3 km/h (3 Bft) O-NO 64 2 min 0,000 mm 3,3 UV-I 534 W/m 10,3 C 17,6 C 20,9 km/h (4 Bft) 94,74 %
14.06.2017 10:32 19,9 C 23,9 C 54 % 1017,1 hPa 0,0 l/m 12,3 km/h (3 Bft) NO 40 2 min 0,000 mm 4,0 UV-I 591 W/m 10,3 C 17,8 C 17,7 km/h (3 Bft) 98,00 %
14.06.2017 10:34 19,9 C 23,9 C 53 % 1017,1 hPa 0,0 l/m 4,6 km/h (1 Bft) NO 44 2 min 0,000 mm 4,5 UV-I 846 W/m 10,0 C 19,9 C 9,7 km/h (2 Bft) 98,00 %
14.06.2017 10:36 20,0 C 23,9 C 58 % 1017,0 hPa 0,0 l/m 6,6 km/h (2 Bft) NO 35 2 min 0,000 mm 4,8 UV-I 911 W/m 11,5 C 19,9 C 9,7 km/h (2 Bft) 100,00 %
14.06.2017 10:38 20,3 C 23,9 C 53 % 1017,0 hPa 0,0 l/m 4,7 km/h (1 Bft) NO 50 2 min 0,000 mm 4,6 UV-I 905 W/m 10,4 C 20,3 C 8,0 km/h (2 Bft) 97,44 %
14.06.2017 10:40 20,4 C 23,9 C 51 % 1017,0 hPa 0,0 l/m 10,4 km/h (2 Bft) O-SO 105 2 min 0,000 mm 3,7 UV-I 727 W/m 9,9 C 19,0 C 16,1 km/h (3 Bft) 96,61 %
14.06.2017 10:42 20,3 C 23,9 C 51 % 1017,1 hPa 0,0 l/m 11,5 km/h (2 Bft) NO 53 2 min 0,000 mm 3,4 UV-I 443 W/m 9,8 C 18,5 C 17,7 km/h (3 Bft) 97,73 %
14.06.2017 10:44 20,2 C 23,9 C 51 % 1017,0 hPa 0,0 l/m 8,1 km/h (2 Bft) O-NO 63 2 min 0,000 mm 4,7 UV-I 444 W/m 9,7 C 19,5 C 12,9 km/h (3 Bft) 96,15 %
14.06.2017 10:46 20,3 C 23,9 C 52 % 1017,0 hPa 0,0 l/m 6,3 km/h (2 Bft) O-NO 60 2 min 0,000 mm 5,0 UV-I 911 W/m 10,1 C 20,3 C 11,3 km/h (2 Bft) 97,06 %
14.06.2017 10:48 20,5 C 23,9 C 52 % 1016,9 hPa 0,0 l/m 7,2 km/h (2 Bft) NO 48 2 min 0,000 mm 5,0 UV-I 893 W/m 10,3 C 20,2 C 11,3 km/h (2 Bft) 92,00 %
14.06.2017 10:50 20,6 C 23,9 C 54 % 1017,0 hPa 0,0 l/m 4,9 km/h (1 Bft) NO 49 2 min 0,000 mm 4,7 UV-I 806 W/m 11,0 C 20,6 C 8,0 km/h (2 Bft) 97,56 %
14.06.2017 10:52 20,6 C 23,9 C 51 % 1016,9 hPa 0,0 l/m 3,9 km/h (1 Bft) O-SO 105 2 min 0,000 mm 4,2 UV-I 761 W/m 10,1 C 20,6 C 6,4 km/h (2 Bft) 98,00 %
14.06.2017 10:54 20,4 C 23,9 C 50 % 1017,0 hPa 0,0 l/m 3,4 km/h (1 Bft) O-NO 69 2 min 0,000 mm 4,9 UV-I 840 W/m 9,6 C 20,4 C 6,4 km/h (2 Bft) 97,73 %
14.06.2017 10:56 20,5 C 23,9 C 54 % 1017,0 hPa 0,0 l/m 5,4 km/h (1 Bft) NO 56 2 min 0,000 mm 4,9 UV-I 833 W/m 10,9 C 20,5 C 8,0 km/h (2 Bft) 97,56 %
14.06.2017 10:58 20,7 C 23,9 C 55 % 1016,9 hPa 0,0 l/m 8,0 km/h (2 Bft) NO 45 2 min 0,000 mm 4,7 UV-I 784 W/m 11,3 C 20,1 C 11,3 km/h (2 Bft) 96,00 %
14.06.2017 11:00 20,8 C 23,9 C 52 % 1017,0 hPa 0,0 l/m 7,2 km/h (2 Bft) NO 55 2 min 0,483 mm 4,8 UV-I 797 W/m 10,6 C 20,5 C 14,5 km/h (3 Bft) 98,11 %
14.06.2017 11:02 20,9 C 23,9 C 54 % 1017,0 hPa 0,0 l/m 10,8 km/h (2 Bft) O-NO 59 2 min 0,000 mm 5,1 UV-I 852 W/m 11,2 C 19,4 C 16,1 km/h (3 Bft) 97,14 %
14.06.2017 11:04 21,1 C 23,9 C 53 % 1016,9 hPa 0,0 l/m 7,4 km/h (2 Bft) NO 44 2 min 0,000 mm 5,1 UV-I 871 W/m 11,1 C 20,7 C 9,7 km/h (2 Bft) 98,11 %
14.06.2017 11:06 21,0 C 23,9 C 50 % 1016,9 hPa 0,0 l/m 6,5 km/h (2 Bft) NO 53 2 min 0,000 mm 5,2 UV-I 859 W/m 10,2 C 21,0 C 11,3 km/h (2 Bft) 98,11 %
14.06.2017 11:08 20,8 C 23,9 C 50 % 1016,9 hPa 0,0 l/m 2,6 km/h (1 Bft) NO 53 2 min 0,000 mm 4,6 UV-I 812 W/m 10,0 C 20,8 C 6,4 km/h (2 Bft) 97,14 %
14.06.2017 11:10 20,8 C 23,9 C 51 % 1016,9 hPa 0,0 l/m 1,7 km/h (1 Bft) NO 51 2 min 0,000 mm 4,4 UV-I 712 W/m 10,3 C 20,8 C 6,4 km/h (2 Bft) 91,07 %
14.06.2017 11:12 20,9 C 23,9 C 52 % 1016,9 hPa 0,0 l/m 7,9 km/h (2 Bft) O-NO 74 2 min 0,000 mm 5,1 UV-I 662 W/m 10,7 C 20,3 C 12,9 km/h (3 Bft) 98,00 %
14.06.2017 11:14 20,9 C 23,9 C 52 % 1016,9 hPa 0,0 l/m 7,0 km/h (2 Bft) O-NO 78 2 min 0,000 mm 4,9 UV-I 731 W/m 10,7 C 20,7 C 11,3 km/h (2 Bft) 97,44 %
14.06.2017 11:16 20,8 C 23,9 C 51 % 1016,9 hPa 0,0 l/m 7,9 km/h (2 Bft) O-NO 78 2 min 0,000 mm 5,1 UV-I 785 W/m 10,3 C 20,2 C 12,9 km/h (3 Bft) 97,87 %
14.06.2017 11:18 20,7 C 23,9 C 51 % 1016,9 hPa 0,0 l/m 6,1 km/h (2 Bft) O-NO 69 2 min 0,000 mm 4,7 UV-I 735 W/m 10,2 C 20,7 C 12,9 km/h (3 Bft) 96,00 %
14.06.2017 11:20 20,7 C 23,9 C 52 % 1016,8 hPa 0,0 l/m 7,1 km/h (2 Bft) N-NO 31 2 min 0,000 mm 5,0 UV-I 814 W/m 10,5 C 20,4 C 14,5 km/h (3 Bft) 97,73 %
14.06.2017 11:22 20,8 C 23,9 C 54 % 1016,9 hPa 0,0 l/m 8,9 km/h (2 Bft) O-NO 71 2 min 0,000 mm 5,0 UV-I 814 W/m 11,1 C 19,9 C 14,5 km/h (3 Bft) 98,11 %
14.06.2017 11:24 21,1 C 23,9 C 49 % 1016,9 hPa 0,0 l/m 3,2 km/h (1 Bft) O 95 2 min 0,000 mm 5,1 UV-I 806 W/m 10,0 C 21,1 C 11,3 km/h (2 Bft) 97,73 %
14.06.2017 11:26 21,0 C 23,9 C 50 % 1016,9 hPa 0,0 l/m 3,1 km/h (1 Bft) O-SO 117 2 min 0,000 mm 4,9 UV-I 792 W/m 10,2 C 21,0 C 6,4 km/h (2 Bft) 94,00 %
14.06.2017 11:28 20,8 C 23,9 C 53 % 1016,9 hPa 0,0 l/m 3,2 km/h (1 Bft) NO 49 2 min 0,000 mm 4,9 UV-I 752 W/m 10,9 C 20,8 C 8,0 km/h (2 Bft) 97,37 %
14.06.2017 11:30 20,9 C 23,9 C 54 % 1016,8 hPa 0,0 l/m 9,2 km/h (2 Bft) NO 38 2 min 0,000 mm 4,7 UV-I 722 W/m 11,2 C 19,9 C 17,7 km/h (3 Bft) 94,34 %
14.06.2017 11:32 21,1 C 23,9 C 52 % 1016,8 hPa 0,0 l/m 12,5 km/h (3 Bft) O-NO 67 2 min 0,000 mm 5,0 UV-I 771 W/m 10,9 C 19,2 C 16,1 km/h (3 Bft) 95,12 %
14.06.2017 11:34 21,1 C 23,9 C 54 % 1016,9 hPa 0,0 l/m 8,2 km/h (2 Bft) NO 51 2 min 0,000 mm 5,3 UV-I 824 W/m 11,4 C 20,4 C 12,9 km/h (3 Bft) 90,57 %
14.06.2017 11:36 21,1 C 23,9 C 50 % 1016,9 hPa 0,0 l/m 3,2 km/h (1 Bft) NO 55 2 min 0,000 mm 5,1 UV-I 734 W/m 10,3 C 21,1 C 8,0 km/h (2 Bft) 97,56 %
14.06.2017 11:38 20,9 C 23,9 C 51 % 1016,9 hPa 0,0 l/m 0,7 km/h (0 Bft) NO 34 2 min 0,000 mm 5,0 UV-I 738 W/m 10,4 C 20,9 C 3,2 km/h (1 Bft) 97,87 %
14.06.2017 11:40 20,8 C 23,9 C 52 % 1016,8 hPa 0,0 l/m 2,4 km/h (1 Bft) NW 311 2 min 0,000 mm 5,1 UV-I 755 W/m 10,6 C 20,8 C 4,8 km/h (1 Bft) 94,64 %
14.06.2017 11:42 20,9 C 23,9 C 58 % 1016,8 hPa 0,0 l/m 2,2 km/h (1 Bft) N-NO 24 2 min 0,000 mm 5,4 UV-I 793 W/m 12,3 C 20,9 C 12,9 km/h (3 Bft) 97,37 %
14.06.2017 11:44 21,5 C 23,9 C 58 % 1016,8 hPa 0,0 l/m 10,2 km/h (2 Bft) N-NO 32 2 min 0,000 mm 5,8 UV-I 858 W/m 12,9 C 20,2 C 16,1 km/h (3 Bft) 98,00 %
14.06.2017 11:46 21,6 C 23,9 C 50 % 1016,8 hPa 0,0 l/m 4,3 km/h (1 Bft) NO 44 2 min 0,000 mm 5,9 UV-I 898 W/m 10,7 C 21,6 C 11,3 km/h (2 Bft) 100,00 %
14.06.2017 11:48 21,5 C 23,9 C 54 % 1016,8 hPa 0,0 l/m 2,5 km/h (1 Bft) N-NO 27 2 min 0,000 mm 5,8 UV-I 873 W/m 11,8 C 21,5 C 4,8 km/h (1 Bft) 96,88 %
14.06.2017 11:50 21,7 C 23,9 C 53 % 1016,8 hPa 0,0 l/m 0,8 km/h (0 Bft) N 360 2 min 0,000 mm 5,7 UV-I 876 W/m 11,7 C 21,7 C 3,2 km/h (1 Bft) 100,00 %
14.06.2017 11:52 21,7 C 23,9 C 52 % 1016,8 hPa 0,0 l/m 4,2 km/h (1 Bft) O 90 2 min 0,000 mm 5,1 UV-I 792 W/m 11,4 C 21,7 C 12,9 km/h (3 Bft) 97,73 %
14.06.2017 11:54 21,8 C 23,9 C 51 % 1016,7 hPa 0,0 l/m 6,5 km/h (2 Bft) O-NO 58 2 min 0,000 mm 5,4 UV-I 750 W/m 11,2 C 21,8 C 11,3 km/h (2 Bft) 100,00 %
14.06.2017 11:56 21,7 C 23,9 C 49 % 1016,8 hPa 0,0 l/m 6,6 km/h (2 Bft) O-NO 75 2 min 0,000 mm 5,9 UV-I 844 W/m 10,5 C 21,6 C 9,7 km/h (2 Bft) 98,08 %
14.06.2017 11:58 21,6 C 23,9 C 49 % 1016,8 hPa 0,0 l/m 3,5 km/h (1 Bft) S-SO 148 2 min 0,000 mm 5,7 UV-I 855 W/m 10,4 C 21,6 C 6,4 km/h (2 Bft) 97,22 %
14.06.2017 12:00 21,4 C 23,9 C 48 % 1016,8 hPa 0,0 l/m 4,4 km/h (1 Bft) O-NO 65 2 min 0,508 mm 5,0 UV-I 796 W/m 9,9 C 21,4 C 11,3 km/h (2 Bft) 94,00 %
14.06.2017 12:02 21,2 C 23,9 C 50 % 1016,8 hPa 0,0 l/m 2,8 km/h (1 Bft) N-NO 21 2 min 0,000 mm 5,2 UV-I 762 W/m 10,4 C 21,2 C 4,8 km/h (1 Bft) 98,00 %
14.06.2017 12:04 21,2 C 23,9 C 52 % 1016,9 hPa 0,0 l/m 1,4 km/h (1 Bft) N-NO 20 2 min 0,000 mm 5,3 UV-I 766 W/m 10,9 C 21,2 C 6,4 km/h (2 Bft) 96,00 %
14.06.2017 12:06 21,3 C 23,9 C 51 % 1016,8 hPa 0,0 l/m 1,7 km/h (1 Bft) O-SO 109 2 min 0,000 mm 5,7 UV-I 849 W/m 10,7 C 21,3 C 3,2 km/h (1 Bft) 95,45 %
14.06.2017 12:08 21,5 C 23,9 C 49 % 1016,8 hPa 0,0 l/m 4,6 km/h (1 Bft) SO 138 2 min 0,000 mm 5,6 UV-I 828 W/m 10,3 C 21,5 C 11,3 km/h (2 Bft) 97,56 %
14.06.2017 12:10 21,4 C 23,9 C 48 % 1016,8 hPa 0,0 l/m 0,8 km/h (0 Bft) S-SO 148 2 min 0,000 mm 5,4 UV-I 782 W/m 9,9 C 21,4 C 1,6 km/h (1 Bft) 94,64 %
14.06.2017 12:12 21,3 C 23,9 C 50 % 1016,8 hPa 0,0 l/m 2,3 km/h (1 Bft) S-SO 161 2 min 0,000 mm 5,3 UV-I 739 W/m 10,4 C 21,3 C 6,4 km/h (2 Bft) 92,11 %
14.06.2017 12:14 21,4 C 23,9 C 50 % 1016,8 hPa 0,0 l/m 3,5 km/h (1 Bft) O-NO 74 2 min 0,000 mm 5,2 UV-I 744 W/m 10,5 C 21,4 C 12,9 km/h (3 Bft) 96,00 %
14.06.2017 12:16 21,4 C 23,9 C 50 % 1016,8 hPa 0,0 l/m 5,5 km/h (1 Bft) O-NO 68 2 min 0,000 mm 5,1 UV-I 695 W/m 10,5 C 21,4 C 12,9 km/h (3 Bft) 94,00 %
14.06.2017 12:18 21,3 C 23,9 C 50 % 1016,8 hPa 0,0 l/m 4,1 km/h (1 Bft) S-SO 160 2 min 0,000 mm 5,1 UV-I 666 W/m 10,4 C 21,3 C 9,7 km/h (2 Bft) 94,74 %
14.06.2017 12:20 21,3 C 23,9 C 51 % 1016,8 hPa 0,0 l/m 3,6 km/h (1 Bft) S-SO 156 2 min 0,000 mm 5,1 UV-I 692 W/m 10,7 C 21,3 C 8,0 km/h (2 Bft) 91,07 %
14.06.2017 12:22 21,4 C 23,9 C 54 % 1016,8 hPa 0,0 l/m 2,7 km/h (1 Bft) S 187 2 min 0,000 mm 5,2 UV-I 728 W/m 11,7 C 21,4 C 6,4 km/h (2 Bft) 97,56 %
14.06.2017 12:24 21,7 C 23,9 C 55 % 1016,8 hPa 0,0 l/m 3,6 km/h (1 Bft) NO 37 2 min 0,000 mm 5,4 UV-I 750 W/m 12,3 C 21,7 C 6,4 km/h (2 Bft) 94,34 %
14.06.2017 12:26 21,7 C 23,9 C 53 % 1016,7 hPa 0,0 l/m 2,3 km/h (1 Bft) NW 318 2 min 0,000 mm 5,2 UV-I 674 W/m 11,7 C 21,7 C 4,8 km/h (1 Bft) 95,45 %
14.06.2017 12:28 21,7 C 23,9 C 49 % 1016,8 hPa 0,0 l/m 1,5 km/h (1 Bft) N-NW 328 2 min 0,000 mm 5,4 UV-I 739 W/m 10,5 C 21,7 C 4,8 km/h (1 Bft) 97,87 %
14.06.2017 12:30 21,8 C 23,9 C 51 % 1016,8 hPa 0,0 l/m 4,2 km/h (1 Bft) W 279 2 min 0,000 mm 5,4 UV-I 711 W/m 11,2 C 21,8 C 9,7 km/h (2 Bft) 97,87 %
14.06.2017 12:32 21,7 C 23,9 C 49 % 1016,8 hPa 0,0 l/m 4,5 km/h (1 Bft) W-SW 254 2 min 0,000 mm 5,6 UV-I 838 W/m 10,5 C 21,7 C 8,0 km/h (2 Bft) 100,00 %
14.06.2017 12:34 21,8 C 23,9 C 50 % 1016,8 hPa 0,0 l/m 2,8 km/h (1 Bft) N-NW 348 2 min 0,000 mm 5,9 UV-I 844 W/m 10,9 C 21,8 C 6,4 km/h (2 Bft) 98,46 %
14.06.2017 12:36 21,8 C 23,9 C 50 % 1016,7 hPa 0,0 l/m 2,6 km/h (1 Bft) N-NO 15 2 min 0,000 mm 5,8 UV-I 783 W/m 10,9 C 21,8 C 6,4 km/h (2 Bft) 98,00 %
14.06.2017 12:38 21,8 C 23,9 C 54 % 1016,7 hPa 0,0 l/m 4,7 km/h (1 Bft) N-NO 26 2 min 0,000 mm 5,4 UV-I 792 W/m 12,1 C 21,8 C 8,0 km/h (2 Bft) 100,00 %
14.06.2017 12:40 22,0 C 23,9 C 54 % 1016,7 hPa 0,0 l/m 3,8 km/h (1 Bft) N-NW 336 2 min 0,000 mm 5,3 UV-I 764 W/m 12,3 C 22,0 C 8,0 km/h (2 Bft) 97,87 %
14.06.2017 12:42 21,9 C 23,9 C 50 % 1016,7 hPa 0,0 l/m 3,4 km/h (1 Bft) NW 304 2 min 0,000 mm 5,2 UV-I 636 W/m 11,0 C 21,9 C 6,4 km/h (2 Bft) 100,00 %
14.06.2017 12:44 21,9 C 23,9 C 49 % 1016,7 hPa 0,0 l/m 4,4 km/h (1 Bft) W 259 2 min 0,000 mm 5,5 UV-I 717 W/m 10,7 C 21,9 C 6,4 km/h (2 Bft) 94,74 %
14.06.2017 12:46 21,9 C 23,9 C 53 % 1016,7 hPa 0,0 l/m 4,0 km/h (1 Bft) N-NO 30 2 min 0,000 mm 5,1 UV-I 682 W/m 11,9 C 21,9 C 8,0 km/h (2 Bft) 100,00 %
14.06.2017 12:48 21,9 C 23,9 C 53 % 1016,7 hPa 0,0 l/m 6,1 km/h (2 Bft) NO 37 2 min 0,000 mm 5,3 UV-I 633 W/m 11,9 C 21,9 C 12,9 km/h (3 Bft) 97,87 %
14.06.2017 12:50 21,9 C 24,4 C 55 % 1016,7 hPa 0,0 l/m 4,7 km/h (1 Bft) N 11 2 min 0,000 mm 5,8 UV-I 689 W/m 12,4 C 21,9 C 9,7 km/h (2 Bft) 98,00 %
14.06.2017 12:52 22,1 C 23,9 C 52 % 1016,7 hPa 0,0 l/m 2,2 km/h (1 Bft) N-NW 332 2 min 0,000 mm 6,5 UV-I 866 W/m 11,8 C 22,1 C 6,4 km/h (2 Bft) 95,74 %
14.06.2017 12:54 22,2 C 24,4 C 50 % 1016,7 hPa 0,0 l/m 2,3 km/h (1 Bft) N-NO 20 2 min 0,000 mm 6,1 UV-I 851 W/m 11,3 C 22,2 C 4,8 km/h (1 Bft) 98,00 %
14.06.2017 12:56 22,4 C 24,4 C 53 % 1016,6 hPa 0,0 l/m 1,1 km/h (1 Bft) NW 309 2 min 0,000 mm 6,5 UV-I 896 W/m 12,3 C 22,4 C 3,2 km/h (1 Bft) 97,37 %
14.06.2017 12:58 22,5 C 24,4 C 49 % 1016,7 hPa 0,0 l/m 3,9 km/h (1 Bft) W 267 2 min 0,000 mm 6,4 UV-I 850 W/m 11,2 C 22,5 C 6,4 km/h (2 Bft) 100,00 %
14.06.2017 13:00 22,3 C 24,4 C 48 % 1016,6 hPa 0,0 l/m 2,7 km/h (1 Bft) W 259 2 min 0,000 mm 6,2 UV-I 803 W/m 10,8 C 22,3 C 6,4 km/h (2 Bft) 100,00 %
14.06.2017 13:02 22,6 C 24,4 C 49 % 1016,6 hPa 0,0 l/m 2,0 km/h (1 Bft) N-NO 30 2 min 0,482 mm 5,9 UV-I 741 W/m 11,3 C 22,6 C 6,4 km/h (2 Bft) 97,14 %
14.06.2017 13:04 22,7 C 24,4 C 48 % 1016,6 hPa 0,0 l/m 4,0 km/h (1 Bft) NW 314 2 min 0,000 mm 5,8 UV-I 761 W/m 11,1 C 22,7 C 9,7 km/h (2 Bft) 100,00 %
14.06.2017 13:06 22,6 C 24,4 C 53 % 1016,6 hPa 0,0 l/m 1,6 km/h (1 Bft) NW 312 2 min 0,000 mm 6,1 UV-I 805 W/m 12,5 C 22,6 C 3,2 km/h (1 Bft) 97,87 %
14.06.2017 13:08 22,8 C 24,4 C 52 % 1016,7 hPa 0,0 l/m 3,8 km/h (1 Bft) N-NO 29 2 min 0,000 mm 6,0 UV-I 766 W/m 12,4 C 22,8 C 9,7 km/h (2 Bft) 100,00 %
14.06.2017 13:10 22,7 C 24,4 C 50 % 1016,7 hPa 0,0 l/m 3,2 km/h (1 Bft) N-NO 29 2 min 0,000 mm 5,5 UV-I 721 W/m 11,7 C 22,7 C 8,0 km/h (2 Bft) 98,11 %
14.06.2017 13:12 22,4 C 24,4 C 50 % 1016,7 hPa 0,0 l/m 1,9 km/h (1 Bft) W 261 2 min 0,000 mm 5,7 UV-I 716 W/m 11,5 C 22,4 C 4,8 km/h (1 Bft) 97,96 %
14.06.2017 13:14 22,4 C 24,4 C 48 % 1016,7 hPa 0,0 l/m 2,4 km/h (1 Bft) W-NW 291 2 min 0,000 mm 5,9 UV-I 759 W/m 10,8 C 22,4 C 4,8 km/h (1 Bft) 100,00 %
14.06.2017 13:16 22,4 C 24,4 C 49 % 1016,6 hPa 0,0 l/m 3,5 km/h (1 Bft) NO 37 2 min 0,000 mm 5,2 UV-I 725 W/m 11,2 C 22,4 C 11,3 km/h (2 Bft) 100,00 %
14.06.2017 13:18 22,5 C 24,4 C 52 % 1016,6 hPa 0,0 l/m 7,0 km/h (2 Bft) N 351 2 min 0,000 mm 5,5 UV-I 724 W/m 12,1 C 22,3 C 11,3 km/h (2 Bft) 100,00 %
14.06.2017 13:20 22,3 C 24,4 C 48 % 1016,6 hPa 0,0 l/m 4,0 km/h (1 Bft) N-NO 17 2 min 0,000 mm 5,8 UV-I 791 W/m 10,8 C 22,3 C 11,3 km/h (2 Bft) 97,73 %
14.06.2017 13:22 22,4 C 24,4 C 51 % 1016,6 hPa 0,0 l/m 4,4 km/h (1 Bft) N-NO 27 2 min 0,000 mm 6,5 UV-I 878 W/m 11,8 C 22,4 C 8,0 km/h (2 Bft) 100,00 %
14.06.2017 13:24 22,3 C 24,4 C 47 % 1016,6 hPa 0,0 l/m 2,5 km/h (1 Bft) W-SW 257 2 min 0,000 mm 5,9 UV-I 821 W/m 10,4 C 22,3 C 4,8 km/h (1 Bft) 98,00 %
14.06.2017 13:26 22,6 C 24,4 C 49 % 1016,5 hPa 0,0 l/m 2,1 km/h (1 Bft) O-SO 107 2 min 0,000 mm 6,3 UV-I 828 W/m 11,3 C 22,6 C 9,7 km/h (2 Bft) 97,87 %
14.06.2017 13:28 22,6 C 24,4 C 46 % 1016,6 hPa 0,0 l/m 4,8 km/h (1 Bft) O-SO 113 2 min 0,000 mm 6,2 UV-I 878 W/m 10,4 C 22,6 C 9,7 km/h (2 Bft) 100,00 %
14.06.2017 13:30 22,6 C 24,4 C 50 % 1016,5 hPa 0,0 l/m 1,0 km/h (0 Bft) NO 36 2 min 0,000 mm 6,0 UV-I 835 W/m 11,6 C 22,6 C 8,0 km/h (2 Bft) 100,00 %
14.06.2017 13:32 22,8 C 24,4 C 56 % 1016,5 hPa 0,0 l/m 1,6 km/h (1 Bft) NO 46 2 min 0,000 mm 6,5 UV-I 868 W/m 13,6 C 22,8 C 3,2 km/h (1 Bft) 98,21 %
14.06.2017 13:34 23,0 C 24,4 C 47 % 1016,5 hPa 0,0 l/m 2,7 km/h (1 Bft) NO 34 2 min 0,000 mm 6,2 UV-I 844 W/m 11,1 C 23,0 C 4,8 km/h (1 Bft) 100,00 %
14.06.2017 13:36 23,0 C 24,4 C 46 % 1016,4 hPa 0,0 l/m 1,1 km/h (1 Bft) NO 44 2 min 0,000 mm 6,2 UV-I 870 W/m 10,7 C 23,0 C 3,2 km/h (1 Bft) 97,56 %
14.06.2017 13:38 22,9 C 24,4 C 46 % 1016,4 hPa 0,0 l/m 0,8 km/h (0 Bft) O-NO 61 2 min 0,000 mm 6,5 UV-I 873 W/m 10,7 C 22,9 C 3,2 km/h (1 Bft) 100,00 %
14.06.2017 13:40 23,2 C 24,4 C 47 % 1016,4 hPa 0,0 l/m 3,1 km/h (1 Bft) W 271 2 min 0,000 mm 6,3 UV-I 929 W/m 11,3 C 23,2 C 6,4 km/h (2 Bft) 97,87 %
14.06.2017 13:42 23,3 C 24,4 C 46 % 1016,4 hPa 0,0 l/m 2,4 km/h (1 Bft) W 263 2 min 0,000 mm 5,9 UV-I 825 W/m 11,0 C 23,3 C 6,4 km/h (2 Bft) 98,00 %
14.06.2017 13:44 23,2 C 24,4 C 43 % 1016,3 hPa 0,0 l/m 2,6 km/h (1 Bft) SW 223 2 min 0,000 mm 6,3 UV-I 875 W/m 9,9 C 23,2 C 4,8 km/h (1 Bft) 97,87 %
14.06.2017 13:46 22,9 C 24,4 C 44 % 1016,3 hPa 0,0 l/m 3,9 km/h (1 Bft) W 260 2 min 0,000 mm 6,3 UV-I 848 W/m 10,0 C 22,9 C 6,4 km/h (2 Bft) 100,00 %
14.06.2017 13:48 22,8 C 24,4 C 43 % 1016,3 hPa 0,0 l/m 3,9 km/h (1 Bft) S-SW 200 2 min 0,000 mm 6,2 UV-I 875 W/m 9,6 C 22,8 C 6,4 km/h (2 Bft) 96,43 %
14.06.2017 13:50 22,7 C 24,4 C 43 % 1016,3 hPa 0,0 l/m 0,7 km/h (0 Bft) S-SW 200 2 min 0,000 mm 6,1 UV-I 821 W/m 9,5 C 22,7 C 3,2 km/h (1 Bft) 94,44 %
14.06.2017 13:52 22,9 C 24,4 C 45 % 1016,3 hPa 0,0 l/m 2,5 km/h (1 Bft) W-NW 290 2 min 0,000 mm 5,6 UV-I 701 W/m 10,3 C 22,9 C 6,4 km/h (2 Bft) 96,36 %
14.06.2017 13:54 23,1 C 24,4 C 46 % 1016,3 hPa 0,0 l/m 5,7 km/h (1 Bft) NW 310 2 min 0,000 mm 6,1 UV-I 806 W/m 10,8 C 23,1 C 11,3 km/h (2 Bft) 92,86 %
14.06.2017 13:56 22,9 C 24,4 C 43 % 1016,2 hPa 0,0 l/m 3,9 km/h (1 Bft) NO 43 2 min 0,000 mm 6,5 UV-I 932 W/m 9,6 C 22,9 C 6,4 km/h (2 Bft) 95,74 %
14.06.2017 13:58 23,0 C 24,4 C 44 % 1016,2 hPa 0,0 l/m 1,8 km/h (1 Bft) W-NW 298 2 min 0,000 mm 6,1 UV-I 859 W/m 10,1 C 23,0 C 4,8 km/h (1 Bft) 96,00 %
14.06.2017 14:00 23,3 C 24,4 C 44 % 1016,3 hPa 0,0 l/m 4,0 km/h (1 Bft) NW 306 2 min 0,534 mm 6,0 UV-I 820 W/m 10,4 C 23,3 C 6,4 km/h (2 Bft) 96,00 %
14.06.2017 14:02 23,6 C 24,4 C 44 % 1016,1 hPa 0,0 l/m 5,3 km/h (1 Bft) S 188 2 min 0,000 mm 6,2 UV-I 868 W/m 10,6 C 23,6 C 11,3 km/h (2 Bft) 94,00 %
14.06.2017 14:04 23,6 C 24,4 C 43 % 1016,2 hPa 0,0 l/m 8,3 km/h (2 Bft) W-SW 240 2 min 0,000 mm 6,3 UV-I 881 W/m 10,3 C 23,0 C 12,9 km/h (3 Bft) 95,12 %
14.06.2017 14:06 23,4 C 24,4 C 44 % 1016,1 hPa 0,0 l/m 2,3 km/h (1 Bft) W-SW 240 2 min 0,000 mm 6,2 UV-I 881 W/m 10,4 C 23,4 C 4,8 km/h (1 Bft) 97,87 %
14.06.2017 14:08 23,4 C 24,4 C 45 % 1016,1 hPa 0,0 l/m 3,4 km/h (1 Bft) W-NW 301 2 min 0,000 mm 6,3 UV-I 913 W/m 10,8 C 23,4 C 4,8 km/h (1 Bft) 96,00 %
14.06.2017 14:10 23,6 C 24,4 C 45 % 1016,1 hPa 0,0 l/m 2,8 km/h (1 Bft) N-NO 24 2 min 0,000 mm 6,2 UV-I 905 W/m 11,0 C 23,6 C 4,8 km/h (1 Bft) 97,37 %
14.06.2017 14:12 23,7 C 24,4 C 47 % 1016,1 hPa 0,0 l/m 3,2 km/h (1 Bft) N 355 2 min 0,000 mm 6,0 UV-I 884 W/m 11,7 C 23,7 C 4,8 km/h (1 Bft) 96,00 %
14.06.2017 14:14 23,8 C 24,4 C 48 % 1016,1 hPa 0,0 l/m 2,6 km/h (1 Bft) NW 311 2 min 0,000 mm 6,0 UV-I 865 W/m 12,1 C 23,8 C 4,8 km/h (1 Bft) 97,87 %
14.06.2017 14:16 23,9 C 24,4 C 46 % 1016,1 hPa 0,0 l/m 3,2 km/h (1 Bft) N-NO 15 2 min 0,000 mm 6,0 UV-I 884 W/m 11,6 C 23,9 C 6,4 km/h (2 Bft) 91,43 %
14.06.2017 14:18 23,8 C 24,4 C 45 % 1016,1 hPa 0,0 l/m 5,0 km/h (1 Bft) N-NO 33 2 min 0,000 mm 6,0 UV-I 863 W/m 11,1 C 23,8 C 8,0 km/h (2 Bft) 96,92 %
14.06.2017 14:20 23,8 C 24,4 C 44 % 1016,1 hPa 0,0 l/m 1,9 km/h (1 Bft) NW 317 2 min 0,000 mm 5,8 UV-I 828 W/m 10,8 C 23,8 C 4,8 km/h (1 Bft) 97,87 %
14.06.2017 14:22 23,7 C 24,4 C 43 % 1016,1 hPa 0,0 l/m 1,8 km/h (1 Bft) N-NW 333 2 min 0,000 mm 5,9 UV-I 860 W/m 10,4 C 23,7 C 3,2 km/h (1 Bft) 97,37 %
14.06.2017 14:24 23,6 C 24,4 C 41 % 1016,1 hPa 0,0 l/m 2,2 km/h (1 Bft) NO 53 2 min 0,000 mm 5,8 UV-I 839 W/m 9,6 C 23,6 C 3,2 km/h (1 Bft) 98,11 %
14.06.2017 14:26 23,5 C 25,0 C 44 % 1016,1 hPa 0,0 l/m 6,1 km/h (2 Bft) W 267 2 min 0,000 mm 5,9 UV-I 883 W/m 10,5 C 23,5 C 12,9 km/h (3 Bft) 97,87 %
14.06.2017 14:28 23,4 C 25,0 C 42 % 1015,9 hPa 0,0 l/m 1,6 km/h (1 Bft) W 277 2 min 0,000 mm 5,9 UV-I 864 W/m 9,7 C 23,4 C 4,8 km/h (1 Bft) 94,44 %
14.06.2017 14:30 23,6 C 25,0 C 44 % 1015,9 hPa 0,0 l/m 7,1 km/h (2 Bft) W 271 2 min 0,000 mm 6,0 UV-I 880 W/m 10,6 C 23,4 C 12,9 km/h (3 Bft) 96,43 %
14.06.2017 14:32 23,6 C 25,0 C 43 % 1015,9 hPa 0,0 l/m 5,5 km/h (1 Bft) W 261 2 min 0,000 mm 6,0 UV-I 893 W/m 10,3 C 23,6 C 11,3 km/h (2 Bft) 97,56 %
14.06.2017 14:34 23,7 C 25,0 C 42 % 1015,9 hPa 0,0 l/m 7,4 km/h (2 Bft) SW 221 2 min 0,000 mm 5,8 UV-I 857 W/m 10,0 C 23,4 C 11,3 km/h (2 Bft) 100,00 %
14.06.2017 14:36 23,9 C 25,0 C 44 % 1016,0 hPa 0,0 l/m 5,5 km/h (1 Bft) W-SW 243 2 min 0,000 mm 5,5 UV-I 830 W/m 10,9 C 23,9 C 8,0 km/h (2 Bft) 96,43 %
14.06.2017 14:38 23,8 C 25,0 C 43 % 1015,9 hPa 0,0 l/m 4,2 km/h (1 Bft) S-SO 167 2 min 0,000 mm 5,6 UV-I 833 W/m 10,5 C 23,8 C 8,0 km/h (2 Bft) 92,11 %
14.06.2017 14:40 23,6 C 25,0 C 42 % 1015,9 hPa 0,0 l/m 5,1 km/h (1 Bft) S-SO 165 2 min 0,000 mm 5,3 UV-I 785 W/m 9,9 C 23,6 C 9,7 km/h (2 Bft) 97,87 %
14.06.2017 14:42 23,4 C 25,0 C 43 % 1015,9 hPa 0,0 l/m 2,8 km/h (1 Bft) S-SO 165 2 min 0,000 mm 5,3 UV-I 803 W/m 10,1 C 23,4 C 6,4 km/h (2 Bft) 94,34 %
14.06.2017 14:44 23,4 C 25,0 C 46 % 1015,9 hPa 0,0 l/m 2,0 km/h (1 Bft) S-SO 165 2 min 0,000 mm 5,3 UV-I 812 W/m 11,1 C 23,4 C 3,2 km/h (1 Bft) 98,00 %
14.06.2017 14:46 23,7 C 25,0 C 48 % 1015,9 hPa 0,0 l/m 2,3 km/h (1 Bft) NO 38 2 min 0,000 mm 5,4 UV-I 807 W/m 12,0 C 23,7 C 6,4 km/h (2 Bft) 97,37 %
14.06.2017 14:48 23,9 C 25,0 C 44 % 1015,8 hPa 0,0 l/m 5,7 km/h (1 Bft) NO 52 2 min 0,000 mm 5,5 UV-I 846 W/m 10,9 C 23,9 C 11,3 km/h (2 Bft) 97,73 %
14.06.2017 14:50 24,3 C 25,0 C 46 % 1015,8 hPa 0,0 l/m 3,8 km/h (1 Bft) O-NO 74 2 min 0,000 mm 5,4 UV-I 832 W/m 11,9 C 24,3 C 8,0 km/h (2 Bft) 96,43 %
14.06.2017 14:52 24,4 C 25,0 C 43 % 1015,8 hPa 0,0 l/m 7,5 km/h (2 Bft) N-NO 32 2 min 0,000 mm 5,6 UV-I 851 W/m 11,0 C 24,1 C 11,3 km/h (2 Bft) 88,00 %
14.06.2017 14:54 24,4 C 25,0 C 43 % 1015,7 hPa 0,0 l/m 3,2 km/h (1 Bft) NW 312 2 min 0,000 mm 5,5 UV-I 849 W/m 11,0 C 24,4 C 4,8 km/h (1 Bft) 95,74 %
14.06.2017 14:56 24,4 C 25,0 C 42 % 1015,7 hPa 0,0 l/m 4,6 km/h (1 Bft) NW 317 2 min 0,000 mm 5,5 UV-I 853 W/m 10,6 C 24,4 C 11,3 km/h (2 Bft) 97,87 %
14.06.2017 14:58 24,4 C 25,0 C 44 % 1015,7 hPa 0,0 l/m 4,8 km/h (1 Bft) NW 304 2 min 0,000 mm 5,5 UV-I 855 W/m 11,3 C 24,4 C 8,0 km/h (2 Bft) 97,73 %
14.06.2017 15:00 24,3 C 25,0 C 42 % 1015,7 hPa 0,0 l/m 4,7 km/h (1 Bft) N-NO 15 2 min 0,000 mm 5,5 UV-I 853 W/m 10,6 C 24,3 C 11,3 km/h (2 Bft) 94,74 %
14.06.2017 15:02 24,3 C 25,0 C 42 % 1015,7 hPa 0,0 l/m 3,1 km/h (1 Bft) N-NW 333 2 min 0,558 mm 5,4 UV-I 847 W/m 10,6 C 24,3 C 6,4 km/h (2 Bft) 98,21 %
14.06.2017 15:04 24,2 C 25,0 C 45 % 1015,7 hPa 0,0 l/m 2,2 km/h (1 Bft) W-NW 294 2 min 0,000 mm 5,4 UV-I 846 W/m 11,5 C 24,2 C 4,8 km/h (1 Bft) 95,74 %
14.06.2017 15:06 24,4 C 25,0 C 47 % 1015,7 hPa 0,0 l/m 1,0 km/h (0 Bft) N-NO 13 2 min 0,000 mm 5,4 UV-I 845 W/m 12,3 C 24,4 C 3,2 km/h (1 Bft) 97,87 %
14.06.2017 15:08 24,5 C 25,0 C 42 % 1015,7 hPa 0,0 l/m 0,5 km/h (0 Bft) N-NO 13 2 min 0,000 mm 4,9 UV-I 764 W/m 10,7 C 24,5 C 1,6 km/h (1 Bft) 97,44 %
14.06.2017 15:10 24,6 C 25,0 C 41 % 1015,7 hPa 0,0 l/m 8,2 km/h (2 Bft) W-SW 250 2 min 0,000 mm 4,8 UV-I 729 W/m 10,5 C 24,1 C 12,9 km/h (3 Bft) 98,00 %
14.06.2017 15:12 24,4 C 25,0 C 40 % 1015,7 hPa 0,0 l/m 4,2 km/h (1 Bft) W-SW 238 2 min 0,000 mm 5,0 UV-I 776 W/m 9,9 C 24,4 C 8,0 km/h (2 Bft) 96,15 %
14.06.2017 15:14 24,5 C 25,0 C 40 % 1015,6 hPa 0,0 l/m 3,2 km/h (1 Bft) S-SO 153 2 min 0,000 mm 5,1 UV-I 834 W/m 10,0 C 24,5 C 4,8 km/h (1 Bft) 95,56 %
14.06.2017 15:16 24,6 C 25,0 C 42 % 1015,6 hPa 0,0 l/m 3,4 km/h (1 Bft) S 178 2 min 0,000 mm 5,0 UV-I 807 W/m 10,8 C 24,6 C 6,4 km/h (2 Bft) 95,12 %
14.06.2017 15:18 24,8 C 25,0 C 41 % 1015,6 hPa 0,0 l/m 1,8 km/h (1 Bft) S-SW 204 2 min 0,000 mm 4,8 UV-I 781 W/m 10,6 C 24,8 C 4,8 km/h (1 Bft) 96,23 %
14.06.2017 15:20 24,8 C 25,0 C 42 % 1015,6 hPa 0,0 l/m 0,9 km/h (0 Bft) S-SW 198 2 min 0,000 mm 4,7 UV-I 734 W/m 11,0 C 24,8 C 3,2 km/h (1 Bft) 95,12 %
14.06.2017 15:22 24,6 C 25,0 C 42 % 1015,6 hPa 0,0 l/m 0,7 km/h (0 Bft) S-SW 198 2 min 0,000 mm 4,8 UV-I 790 W/m 10,8 C 24,6 C 3,2 km/h (1 Bft) 95,83 %
14.06.2017 15:24 24,6 C 25,0 C 41 % 1015,6 hPa 0,0 l/m 4,3 km/h (1 Bft) S-SW 205 2 min 0,000 mm 4,8 UV-I 776 W/m 10,5 C 24,6 C 12,9 km/h (3 Bft) 98,00 %
14.06.2017 15:26 24,7 C 25,0 C 41 % 1015,6 hPa 0,0 l/m 7,8 km/h (2 Bft) SW 234 2 min 0,000 mm 4,8 UV-I 772 W/m 10,6 C 24,3 C 12,9 km/h (3 Bft) 95,12 %
14.06.2017 15:28 24,6 C 25,0 C 39 % 1015,6 hPa 0,0 l/m 2,7 km/h (1 Bft) S 175 2 min 0,000 mm 4,7 UV-I 685 W/m 9,7 C 24,6 C 9,7 km/h (2 Bft) 96,23 %
14.06.2017 15:30 24,4 C 25,0 C 43 % 1015,6 hPa 0,0 l/m 4,2 km/h (1 Bft) SW 223 2 min 0,000 mm 4,7 UV-I 768 W/m 11,0 C 24,4 C 8,0 km/h (2 Bft) 95,12 %
14.06.2017 15:32 24,3 C 25,0 C 41 % 1015,6 hPa 0,0 l/m 3,2 km/h (1 Bft) S-SO 163 2 min 0,000 mm 4,3 UV-I 696 W/m 10,2 C 24,3 C 8,0 km/h (2 Bft) 96,15 %
14.06.2017 15:34 24,6 C 25,0 C 42 % 1015,5 hPa 0,0 l/m 2,8 km/h (1 Bft) S-SO 155 2 min 0,000 mm 4,3 UV-I 692 W/m 10,8 C 24,6 C 8,0 km/h (2 Bft) 96,00 %
14.06.2017 15:36 24,5 C 25,0 C 41 % 1015,5 hPa 0,0 l/m 1,2 km/h (1 Bft) S-SO 164 2 min 0,000 mm 4,3 UV-I 745 W/m 10,4 C 24,5 C 3,2 km/h (1 Bft) 95,12 %
14.06.2017 15:38 24,7 C 25,0 C 45 % 1015,5 hPa 0,0 l/m 5,7 km/h (1 Bft) N-NO 18 2 min 0,000 mm 4,5 UV-I 767 W/m 12,0 C 24,7 C 12,9 km/h (3 Bft) 95,74 %
14.06.2017 15:40 24,8 C 25,0 C 43 % 1015,5 hPa 0,0 l/m 3,0 km/h (1 Bft) NW 306 2 min 0,000 mm 4,6 UV-I 779 W/m 11,4 C 24,8 C 9,7 km/h (2 Bft) 100,00 %
14.06.2017 15:42 24,9 C 25,0 C 46 % 1015,4 hPa 0,0 l/m 3,8 km/h (1 Bft) N-NO 24 2 min 0,000 mm 4,3 UV-I 738 W/m 12,5 C 24,9 C 11,3 km/h (2 Bft) 97,87 %
14.06.2017 15:44 24,9 C 25,0 C 43 % 1015,4 hPa 0,0 l/m 4,1 km/h (1 Bft) NW 320 2 min 0,000 mm 4,1 UV-I 733 W/m 11,4 C 24,9 C 9,7 km/h (2 Bft) 100,00 %
14.06.2017 15:46 24,8 C 25,0 C 42 % 1015,4 hPa 0,0 l/m 2,3 km/h (1 Bft) N-NW 337 2 min 0,000 mm 4,2 UV-I 729 W/m 11,0 C 24,8 C 6,4 km/h (2 Bft) 97,44 %
14.06.2017 15:48 24,6 C 25,0 C 42 % 1015,4 hPa 0,0 l/m 3,9 km/h (1 Bft) W-NW 284 2 min 0,000 mm 4,2 UV-I 723 W/m 10,8 C 24,6 C 8,0 km/h (2 Bft) 94,00 %
14.06.2017 15:50 24,7 C 25,0 C 43 % 1015,4 hPa 0,0 l/m 2,2 km/h (1 Bft) W-NW 299 2 min 0,000 mm 4,2 UV-I 740 W/m 11,3 C 24,7 C 4,8 km/h (1 Bft) 97,96 %
14.06.2017 15:52 24,6 C 25,0 C 41 % 1015,3 hPa 0,0 l/m 2,5 km/h (1 Bft) W-NW 290 2 min 0,000 mm 4,1 UV-I 745 W/m 10,5 C 24,6 C 4,8 km/h (1 Bft) 98,00 %
14.06.2017 15:54 24,6 C 25,0 C 42 % 1015,3 hPa 0,0 l/m 1,5 km/h (1 Bft) S-SW 205 2 min 0,000 mm 4,1 UV-I 741 W/m 10,8 C 24,6 C 6,4 km/h (2 Bft) 97,22 %
14.06.2017 15:56 24,7 C 25,0 C 42 % 1015,3 hPa 0,0 l/m 9,1 km/h (2 Bft) W-SW 249 2 min 0,000 mm 4,1 UV-I 730 W/m 10,9 C 24,0 C 14,5 km/h (3 Bft) 97,73 %
14.06.2017 15:58 24,8 C 25,0 C 41 % 1015,3 hPa 0,0 l/m 5,2 km/h (1 Bft) W-SW 251 2 min 0,000 mm 4,0 UV-I 716 W/m 10,6 C 24,8 C 12,9 km/h (3 Bft) 98,11 %
14.06.2017 16:00 24,8 C 25,0 C 41 % 1015,3 hPa 0,0 l/m 1,9 km/h (1 Bft) W-SW 250 2 min 0,000 mm 4,0 UV-I 707 W/m 10,6 C 24,8 C 3,2 km/h (1 Bft) 94,00 %
14.06.2017 16:02 24,9 C 25,0 C 41 % 1015,3 hPa 0,0 l/m 4,1 km/h (1 Bft) W 260 2 min 0,508 mm 3,7 UV-I 666 W/m 10,7 C 24,9 C 8,0 km/h (2 Bft) 94,00 %
14.06.2017 16:04 24,9 C 25,0 C 42 % 1015,2 hPa 0,0 l/m 1,8 km/h (1 Bft) W-NW 303 2 min 0,000 mm 3,8 UV-I 688 W/m 11,1 C 24,9 C 4,8 km/h (1 Bft) 97,37 %
14.06.2017 16:06 24,9 C 25,0 C 44 % 1015,2 hPa 0,0 l/m 2,9 km/h (1 Bft) N 355 2 min 0,000 mm 3,8 UV-I 703 W/m 11,8 C 24,9 C 6,4 km/h (2 Bft) 94,00 %
14.06.2017 16:08 24,8 C 25,0 C 41 % 1015,2 hPa 0,0 l/m 4,7 km/h (1 Bft) O-NO 60 2 min 0,000 mm 3,6 UV-I 675 W/m 10,6 C 24,8 C 9,7 km/h (2 Bft) 100,00 %
14.06.2017 16:10 24,8 C 25,0 C 41 % 1015,2 hPa 0,0 l/m 4,9 km/h (1 Bft) NO 55 2 min 0,000 mm 3,7 UV-I 694 W/m 10,6 C 24,8 C 8,0 km/h (2 Bft) 98,11 %
14.06.2017 16:12 24,9 C 25,0 C 44 % 1015,2 hPa 0,0 l/m 7,2 km/h (2 Bft) O 100 2 min 0,000 mm 3,6 UV-I 694 W/m 11,8 C 24,7 C 9,7 km/h (2 Bft) 100,00 %
14.06.2017 16:14 25,0 C 25,0 C 42 % 1015,2 hPa 0,0 l/m 6,3 km/h (2 Bft) O-SO 113 2 min 0,000 mm 3,5 UV-I 686 W/m 11,2 C 25,0 C 11,3 km/h (2 Bft) 100,00 %
14.06.2017 16:16 25,1 C 25,0 C 44 % 1015,2 hPa 0,0 l/m 5,1 km/h (1 Bft) NO 51 2 min 0,000 mm 3,4 UV-I 652 W/m 12,0 C 25,1 C 9,7 km/h (2 Bft) 96,23 %
14.06.2017 16:18 25,1 C 25,0 C 42 % 1015,1 hPa 0,0 l/m 5,6 km/h (1 Bft) SO 126 2 min 0,000 mm 3,5 UV-I 676 W/m 11,3 C 25,1 C 9,7 km/h (2 Bft) 100,00 %
14.06.2017 16:20 25,0 C 25,0 C 41 % 1015,1 hPa 0,0 l/m 5,7 km/h (1 Bft) O-SO 105 2 min 0,000 mm 3,4 UV-I 675 W/m 10,8 C 25,0 C 12,9 km/h (3 Bft) 100,00 %
14.06.2017 16:22 24,9 C 25,0 C 40 % 1015,1 hPa 0,0 l/m 2,2 km/h (1 Bft) O-SO 105 2 min 0,000 mm 3,4 UV-I 664 W/m 10,4 C 24,9 C 4,8 km/h (1 Bft) 100,00 %
14.06.2017 16:24 24,9 C 25,0 C 42 % 1015,1 hPa 0,0 l/m 3,4 km/h (1 Bft) O-SO 105 2 min 0,000 mm 3,2 UV-I 605 W/m 11,1 C 24,9 C 6,4 km/h (2 Bft) 97,87 %
14.06.2017 16:26 25,1 C 25,0 C 43 % 1015,1 hPa 0,0 l/m 1,0 km/h (0 Bft) O-SO 105 2 min 0,000 mm 3,2 UV-I 659 W/m 11,6 C 25,1 C 1,6 km/h (1 Bft) 100,00 %
14.06.2017 16:28 25,3 C 25,0 C 43 % 1015,1 hPa 0,0 l/m 1,0 km/h (0 Bft) NW 322 2 min 0,000 mm 3,2 UV-I 652 W/m 11,8 C 25,3 C 4,8 km/h (1 Bft) 100,00 %
14.06.2017 16:30 25,2 C 25,0 C 41 % 1015,1 hPa 0,0 l/m 2,5 km/h (1 Bft) N-NO 17 2 min 0,000 mm 3,1 UV-I 641 W/m 11,0 C 25,2 C 6,4 km/h (2 Bft) 98,11 %
14.06.2017 16:32 25,1 C 25,0 C 46 % 1015,1 hPa 0,0 l/m 2,9 km/h (1 Bft) N-NO 23 2 min 0,000 mm 3,1 UV-I 624 W/m 12,7 C 25,1 C 4,8 km/h (1 Bft) 100,00 %
14.06.2017 16:34 25,1 C 25,0 C 45 % 1015,1 hPa 0,0 l/m 2,8 km/h (1 Bft) N-NO 26 2 min 0,000 mm 3,0 UV-I 603 W/m 12,3 C 25,1 C 4,8 km/h (1 Bft) 100,00 %
14.06.2017 16:36 25,1 C 25,0 C 42 % 1015,0 hPa 0,0 l/m 1,4 km/h (1 Bft) NO 38 2 min 0,000 mm 3,0 UV-I 615 W/m 11,3 C 25,1 C 3,2 km/h (1 Bft) 98,00 %
14.06.2017 16:38 25,1 C 25,0 C 41 % 1015,0 hPa 0,0 l/m 1,1 km/h (1 Bft) O-NO 75 2 min 0,000 mm 2,9 UV-I 590 W/m 10,9 C 25,1 C 3,2 km/h (1 Bft) 97,87 %
14.06.2017 16:40 25,2 C 25,0 C 42 % 1015,0 hPa 0,0 l/m 5,3 km/h (1 Bft) W-SW 254 2 min 0,000 mm 2,9 UV-I 619 W/m 11,4 C 25,2 C 11,3 km/h (2 Bft) 97,56 %
14.06.2017 16:42 25,3 C 25,0 C 41 % 1015,0 hPa 0,0 l/m 8,7 km/h (2 Bft) SW 229 2 min 0,000 mm 2,9 UV-I 624 W/m 11,1 C 24,8 C 16,1 km/h (3 Bft) 100,00 %
14.06.2017 16:44 25,6 C 25,0 C 42 % 1015,0 hPa 0,0 l/m 8,5 km/h (2 Bft) SW 221 2 min 0,000 mm 2,8 UV-I 613 W/m 11,7 C 25,1 C 12,9 km/h (3 Bft) 100,00 %
14.06.2017 16:46 25,5 C 25,6 C 40 % 1015,0 hPa 0,0 l/m 10,0 km/h (2 Bft) W-SW 242 2 min 0,000 mm 2,8 UV-I 621 W/m 10,9 C 24,7 C 16,1 km/h (3 Bft) 98,11 %
14.06.2017 16:48 25,3 C 25,6 C 40 % 1014,9 hPa 0,0 l/m 7,8 km/h (2 Bft) W 267 2 min 0,000 mm 2,7 UV-I 598 W/m 10,7 C 25,0 C 12,9 km/h (3 Bft) 100,00 %
14.06.2017 16:50 25,1 C 25,6 C 41 % 1014,9 hPa 0,0 l/m 3,5 km/h (1 Bft) W-SW 244 2 min 0,000 mm 2,7 UV-I 607 W/m 10,9 C 25,1 C 9,7 km/h (2 Bft) 100,00 %
14.06.2017 16:52 25,2 C 25,6 C 43 % 1014,9 hPa 0,0 l/m 8,6 km/h (2 Bft) S-SW 211 2 min 0,000 mm 2,7 UV-I 605 W/m 11,7 C 24,7 C 16,1 km/h (3 Bft) 100,00 %
14.06.2017 16:54 25,5 C 25,6 C 43 % 1014,9 hPa 0,0 l/m 6,5 km/h (2 Bft) SW 215 2 min 0,000 mm 2,7 UV-I 598 W/m 12,0 C 25,5 C 14,5 km/h (3 Bft) 98,00 %
14.06.2017 16:56 25,4 C 25,6 C 40 % 1014,9 hPa 0,0 l/m 7,7 km/h (2 Bft) SW 232 2 min 0,000 mm 2,6 UV-I 590 W/m 10,8 C 25,1 C 14,5 km/h (3 Bft) 97,37 %
14.06.2017 16:58 25,4 C 25,6 C 41 % 1014,9 hPa 0,0 l/m 9,1 km/h (2 Bft) S-SW 210 2 min 0,000 mm 2,6 UV-I 581 W/m 11,2 C 24,8 C 16,1 km/h (3 Bft) 96,55 %
14.06.2017 17:00 25,4 C 25,6 C 40 % 1014,9 hPa 0,0 l/m 4,0 km/h (1 Bft) SW 229 2 min 0,458 mm 2,5 UV-I 575 W/m 10,8 C 25,4 C 9,7 km/h (2 Bft) 100,00 %
14.06.2017 17:02 25,3 C 25,6 C 40 % 1014,8 hPa 0,0 l/m 1,7 km/h (1 Bft) S 185 2 min 0,000 mm 2,5 UV-I 570 W/m 10,7 C 25,3 C 4,8 km/h (1 Bft) 97,73 %
14.06.2017 17:04 25,2 C 25,6 C 41 % 1014,8 hPa 0,0 l/m 3,0 km/h (1 Bft) SO 130 2 min 0,000 mm 2,4 UV-I 564 W/m 11,0 C 25,2 C 6,4 km/h (2 Bft) 98,00 %
14.06.2017 17:06 25,3 C 25,6 C 41 % 1014,8 hPa 0,0 l/m 3,7 km/h (1 Bft) W-SW 244 2 min 0,000 mm 2,4 UV-I 555 W/m 11,1 C 25,3 C 14,5 km/h (3 Bft) 98,11 %
14.06.2017 17:08 25,4 C 25,6 C 40 % 1014,8 hPa 0,0 l/m 7,0 km/h (2 Bft) W-SW 238 2 min 0,000 mm 2,3 UV-I 550 W/m 10,8 C 25,3 C 12,9 km/h (3 Bft) 100,00 %
14.06.2017 17:10 25,4 C 25,6 C 40 % 1014,8 hPa 0,0 l/m 8,6 km/h (2 Bft) W-SW 257 2 min 0,000 mm 2,3 UV-I 545 W/m 10,8 C 24,9 C 12,9 km/h (3 Bft) 100,00 %
14.06.2017 17:12 25,3 C 25,6 C 43 % 1014,8 hPa 0,0 l/m 3,4 km/h (1 Bft) W-SW 255 2 min 0,000 mm 2,2 UV-I 540 W/m 11,8 C 25,3 C 6,4 km/h (2 Bft) 97,87 %
14.06.2017 17:14 25,4 C 25,6 C 40 % 1014,8 hPa 0,0 l/m 3,8 km/h (1 Bft) SW 228 2 min 0,000 mm 2,2 UV-I 533 W/m 10,8 C 25,4 C 8,0 km/h (2 Bft) 95,12 %
14.06.2017 17:16 25,4 C 25,6 C 41 % 1014,7 hPa 0,0 l/m 0,4 km/h (0 Bft) SW 228 2 min 0,000 mm 2,2 UV-I 524 W/m 11,2 C 25,4 C 1,6 km/h (1 Bft) 98,00 %
14.06.2017 17:18 25,5 C 25,6 C 43 % 1014,7 hPa 0,0 l/m 1,6 km/h (1 Bft) SW 228 2 min 0,000 mm 2,1 UV-I 522 W/m 12,0 C 25,5 C 6,4 km/h (2 Bft) 100,00 %
14.06.2017 17:20 25,6 C 25,6 C 44 % 1014,7 hPa 0,0 l/m 1,4 km/h (1 Bft) W-NW 286 2 min 0,000 mm 2,1 UV-I 517 W/m 12,4 C 25,6 C 3,2 km/h (1 Bft) 100,00 %
14.06.2017 17:22 25,4 C 25,6 C 39 % 1014,7 hPa 0,0 l/m 4,5 km/h (1 Bft) W-SW 254 2 min 0,000 mm 2,0 UV-I 511 W/m 10,4 C 25,4 C 6,4 km/h (2 Bft) 100,00 %
14.06.2017 17:24 25,3 C 25,6 C 41 % 1014,6 hPa 0,0 l/m 1,0 km/h (0 Bft) W 261 2 min 0,000 mm 2,0 UV-I 506 W/m 11,1 C 25,3 C 3,2 km/h (1 Bft) 98,00 %
14.06.2017 17:26 25,3 C 25,6 C 42 % 1014,6 hPa 0,0 l/m 0,6 km/h (0 Bft) W-NW 293 2 min 0,000 mm 1,9 UV-I 500 W/m 11,5 C 25,3 C 3,2 km/h (1 Bft) 100,00 %
14.06.2017 17:28 25,3 C 25,6 C 42 % 1014,6 hPa 0,0 l/m 0,3 km/h (0 Bft) W-NW 293 2 min 0,000 mm 1,9 UV-I 494 W/m 11,5 C 25,3 C 1,6 km/h (1 Bft) 100,00 %
14.06.2017 17:30 25,3 C 25,6 C 40 % 1014,6 hPa 0,0 l/m 4,6 km/h (1 Bft) SW 235 2 min 0,000 mm 1,9 UV-I 489 W/m 10,7 C 25,3 C 9,7 km/h (2 Bft) 96,00 %
14.06.2017 17:32 25,2 C 25,6 C 40 % 1014,6 hPa 0,0 l/m 1,9 km/h (1 Bft) NW 317 2 min 0,000 mm 1,8 UV-I 482 W/m 10,6 C 25,2 C 4,8 km/h (1 Bft) 94,34 %
14.06.2017 17:34 25,2 C 25,6 C 44 % 1014,6 hPa 0,0 l/m 3,5 km/h (1 Bft) N 5 2 min 0,000 mm 1,8 UV-I 478 W/m 12,1 C 25,2 C 4,8 km/h (1 Bft) 94,74 %
14.06.2017 17:36 25,3 C 25,6 C 41 % 1014,6 hPa 0,0 l/m 2,3 km/h (1 Bft) O-NO 70 2 min 0,000 mm 1,7 UV-I 470 W/m 11,1 C 25,3 C 6,4 km/h (2 Bft) 98,00 %
14.06.2017 17:38 25,4 C 25,6 C 41 % 1014,6 hPa 0,0 l/m 3,9 km/h (1 Bft) S-SW 211 2 min 0,000 mm 1,7 UV-I 465 W/m 11,2 C 25,4 C 8,0 km/h (2 Bft) 96,00 %
14.06.2017 17:40 25,5 C 25,6 C 41 % 1014,5 hPa 0,0 l/m 5,9 km/h (2 Bft) SW 223 2 min 0,000 mm 1,7 UV-I 460 W/m 11,3 C 25,5 C 11,3 km/h (2 Bft) 97,22 %
14.06.2017 17:43 25,6 C 25,6 C 42 % 1014,5 hPa 0,0 l/m 6,9 km/h (2 Bft) W-SW 237 3 min 0,000 mm 1,6 UV-I 451 W/m 11,7 C 25,5 C 11,3 km/h (2 Bft) 94,94 %
14.06.2017 17:44 25,7 C 25,6 C 41 % 1014,5 hPa 0,0 l/m 8,6 km/h (2 Bft) SW 218 1 min 0,000 mm 1,6 UV-I 446 W/m 11,4 C 25,2 C 11,3 km/h (2 Bft) 96,15 %
14.06.2017 17:46 25,7 C 25,6 C 41 % 1014,5 hPa 0,0 l/m 7,9 km/h (2 Bft) S-SW 205 2 min 0,000 mm 1,5 UV-I 442 W/m 11,4 C 25,4 C 11,3 km/h (2 Bft) 97,92 %
14.06.2017 17:48 25,6 C 25,6 C 42 % 1014,5 hPa 0,0 l/m 4,0 km/h (1 Bft) W-SW 247 2 min 0,000 mm 1,5 UV-I 434 W/m 11,7 C 25,6 C 6,4 km/h (2 Bft) 97,37 %
14.06.2017 17:50 25,7 C 25,6 C 42 % 1014,5 hPa 0,0 l/m 8,0 km/h (2 Bft) S-SW 201 2 min 0,000 mm 1,5 UV-I 428 W/m 11,8 C 25,3 C 12,9 km/h (3 Bft) 96,00 %
14.06.2017 17:52 25,7 C 25,6 C 40 % 1014,4 hPa 0,0 l/m 7,8 km/h (2 Bft) S-SO 150 2 min 0,000 mm 1,4 UV-I 423 W/m 11,1 C 25,4 C 12,9 km/h (3 Bft) 97,87 %
14.06.2017 17:54 25,4 C 25,6 C 40 % 1014,4 hPa 0,0 l/m 6,6 km/h (2 Bft) S-SO 154 2 min 0,000 mm 1,4 UV-I 418 W/m 10,8 C 25,4 C 9,7 km/h (2 Bft) 92,68 %
14.06.2017 17:56 25,3 C 25,6 C 40 % 1014,4 hPa 0,0 l/m 6,4 km/h (2 Bft) S 171 2 min 0,000 mm 1,4 UV-I 412 W/m 10,7 C 25,3 C 14,5 km/h (3 Bft) 98,21 %
14.06.2017 17:58 25,2 C 25,6 C 40 % 1014,3 hPa 0,0 l/m 7,6 km/h (2 Bft) S-SO 168 2 min 0,000 mm 1,3 UV-I 409 W/m 10,6 C 24,9 C 9,7 km/h (2 Bft) 95,45 %
14.06.2017 18:00 25,1 C 25,6 C 41 % 1014,3 hPa 0,0 l/m 3,6 km/h (1 Bft) S 190 2 min 0,000 mm 1,3 UV-I 401 W/m 10,9 C 25,1 C 8,0 km/h (2 Bft) 100,00 %
14.06.2017 18:02 25,2 C 25,6 C 41 % 1014,3 hPa 0,0 l/m 6,0 km/h (2 Bft) W 259 2 min 0,355 mm 1,3 UV-I 395 W/m 11,0 C 25,2 C 9,7 km/h (2 Bft) 97,87 %
14.06.2017 18:04 25,3 C 25,6 C 40 % 1014,3 hPa 0,0 l/m 4,3 km/h (1 Bft) W 277 2 min 0,000 mm 1,2 UV-I 388 W/m 10,7 C 25,3 C 9,7 km/h (2 Bft) 100,00 %
14.06.2017 18:06 25,4 C 25,6 C 40 % 1014,4 hPa 0,0 l/m 1,8 km/h (1 Bft) S 190 2 min 0,000 mm 1,2 UV-I 382 W/m 10,8 C 25,4 C 3,2 km/h (1 Bft) 100,00 %
14.06.2017 18:08 25,5 C 25,6 C 41 % 1014,3 hPa 0,0 l/m 2,1 km/h (1 Bft) S 190 2 min 0,000 mm 1,2 UV-I 375 W/m 11,3 C 25,5 C 3,2 km/h (1 Bft) 100,00 %
14.06.2017 18:10 25,5 C 25,6 C 40 % 1014,3 hPa 0,0 l/m 3,7 km/h (1 Bft) W-SW 253 2 min 0,000 mm 1,1 UV-I 368 W/m 10,9 C 25,5 C 6,4 km/h (2 Bft) 100,00 %
14.06.2017 18:12 25,4 C 25,6 C 40 % 1014,3 hPa 0,0 l/m 2,3 km/h (1 Bft) S-SW 211 2 min 0,000 mm 1,1 UV-I 362 W/m 10,8 C 25,4 C 4,8 km/h (1 Bft) 98,00 %
14.06.2017 18:14 25,4 C 25,6 C 40 % 1014,3 hPa 0,0 l/m 2,0 km/h (1 Bft) S-SW 211 2 min 0,000 mm 1,1 UV-I 358 W/m 10,8 C 25,4 C 4,8 km/h (1 Bft) 97,73 %
14.06.2017 18:16 25,4 C 25,6 C 40 % 1014,3 hPa 0,0 l/m 4,5 km/h (1 Bft) W-SW 239 2 min 0,000 mm 1,0 UV-I 352 W/m 10,8 C 25,4 C 6,4 km/h (2 Bft) 100,00 %
14.06.2017 18:18 25,4 C 25,6 C 39 % 1014,3 hPa 0,0 l/m 3,3 km/h (1 Bft) W 273 2 min 0,000 mm 1,0 UV-I 345 W/m 10,4 C 25,4 C 6,4 km/h (2 Bft) 98,00 %
14.06.2017 18:20 25,4 C 25,6 C 41 % 1014,2 hPa 0,0 l/m 2,3 km/h (1 Bft) W 280 2 min 0,000 mm 1,0 UV-I 339 W/m 11,2 C 25,4 C 4,8 km/h (1 Bft) 98,11 %
14.06.2017 18:22 25,5 C 25,6 C 41 % 1014,2 hPa 0,0 l/m 2,8 km/h (1 Bft) W 265 2 min 0,000 mm 1,0 UV-I 332 W/m 11,3 C 25,5 C 4,8 km/h (1 Bft) 94,44 %
14.06.2017 18:24 25,5 C 25,6 C 40 % 1014,2 hPa 0,0 l/m 2,7 km/h (1 Bft) W 261 2 min 0,000 mm 0,9 UV-I 325 W/m 10,9 C 25,5 C 4,8 km/h (1 Bft) 98,11 %
14.06.2017 18:26 25,6 C 25,6 C 41 % 1014,2 hPa 0,0 l/m 2,6 km/h (1 Bft) W 271 2 min 0,000 mm 0,9 UV-I 318 W/m 11,4 C 25,6 C 4,8 km/h (1 Bft) 98,08 %
14.06.2017 18:28 25,6 C 25,6 C 43 % 1014,2 hPa 0,0 l/m 1,1 km/h (1 Bft) W 273 2 min 0,000 mm 0,9 UV-I 314 W/m 12,1 C 25,6 C 3,2 km/h (1 Bft) 94,87 %
14.06.2017 18:30 25,4 C 25,6 C 42 % 1014,2 hPa 0,0 l/m 1,7 km/h (1 Bft) W 274 2 min 0,000 mm 0,8 UV-I 308 W/m 11,5 C 25,4 C 3,2 km/h (1 Bft) 94,00 %
14.06.2017 18:32 25,2 C 25,6 C 40 % 1014,2 hPa 0,0 l/m 0,6 km/h (0 Bft) W 275 2 min 0,000 mm 0,8 UV-I 301 W/m 10,6 C 25,2 C 3,2 km/h (1 Bft) 97,56 %
14.06.2017 18:34 25,2 C 25,6 C 40 % 1014,1 hPa 0,0 l/m 1,0 km/h (0 Bft) W 275 2 min 0,000 mm 0,8 UV-I 296 W/m 10,6 C 25,2 C 3,2 km/h (1 Bft) 98,08 %
14.06.2017 18:36 25,1 C 25,6 C 41 % 1014,1 hPa 0,0 l/m 1,0 km/h (0 Bft) W 275 2 min 0,000 mm 0,8 UV-I 291 W/m 10,9 C 25,1 C 3,2 km/h (1 Bft) 92,00 %
14.06.2017 18:38 25,2 C 25,6 C 43 % 1014,1 hPa 0,0 l/m 1,5 km/h (1 Bft) W 275 2 min 0,000 mm 0,7 UV-I 286 W/m 11,7 C 25,2 C 3,2 km/h (1 Bft) 92,00 %
14.06.2017 18:40 25,2 C 25,6 C 42 % 1014,1 hPa 0,0 l/m 2,1 km/h (1 Bft) N-NW 338 2 min 0,000 mm 0,7 UV-I 279 W/m 11,4 C 25,2 C 4,8 km/h (1 Bft) 97,37 %
14.06.2017 18:42 25,2 C 25,6 C 46 % 1014,1 hPa 0,0 l/m 0,7 km/h (0 Bft) N-NW 340 2 min 0,000 mm 0,7 UV-I 274 W/m 12,7 C 25,2 C 3,2 km/h (1 Bft) 96,00 %
14.06.2017 18:44 25,1 C 25,6 C 45 % 1014,1 hPa 0,0 l/m 0,7 km/h (0 Bft) N-NW 340 2 min 0,000 mm 0,7 UV-I 270 W/m 12,3 C 25,1 C 3,2 km/h (1 Bft) 96,00 %
14.06.2017 18:46 24,9 C 25,6 C 45 % 1014,1 hPa 0,0 l/m 0,4 km/h (0 Bft) N-NW 340 2 min 0,000 mm 0,6 UV-I 264 W/m 12,1 C 24,9 C 1,6 km/h (1 Bft) 95,74 %
14.06.2017 18:48 24,8 C 25,6 C 42 % 1014,2 hPa 0,0 l/m 1,4 km/h (1 Bft) N-NW 337 2 min 0,000 mm 0,6 UV-I 258 W/m 11,0 C 24,8 C 3,2 km/h (1 Bft) 97,87 %
14.06.2017 18:50 24,8 C 25,6 C 43 % 1014,1 hPa 0,0 l/m 2,2 km/h (1 Bft) NW 320 2 min 0,000 mm 0,6 UV-I 254 W/m 11,4 C 24,8 C 4,8 km/h (1 Bft) 94,74 %
14.06.2017 18:52 24,8 C 25,6 C 42 % 1014,1 hPa 0,0 l/m 2,0 km/h (1 Bft) NW 319 2 min 0,000 mm 0,6 UV-I 248 W/m 11,0 C 24,8 C 3,2 km/h (1 Bft) 98,00 %
14.06.2017 18:54 24,9 C 25,6 C 42 % 1014,1 hPa 0,0 l/m 0,4 km/h (0 Bft) NW 319 2 min 0,000 mm 0,6 UV-I 244 W/m 11,1 C 24,9 C 1,6 km/h (1 Bft) 97,87 %
14.06.2017 18:56 24,9 C 25,6 C 41 % 1014,1 hPa 0,0 l/m 0,0 km/h (0 Bft) NW 319 2 min 0,000 mm 0,5 UV-I 238 W/m 10,7 C 24,9 C 0,0 km/h (0 Bft) 97,87 %
14.06.2017 18:58 25,0 C 25,6 C 43 % 1014,1 hPa 0,0 l/m 0,4 km/h (0 Bft) NW 319 2 min 0,000 mm 0,5 UV-I 233 W/m 11,5 C 25,0 C 1,6 km/h (1 Bft) 95,45 %
14.06.2017 19:00 25,0 C 25,6 C 41 % 1014,0 hPa 0,0 l/m 0,3 km/h (0 Bft) NW 319 2 min 0,000 mm 0,5 UV-I 227 W/m 10,8 C 25,0 C 1,6 km/h (1 Bft) 96,23 %
14.06.2017 19:02 25,1 C 25,6 C 42 % 1014,1 hPa 0,0 l/m 2,2 km/h (1 Bft) SW 230 2 min 0,229 mm 0,5 UV-I 219 W/m 11,3 C 25,1 C 4,8 km/h (1 Bft) 97,87 %
14.06.2017 19:04 25,1 C 25,6 C 41 % 1014,1 hPa 0,0 l/m 1,6 km/h (1 Bft) SW 230 2 min 0,000 mm 0,5 UV-I 214 W/m 10,9 C 25,1 C 3,2 km/h (1 Bft) 97,62 %
14.06.2017 19:06 25,1 C 25,6 C 41 % 1014,1 hPa 0,0 l/m 2,1 km/h (1 Bft) SW 230 2 min 0,000 mm 0,2 UV-I 208 W/m 10,9 C 25,1 C 4,8 km/h (1 Bft) 98,18 %
14.06.2017 19:08 25,2 C 25,6 C 41 % 1014,1 hPa 0,0 l/m 4,0 km/h (1 Bft) SW 232 2 min 0,000 mm 0,0 UV-I 202 W/m 11,0 C 25,2 C 6,4 km/h (2 Bft) 97,62 %
14.06.2017 19:10 25,2 C 25,6 C 40 % 1014,1 hPa 0,0 l/m 2,8 km/h (1 Bft) SW 232 2 min 0,000 mm 0,0 UV-I 197 W/m 10,6 C 25,2 C 6,4 km/h (2 Bft) 97,87 %
14.06.2017 19:12 25,2 C 25,6 C 41 % 1014,1 hPa 0,0 l/m 1,2 km/h (1 Bft) SW 232 2 min 0,000 mm 0,0 UV-I 192 W/m 11,0 C 25,2 C 4,8 km/h (1 Bft) 97,56 %
14.06.2017 19:14 25,2 C 25,6 C 43 % 1014,1 hPa 0,0 l/m 0,3 km/h (0 Bft) SW 232 2 min 0,000 mm 0,0 UV-I 186 W/m 11,7 C 25,2 C 1,6 km/h (1 Bft) 98,00 %
14.06.2017 19:16 25,1 C 25,6 C 41 % 1014,0 hPa 0,0 l/m 0,0 km/h (0 Bft) SW 232 2 min 0,000 mm 0,0 UV-I 181 W/m 10,9 C 25,1 C 0,0 km/h (0 Bft) 95,74 %
14.06.2017 19:18 25,1 C 25,6 C 41 % 1014,1 hPa 0,0 l/m 0,3 km/h (0 Bft) SW 232 2 min 0,000 mm 0,0 UV-I 175 W/m 10,9 C 25,1 C 1,6 km/h (1 Bft) 92,00 %
14.06.2017 19:20 25,1 C 25,6 C 43 % 1014,1 hPa 0,0 l/m 0,2 km/h (0 Bft) SW 232 2 min 0,000 mm 0,0 UV-I 171 W/m 11,6 C 25,1 C 1,6 km/h (1 Bft) 95,12 %
14.06.2017 19:22 25,1 C 25,6 C 44 % 1014,1 hPa 0,0 l/m 0,0 km/h (0 Bft) SW 232 2 min 0,000 mm 0,0 UV-I 165 W/m 12,0 C 25,1 C 0,0 km/h (0 Bft) 96,00 %
14.06.2017 19:24 25,1 C 25,6 C 43 % 1014,1 hPa 0,0 l/m 0,2 km/h (0 Bft) SW 232 2 min 0,000 mm 0,0 UV-I 161 W/m 11,6 C 25,1 C 1,6 km/h (1 Bft) 95,74 %
14.06.2017 19:26 25,0 C 25,6 C 43 % 1014,1 hPa 0,0 l/m 3,9 km/h (1 Bft) O-NO 64 2 min 0,000 mm 0,0 UV-I 157 W/m 11,5 C 25,0 C 6,4 km/h (2 Bft) 97,56 %
14.06.2017 19:28 24,9 C 25,6 C 44 % 1014,1 hPa 0,0 l/m 4,3 km/h (1 Bft) NO 55 2 min 0,000 mm 0,0 UV-I 153 W/m 11,8 C 24,9 C 6,4 km/h (2 Bft) 96,43 %
14.06.2017 19:30 24,8 C 25,6 C 43 % 1014,1 hPa 0,0 l/m 5,0 km/h (1 Bft) NO 55 2 min 0,000 mm 0,0 UV-I 147 W/m 11,4 C 24,8 C 6,4 km/h (2 Bft) 98,00 %
14.06.2017 19:32 24,7 C 25,6 C 44 % 1014,1 hPa 0,0 l/m 3,2 km/h (1 Bft) NO 55 2 min 0,000 mm 0,0 UV-I 139 W/m 11,6 C 24,7 C 4,8 km/h (1 Bft) 97,56 %
14.06.2017 19:34 24,6 C 25,6 C 45 % 1014,1 hPa 0,0 l/m 3,2 km/h (1 Bft) NO 55 2 min 0,000 mm 0,0 UV-I 135 W/m 11,9 C 24,6 C 4,8 km/h (1 Bft) 93,62 %
14.06.2017 19:36 24,5 C 25,6 C 46 % 1014,1 hPa 0,0 l/m 1,8 km/h (1 Bft) NO 55 2 min 0,000 mm 0,0 UV-I 131 W/m 12,1 C 24,5 C 3,2 km/h (1 Bft) 98,11 %
14.06.2017 19:38 24,4 C 25,6 C 45 % 1014,1 hPa 0,0 l/m 2,1 km/h (1 Bft) NO 55 2 min 0,000 mm 0,0 UV-I 125 W/m 11,7 C 24,4 C 3,2 km/h (1 Bft) 95,12 %
14.06.2017 19:40 24,4 C 25,6 C 46 % 1014,1 hPa 0,0 l/m 2,4 km/h (1 Bft) NO 55 2 min 0,000 mm 0,0 UV-I 121 W/m 12,0 C 24,4 C 3,2 km/h (1 Bft) 95,56 %
14.06.2017 19:42 24,4 C 25,6 C 45 % 1014,1 hPa 0,0 l/m 2,8 km/h (1 Bft) NO 56 2 min 0,000 mm 0,0 UV-I 117 W/m 11,7 C 24,4 C 4,8 km/h (1 Bft) 95,74 %
14.06.2017 19:44 24,5 C 25,6 C 45 % 1014,0 hPa 0,0 l/m 2,3 km/h (1 Bft) NO 56 2 min 0,000 mm 0,0 UV-I 114 W/m 11,8 C 24,5 C 3,2 km/h (1 Bft) 100,00 %
14.06.2017 19:46 24,5 C 25,6 C 47 % 1014,0 hPa 0,0 l/m 1,1 km/h (1 Bft) NO 56 2 min 0,000 mm 0,0 UV-I 111 W/m 12,4 C 24,5 C 1,6 km/h (1 Bft) 98,11 %
14.06.2017 19:48 24,4 C 25,6 C 45 % 1014,0 hPa 0,0 l/m 1,6 km/h (1 Bft) NO 56 2 min 0,000 mm 0,0 UV-I 107 W/m 11,7 C 24,4 C 3,2 km/h (1 Bft) 100,00 %
14.06.2017 19:50 24,4 C 25,6 C 48 % 1014,0 hPa 0,0 l/m 1,4 km/h (1 Bft) NO 56 2 min 0,000 mm 0,0 UV-I 104 W/m 12,7 C 24,4 C 3,2 km/h (1 Bft) 98,00 %
14.06.2017 19:52 24,3 C 25,6 C 46 % 1013,9 hPa 0,0 l/m 1,8 km/h (1 Bft) NO 56 2 min 0,000 mm 0,0 UV-I 98 W/m 11,9 C 24,3 C 3,2 km/h (1 Bft) 100,00 %
14.06.2017 19:54 24,4 C 25,6 C 44 % 1013,9 hPa 0,0 l/m 0,7 km/h (0 Bft) NO 56 2 min 0,000 mm 0,0 UV-I 96 W/m 11,3 C 24,4 C 1,6 km/h (1 Bft) 100,00 %
14.06.2017 19:56 24,6 C 25,6 C 43 % 1013,9 hPa 0,0 l/m 0,0 km/h (0 Bft) NO 56 2 min 0,000 mm 0,0 UV-I 91 W/m 11,2 C 24,6 C 0,0 km/h (0 Bft) 100,00 %
14.06.2017 19:58 24,8 C 25,6 C 42 % 1013,9 hPa 0,0 l/m 0,0 km/h (0 Bft) NO 56 2 min 0,000 mm 0,0 UV-I 87 W/m 11,0 C 24,8 C 0,0 km/h (0 Bft) 97,73 %
14.06.2017 20:00 25,1 C 25,6 C 41 % 1013,9 hPa 0,0 l/m 0,0 km/h (0 Bft) NO 56 2 min 0,000 mm 0,0 UV-I 84 W/m 10,9 C 25,1 C 0,0 km/h (0 Bft) 98,18 %
14.06.2017 20:02 25,2 C 25,6 C 40 % 1013,8 hPa 0,0 l/m 0,0 km/h (0 Bft) NO 56 2 min 0,127 mm 0,0 UV-I 81 W/m 10,6 C 25,2 C 0,0 km/h (0 Bft) 97,14 %
14.06.2017 20:04 25,2 C 25,6 C 41 % 1013,9 hPa 0,0 l/m 0,0 km/h (0 Bft) NO 56 2 min 0,000 mm 0,0 UV-I 77 W/m 11,0 C 25,2 C 0,0 km/h (0 Bft) 100,00 %
14.06.2017 20:06 25,1 C 25,6 C 41 % 1013,9 hPa 0,0 l/m 0,0 km/h (0 Bft) NO 56 2 min 0,000 mm 0,0 UV-I 73 W/m 10,9 C 25,1 C 0,0 km/h (0 Bft) 95,74 %
14.06.2017 20:08 24,9 C 25,6 C 44 % 1013,9 hPa 0,0 l/m 0,4 km/h (0 Bft) NO 56 2 min 0,000 mm 0,0 UV-I 69 W/m 11,8 C 24,9 C 1,6 km/h (1 Bft) 98,00 %
14.06.2017 20:10 24,6 C 25,6 C 50 % 1013,9 hPa 0,0 l/m 1,1 km/h (1 Bft) NO 56 2 min 0,000 mm 0,0 UV-I 67 W/m 13,5 C 24,6 C 1,6 km/h (1 Bft) 100,00 %
14.06.2017 20:12 24,2 C 25,6 C 53 % 1013,9 hPa 0,0 l/m 1,0 km/h (0 Bft) NO 56 0 min 0,000 mm 0,0 UV-I 62 W/m 14,0 C 24,2 C 1,6 km/h (1 Bft) 100,00 %
14.06.2017 20:14 23,8 C 25,6 C 54 % 1013,9 hPa 0,0 l/m 0,0 km/h (0 Bft) NO 56 2 min 0,000 mm 0,0 UV-I 60 W/m 13,9 C 23,8 C 0,0 km/h (0 Bft) 100,00 %
14.06.2017 20:16 23,6 C 25,6 C 54 % 1013,8 hPa 0,0 l/m 0,0 km/h (0 Bft) NO 56 0 min 0,000 mm 0,0 UV-I 56 W/m 13,7 C 23,6 C 0,0 km/h (0 Bft) 100,00 %
14.06.2017 20:18 23,3 C 25,6 C 54 % 1013,9 hPa 0,0 l/m 0,0 km/h (0 Bft) NO 56 0 min 0,000 mm 0,0 UV-I 53 W/m 13,5 C 23,3 C 0,0 km/h (0 Bft) 100,00 %
14.06.2017 20:20 23,2 C 25,6 C 53 % 1013,8 hPa 0,0 l/m 0,0 km/h (0 Bft) NO 56 0 min 0,000 mm 0,0 UV-I 49 W/m 13,1 C 23,2 C 0,0 km/h (0 Bft) 95,74 %
14.06.2017 20:22 23,0 C 25,6 C 53 % 1013,8 hPa 0,0 l/m 0,0 km/h (0 Bft) NO 56 0 min 0,000 mm 0,0 UV-I 47 W/m 12,9 C 23,0 C 0,0 km/h (0 Bft) 100,00 %
14.06.2017 20:24 22,8 C 25,6 C 52 % 1013,8 hPa 0,0 l/m 0,0 km/h (0 Bft) NO 56 0 min 0,000 mm 0,0 UV-I 43 W/m 12,4 C 22,8 C 0,0 km/h (0 Bft) 98,00 %
14.06.2017 20:26 22,7 C 25,6 C 51 % 1013,9 hPa 0,0 l/m 0,0 km/h (0 Bft) NO 56 0 min 0,000 mm 0,0 UV-I 40 W/m 12,0 C 22,7 C 0,0 km/h (0 Bft) 100,00 %
14.06.2017 20:28 22,7 C 25,6 C 54 % 1013,9 hPa 0,0 l/m 0,0 km/h (0 Bft) NO 56 0 min 0,000 mm 0,0 UV-I 38 W/m 12,9 C 22,7 C 0,0 km/h (0 Bft) 97,37 %
14.06.2017 20:30 22,5 C 25,6 C 56 % 1013,9 hPa 0,0 l/m 0,0 km/h (0 Bft) NO 56 0 min 0,000 mm 0,0 UV-I 35 W/m 13,3 C 22,5 C 0,0 km/h (0 Bft) 98,00 %
14.06.2017 20:32 22,4 C 25,6 C 56 % 1013,9 hPa 0,0 l/m 0,0 km/h (0 Bft) NO 56 0 min 0,000 mm 0,0 UV-I 33 W/m 13,2 C 22,4 C 0,0 km/h (0 Bft) 97,87 %
14.06.2017 20:34 22,3 C 25,6 C 58 % 1013,9 hPa 0,0 l/m 0,0 km/h (0 Bft) NO 56 0 min 0,000 mm 0,0 UV-I 31 W/m 13,6 C 22,3 C 0,0 km/h (0 Bft) 97,56 %
14.06.2017 20:36 22,1 C 25,6 C 57 % 1014,0 hPa 0,0 l/m 0,0 km/h (0 Bft) NO 56 0 min 0,000 mm 0,0 UV-I 28 W/m 13,2 C 22,1 C 0,0 km/h (0 Bft) 98,00 %
14.06.2017 20:38 22,1 C 25,6 C 59 % 1014,0 hPa 0,0 l/m 0,0 km/h (0 Bft) NO 56 0 min 0,000 mm 0,0 UV-I 25 W/m 13,7 C 22,1 C 0,0 km/h (0 Bft) 94,34 %
14.06.2017 20:40 21,9 C 25,6 C 60 % 1013,9 hPa 0,0 l/m 0,0 km/h (0 Bft) NO 56 0 min 0,000 mm 0,0 UV-I 23 W/m 13,8 C 21,9 C 0,0 km/h (0 Bft) 100,00 %
14.06.2017 20:42 21,8 C 25,6 C 60 % 1013,9 hPa 0,0 l/m 0,0 km/h (0 Bft) NO 56 2 min 0,000 mm 0,0 UV-I 23 W/m 13,7 C 21,8 C 0,0 km/h (0 Bft) 97,87 %
14.06.2017 20:44 21,6 C 25,6 C 59 % 1013,9 hPa 0,0 l/m 0,0 km/h (0 Bft) NO 56 2 min 0,000 mm 0,0 UV-I 21 W/m 13,2 C 21,6 C 1,6 km/h (1 Bft) 98,00 %
14.06.2017 20:46 21,4 C 25,6 C 60 % 1013,9 hPa 0,0 l/m 0,6 km/h (0 Bft) NO 56 2 min 0,000 mm 0,0 UV-I 19 W/m 13,3 C 21,4 C 1,6 km/h (1 Bft) 100,00 %
14.06.2017 20:48 21,3 C 25,6 C 60 % 1013,9 hPa 0,0 l/m 0,0 km/h (0 Bft) NO 56 2 min 0,000 mm 0,0 UV-I 18 W/m 13,2 C 21,3 C 0,0 km/h (0 Bft) 95,74 %
14.06.2017 20:50 21,2 C 25,6 C 60 % 1014,0 hPa 0,0 l/m 0,0 km/h (0 Bft) NO 56 2 min 0,000 mm 0,0 UV-I 17 W/m 13,1 C 21,2 C 0,0 km/h (0 Bft) 100,00 %
14.06.2017 20:52 21,1 C 25,6 C 61 % 1014,0 hPa 0,0 l/m 0,0 km/h (0 Bft) NO 56 2 min 0,000 mm 0,0 UV-I 15 W/m 13,3 C 21,1 C 0,0 km/h (0 Bft) 98,00 %
14.06.2017 20:54 20,9 C 25,6 C 61 % 1014,0 hPa 0,0 l/m 0,0 km/h (0 Bft) NO 56 0 min 0,000 mm 0,0 UV-I 14 W/m 13,1 C 20,9 C 0,0 km/h (0 Bft) 97,87 %
14.06.2017 20:56 20,8 C 25,0 C 63 % 1014,0 hPa 0,0 l/m 0,2 km/h (0 Bft) NO 56 0 min 0,000 mm 0,0 UV-I 12 W/m 13,5 C 20,8 C 1,6 km/h (1 Bft) 100,00 %
14.06.2017 20:58 20,7 C 25,6 C 61 % 1014,0 hPa 0,0 l/m 0,3 km/h (0 Bft) NO 56 0 min 0,000 mm 0,0 UV-I 12 W/m 12,9 C 20,7 C 1,6 km/h (1 Bft) 100,00 %
14.06.2017 21:00 20,6 C 25,6 C 60 % 1014,0 hPa 0,0 l/m 1,6 km/h (1 Bft) NO 56 0 min 0,000 mm 0,0 UV-I 11 W/m 12,6 C 20,6 C 3,2 km/h (1 Bft) 100,00 %
14.06.2017 21:02 20,6 C 25,6 C 60 % 1014,0 hPa 0,0 l/m 2,1 km/h (1 Bft) NO 56 0 min 0,025 mm 0,0 UV-I 11 W/m 12,6 C 20,6 C 3,2 km/h (1 Bft) 100,00 %
14.06.2017 21:04 20,5 C 25,6 C 63 % 1014,0 hPa 0,0 l/m 2,2 km/h (1 Bft) NO 56 0 min 0,000 mm 0,0 UV-I 9 W/m 13,2 C 20,5 C 3,2 km/h (1 Bft) 96,43 %
14.06.2017 21:06 20,3 C 25,0 C 64 % 1014,1 hPa 0,0 l/m 1,1 km/h (1 Bft) NO 56 0 min 0,000 mm 0,0 UV-I 9 W/m 13,3 C 20,3 C 3,2 km/h (1 Bft) 95,74 %
14.06.2017 21:08 20,2 C 25,0 C 65 % 1014,1 hPa 0,0 l/m 0,2 km/h (0 Bft) NO 56 0 min 0,000 mm 0,0 UV-I 8 W/m 13,4 C 20,2 C 1,6 km/h (1 Bft) 97,37 %
14.06.2017 21:10 20,0 C 25,0 C 64 % 1014,2 hPa 0,0 l/m 0,0 km/h (0 Bft) NO 56 0 min 0,000 mm 0,0 UV-I 7 W/m 13,0 C 20,0 C 0,0 km/h (0 Bft) 97,56 %
14.06.2017 21:12 19,9 C 25,0 C 62 % 1014,2 hPa 0,0 l/m 0,0 km/h (0 Bft) NO 56 0 min 0,000 mm 0,0 UV-I 7 W/m 12,4 C 19,9 C 0,0 km/h (0 Bft) 96,23 %
14.06.2017 21:14 19,8 C 25,0 C 62 % 1014,2 hPa 0,0 l/m 0,0 km/h (0 Bft) NO 56 0 min 0,000 mm 0,0 UV-I 7 W/m 12,3 C 19,8 C 0,0 km/h (0 Bft) 98,00 %
14.06.2017 21:16 19,8 C 25,0 C 62 % 1014,3 hPa 0,0 l/m 0,0 km/h (0 Bft) NO 56 0 min 0,000 mm 0,0 UV-I 5 W/m 12,3 C 19,8 C 0,0 km/h (0 Bft) 94,00 %
14.06.2017 21:18 19,7 C 25,0 C 62 % 1014,2 hPa 0,0 l/m 0,0 km/h (0 Bft) NO 56 0 min 0,000 mm 0,0 UV-I 5 W/m 12,2 C 19,7 C 0,0 km/h (0 Bft) 95,74 %
14.06.2017 21:20 19,6 C 25,0 C 62 % 1014,3 hPa 0,0 l/m 0,3 km/h (0 Bft) NO 56 0 min 0,000 mm 0,0 UV-I 5 W/m 12,1 C 19,6 C 1,6 km/h (1 Bft) 97,37 %
14.06.2017 21:22 19,5 C 25,0 C 61 % 1014,2 hPa 0,0 l/m 2,0 km/h (1 Bft) NO 56 0 min 0,000 mm 0,0 UV-I 5 W/m 11,8 C 19,5 C 3,2 km/h (1 Bft) 91,49 %
14.06.2017 21:24 19,6 C 25,0 C 62 % 1014,2 hPa 0,0 l/m 2,4 km/h (1 Bft) NO 56 0 min 0,000 mm 0,0 UV-I 5 W/m 12,1 C 19,6 C 3,2 km/h (1 Bft) 95,12 %
14.06.2017 21:26 19,6 C 25,0 C 63 % 1014,2 hPa 0,0 l/m 1,0 km/h (0 Bft) NO 56 0 min 0,000 mm 0,0 UV-I 1 W/m 12,4 C 19,6 C 1,6 km/h (1 Bft) 98,15 %
14.06.2017 21:28 19,5 C 25,0 C 62 % 1014,2 hPa 0,0 l/m 0,0 km/h (0 Bft) NO 56 0 min 0,000 mm 0,0 UV-I 0 W/m 12,0 C 19,5 C 0,0 km/h (0 Bft) 97,87 %
14.06.2017 21:30 19,4 C 25,0 C 62 % 1014,2 hPa 0,0 l/m 0,0 km/h (0 Bft) NO 56 0 min 0,000 mm 0,0 UV-I 0 W/m 11,9 C 19,4 C 0,0 km/h (0 Bft) 96,00 %
14.06.2017 21:32 19,3 C 25,0 C 63 % 1014,3 hPa 0,0 l/m 0,0 km/h (0 Bft) NO 56 0 min 0,000 mm 0,0 UV-I 0 W/m 12,1 C 19,3 C 0,0 km/h (0 Bft) 97,87 %
14.06.2017 21:34 19,3 C 25,0 C 62 % 1014,3 hPa 0,0 l/m 0,0 km/h (0 Bft) NO 56 0 min 0,000 mm 0,0 UV-I 0 W/m 11,8 C 19,3 C 0,0 km/h (0 Bft) 97,44 %
14.06.2017 21:36 19,3 C 25,0 C 67 % 1014,3 hPa 0,0 l/m 0,0 km/h (0 Bft) NO 56 0 min 0,000 mm 0,0 UV-I 0 W/m 13,0 C 19,3 C 0,0 km/h (0 Bft) 94,55 %
14.06.2017 21:38 19,2 C 25,0 C 68 % 1014,3 hPa 0,0 l/m 0,0 km/h (0 Bft) NO 56 0 min 0,000 mm 0,0 UV-I 0 W/m 13,1 C 19,2 C 0,0 km/h (0 Bft) 97,87 %
14.06.2017 21:40 19,1 C 25,0 C 69 % 1014,3 hPa 0,0 l/m 0,0 km/h (0 Bft) NO 56 0 min 0,000 mm 0,0 UV-I 0 W/m 13,3 C 19,1 C 0,0 km/h (0 Bft) 94,44 %
14.06.2017 21:42 19,0 C 25,0 C 69 % 1014,3 hPa 0,0 l/m 0,0 km/h (0 Bft) NO 56 0 min 0,000 mm 0,0 UV-I 0 W/m 13,2 C 19,0 C 0,0 km/h (0 Bft) 98,18 %
14.06.2017 21:44 18,9 C 25,0 C 69 % 1014,3 hPa 0,0 l/m 0,0 km/h (0 Bft) NO 56 0 min 0,000 mm 0,0 UV-I 0 W/m 13,1 C 18,9 C 0,0 km/h (0 Bft) 98,00 %
14.06.2017 21:46 18,8 C 25,0 C 69 % 1014,3 hPa 0,0 l/m 0,0 km/h (0 Bft) NO 56 0 min 0,000 mm 0,0 UV-I 0 W/m 13,0 C 18,8 C 0,0 km/h (0 Bft) 98,00 %
14.06.2017 21:48 18,8 C 25,0 C 69 % 1014,3 hPa 0,0 l/m 0,0 km/h (0 Bft) NO 56 0 min 0,000 mm 0,0 UV-I 0 W/m 13,0 C 18,8 C 0,0 km/h (0 Bft) 97,87 %
14.06.2017 21:50 18,6 C 25,0 C 68 % 1014,3 hPa 0,0 l/m 0,0 km/h (0 Bft) NO 56 0 min 0,000 mm 0,0 UV-I 0 W/m 12,6 C 18,6 C 0,0 km/h (0 Bft) 95,12 %
14.06.2017 21:52 18,4 C 25,0 C 68 % 1014,3 hPa 0,0 l/m 0,0 km/h (0 Bft) NO 56 0 min 0,000 mm 0,0 UV-I 0 W/m 12,4 C 18,4 C 0,0 km/h (0 Bft) 100,00 %
14.06.2017 21:54 18,3 C 25,0 C 67 % 1014,3 hPa 0,0 l/m 0,0 km/h (0 Bft) NO 56 0 min 0,000 mm 0,0 UV-I 0 W/m 12,1 C 18,3 C 0,0 km/h (0 Bft) 97,87 %
14.06.2017 21:56 18,3 C 25,0 C 67 % 1014,3 hPa 0,0 l/m 0,0 km/h (0 Bft) NO 56 0 min 0,000 mm 0,0 UV-I 0 W/m 12,1 C 18,3 C 0,0 km/h (0 Bft) 100,00 %
14.06.2017 21:58 18,3 C 25,0 C 66 % 1014,3 hPa 0,0 l/m 0,0 km/h (0 Bft) NO 56 0 min 0,000 mm 0,0 UV-I 0 W/m 11,8 C 18,3 C 0,0 km/h (0 Bft) 98,00 %
14.06.2017 22:00 18,4 C 25,0 C 67 % 1014,3 hPa 0,0 l/m 0,0 km/h (0 Bft) NO 56 0 min 0,000 mm 0,0 UV-I 0 W/m 12,2 C 18,4 C 0,0 km/h (0 Bft) 98,04 %
14.06.2017 22:02 18,5 C 25,0 C 66 % 1014,4 hPa 0,0 l/m 0,0 km/h (0 Bft) NO 56 0 min 0,000 mm 0,0 UV-I 0 W/m 12,0 C 18,5 C 0,0 km/h (0 Bft) 95,45 %
14.06.2017 22:04 18,5 C 25,0 C 66 % 1014,4 hPa 0,0 l/m 0,0 km/h (0 Bft) NO 56 0 min 0,000 mm 0,0 UV-I 0 W/m 12,0 C 18,5 C 0,0 km/h (0 Bft) 100,00 %
14.06.2017 22:06 18,4 C 25,0 C 67 % 1014,5 hPa 0,0 l/m 0,0 km/h (0 Bft) NO 56 0 min 0,000 mm 0,0 UV-I 0 W/m 12,2 C 18,4 C 0,0 km/h (0 Bft) 97,37 %
14.06.2017 22:08 18,3 C 25,0 C 68 % 1014,6 hPa 0,0 l/m 0,1 km/h (0 Bft) NO 56 0 min 0,000 mm 0,0 UV-I 0 W/m 12,3 C 18,3 C 1,6 km/h (1 Bft) 97,87 %
14.06.2017 22:10 18,1 C 25,0 C 69 % 1014,5 hPa 0,0 l/m 2,0 km/h (1 Bft) NO 56 0 min 0,000 mm 0,0 UV-I 0 W/m 12,3 C 18,1 C 3,2 km/h (1 Bft) 96,00 %
14.06.2017 22:12 17,9 C 25,0 C 70 % 1014,6 hPa 0,0 l/m 1,8 km/h (1 Bft) NO 56 0 min 0,000 mm 0,0 UV-I 0 W/m 12,3 C 17,9 C 3,2 km/h (1 Bft) 97,87 %
14.06.2017 22:14 17,8 C 25,0 C 70 % 1014,6 hPa 0,0 l/m 1,9 km/h (1 Bft) NO 56 0 min 0,000 mm 0,0 UV-I 0 W/m 12,3 C 17,8 C 3,2 km/h (1 Bft) 96,00 %
14.06.2017 22:16 17,8 C 25,0 C 71 % 1014,6 hPa 0,0 l/m 2,2 km/h (1 Bft) NO 56 0 min 0,000 mm 0,0 UV-I 0 W/m 12,5 C 17,8 C 3,2 km/h (1 Bft) 94,44 %
14.06.2017 22:18 17,7 C 25,0 C 71 % 1014,6 hPa 0,0 l/m 1,8 km/h (1 Bft) NO 56 0 min 0,000 mm 0,0 UV-I 0 W/m 12,4 C 17,7 C 3,2 km/h (1 Bft) 94,64 %
14.06.2017 22:20 17,7 C 25,0 C 71 % 1014,6 hPa 0,0 l/m 1,9 km/h (1 Bft) NO 56 0 min 0,000 mm 0,0 UV-I 0 W/m 12,4 C 17,7 C 3,2 km/h (1 Bft) 96,08 %
14.06.2017 22:22 17,7 C 25,0 C 70 % 1014,6 hPa 0,0 l/m 1,6 km/h (1 Bft) NO 56 0 min 0,000 mm 0,0 UV-I 0 W/m 12,2 C 17,7 C 3,2 km/h (1 Bft) 97,22 %
14.06.2017 22:24 17,7 C 25,0 C 69 % 1014,6 hPa 0,0 l/m 1,1 km/h (1 Bft) NO 56 0 min 0,000 mm 0,0 UV-I 0 W/m 11,9 C 17,7 C 3,2 km/h (1 Bft) 96,00 %
14.06.2017 22:26 17,7 C 25,0 C 71 % 1014,7 hPa 0,0 l/m 0,8 km/h (0 Bft) NO 56 0 min 0,000 mm 0,0 UV-I 0 W/m 12,4 C 17,7 C 1,6 km/h (1 Bft) 95,74 %
14.06.2017 22:28 17,7 C 25,0 C 71 % 1014,8 hPa 0,0 l/m 0,0 km/h (0 Bft) NO 56 0 min 0,000 mm 0,0 UV-I 0 W/m 12,4 C 17,7 C 0,0 km/h (0 Bft) 95,74 %
14.06.2017 22:30 17,6 C 25,0 C 72 % 1014,8 hPa 0,0 l/m 0,0 km/h (0 Bft) NO 56 0 min 0,000 mm 0,0 UV-I 0 W/m 12,5 C 17,6 C 0,0 km/h (0 Bft) 97,87 %
14.06.2017 22:32 17,6 C 25,0 C 72 % 1014,8 hPa 0,0 l/m 0,0 km/h (0 Bft) NO 56 0 min 0,000 mm 0,0 UV-I 0 W/m 12,5 C 17,6 C 0,0 km/h (0 Bft) 95,74 %
14.06.2017 22:34 17,6 C 25,0 C 73 % 1014,8 hPa 0,0 l/m 0,0 km/h (0 Bft) NO 56 0 min 0,000 mm 0,0 UV-I 0 W/m 12,7 C 17,6 C 0,0 km/h (0 Bft) 91,49 %
14.06.2017 22:36 17,5 C 25,0 C 73 % 1014,8 hPa 0,0 l/m 0,0 km/h (0 Bft) NO 56 0 min 0,000 mm 0,0 UV-I 0 W/m 12,6 C 17,5 C 0,0 km/h (0 Bft) 94,00 %
14.06.2017 22:38 17,5 C 25,0 C 73 % 1014,9 hPa 0,0 l/m 0,0 km/h (0 Bft) NO 56 0 min 0,000 mm 0,0 UV-I 0 W/m 12,6 C 17,5 C 0,0 km/h (0 Bft) 96,00 %
14.06.2017 22:40 17,3 C 25,0 C 73 % 1014,9 hPa 0,0 l/m 0,0 km/h (0 Bft) NO 56 0 min 0,000 mm 0,0 UV-I 0 W/m 12,4 C 17,3 C 0,0 km/h (0 Bft) 97,87 %
14.06.2017 22:42 17,2 C 25,0 C 74 % 1014,9 hPa 0,0 l/m 0,4 km/h (0 Bft) NO 56 0 min 0,000 mm 0,0 UV-I 0 W/m 12,5 C 17,2 C 1,6 km/h (1 Bft) 95,45 %
14.06.2017 22:44 17,1 C 25,0 C 74 % 1014,9 hPa 0,0 l/m 1,0 km/h (0 Bft) NO 56 0 min 0,000 mm 0,0 UV-I 0 W/m 12,4 C 17,1 C 3,2 km/h (1 Bft) 97,14 %
14.06.2017 22:46 17,0 C 25,0 C 74 % 1014,9 hPa 0,0 l/m 2,5 km/h (1 Bft) NO 56 0 min 0,000 mm 0,0 UV-I 0 W/m 12,3 C 17,0 C 3,2 km/h (1 Bft) 96,23 %
14.06.2017 22:48 16,9 C 25,0 C 73 % 1014,9 hPa 0,0 l/m 1,8 km/h (1 Bft) NO 56 0 min 0,000 mm 0,0 UV-I 0 W/m 12,0 C 16,9 C 3,2 km/h (1 Bft) 97,87 %
14.06.2017 22:50 16,9 C 25,0 C 72 % 1014,9 hPa 0,0 l/m 2,0 km/h (1 Bft) NO 56 0 min 0,000 mm 0,0 UV-I 0 W/m 11,8 C 16,9 C 3,2 km/h (1 Bft) 96,23 %
14.06.2017 22:52 17,0 C 25,0 C 71 % 1014,9 hPa 0,0 l/m 2,2 km/h (1 Bft) NO 56 0 min 0,000 mm 0,0 UV-I 0 W/m 11,7 C 17,0 C 3,2 km/h (1 Bft) 96,00 %
14.06.2017 22:54 17,1 C 25,0 C 70 % 1014,9 hPa 0,0 l/m 2,2 km/h (1 Bft) NO 56 0 min 0,000 mm 0,0 UV-I 0 W/m 11,6 C 17,1 C 3,2 km/h (1 Bft) 97,22 %
14.06.2017 22:56 17,2 C 25,0 C 70 % 1014,9 hPa 0,0 l/m 1,9 km/h (1 Bft) NO 56 0 min 0,000 mm 0,0 UV-I 0 W/m 11,7 C 17,2 C 3,2 km/h (1 Bft) 94,23 %
14.06.2017 22:58 17,4 C 25,0 C 70 % 1014,8 hPa 0,0 l/m 1,4 km/h (1 Bft) NO 56 0 min 0,000 mm 0,0 UV-I 0 W/m 11,9 C 17,4 C 3,2 km/h (1 Bft) 97,62 %
14.06.2017 23:00 17,6 C 25,0 C 70 % 1014,9 hPa 0,0 l/m 0,0 km/h (0 Bft) NO 56 0 min 0,000 mm 0,0 UV-I 0 W/m 12,1 C 17,6 C 1,6 km/h (1 Bft) 94,00 %
14.06.2017 23:02 17,6 C 25,0 C 69 % 1014,9 hPa 0,0 l/m 0,0 km/h (0 Bft) NO 56 0 min 0,000 mm 0,0 UV-I 0 W/m 11,8 C 17,6 C 0,0 km/h (0 Bft) 97,56 %
14.06.2017 23:04 17,6 C 25,0 C 68 % 1014,8 hPa 0,0 l/m 0,0 km/h (0 Bft) NO 56 0 min 0,000 mm 0,0 UV-I 0 W/m 11,6 C 17,6 C 0,0 km/h (0 Bft) 98,00 %
14.06.2017 23:06 17,6 C 25,0 C 68 % 1014,8 hPa 0,0 l/m 0,0 km/h (0 Bft) NO 56 0 min 0,000 mm 0,0 UV-I 0 W/m 11,6 C 17,6 C 0,0 km/h (0 Bft) 92,00 %
14.06.2017 23:08 17,6 C 25,0 C 69 % 1014,9 hPa 0,0 l/m 0,0 km/h (0 Bft) NO 56 0 min 0,000 mm 0,0 UV-I 0 W/m 11,8 C 17,6 C 0,0 km/h (0 Bft) 97,87 %
14.06.2017 23:10 17,6 C 25,0 C 69 % 1014,9 hPa 0,0 l/m 0,0 km/h (0 Bft) NO 56 0 min 0,000 mm 0,0 UV-I 0 W/m 11,8 C 17,6 C 0,0 km/h (0 Bft) 98,00 %
14.06.2017 23:12 17,5 C 25,0 C 69 % 1014,9 hPa 0,0 l/m 0,0 km/h (0 Bft) NO 56 0 min 0,000 mm 0,0 UV-I 0 W/m 11,7 C 17,5 C 0,0 km/h (0 Bft) 97,87 %
14.06.2017 23:14 17,4 C 25,0 C 70 % 1015,0 hPa 0,0 l/m 0,0 km/h (0 Bft) NO 56 0 min 0,000 mm 0,0 UV-I 0 W/m 11,9 C 17,4 C 0,0 km/h (0 Bft) 98,00 %
14.06.2017 23:16 17,4 C 25,0 C 71 % 1014,9 hPa 0,0 l/m 0,0 km/h (0 Bft) NO 56 0 min 0,000 mm 0,0 UV-I 0 W/m 12,1 C 17,4 C 0,0 km/h (0 Bft) 97,56 %
14.06.2017 23:18 17,3 C 25,0 C 72 % 1014,9 hPa 0,0 l/m 0,8 km/h (0 Bft) NO 56 0 min 0,000 mm 0,0 UV-I 0 W/m 12,2 C 17,3 C 3,2 km/h (1 Bft) 96,00 %
14.06.2017 23:20 17,3 C 25,0 C 72 % 1014,8 hPa 0,0 l/m 1,6 km/h (1 Bft) NO 56 0 min 0,000 mm 0,0 UV-I 0 W/m 12,2 C 17,3 C 3,2 km/h (1 Bft) 97,73 %
14.06.2017 23:22 17,2 C 25,0 C 72 % 1014,8 hPa 0,0 l/m 0,4 km/h (0 Bft) NO 56 0 min 0,000 mm 0,0 UV-I 0 W/m 12,1 C 17,2 C 1,6 km/h (1 Bft) 96,00 %
14.06.2017 23:24 17,1 C 25,0 C 73 % 1014,8 hPa 0,0 l/m 1,6 km/h (1 Bft) NO 56 0 min 0,000 mm 0,0 UV-I 0 W/m 12,2 C 17,1 C 3,2 km/h (1 Bft) 95,74 %
14.06.2017 23:26 17,0 C 25,0 C 73 % 1014,8 hPa 0,0 l/m 2,2 km/h (1 Bft) NO 56 0 min 0,000 mm 0,0 UV-I 0 W/m 12,1 C 17,0 C 3,2 km/h (1 Bft) 95,74 %
14.06.2017 23:28 16,9 C 25,0 C 74 % 1014,8 hPa 0,0 l/m 2,8 km/h (1 Bft) NO 56 0 min 0,000 mm 0,0 UV-I 0 W/m 12,2 C 16,9 C 4,8 km/h (1 Bft) 94,74 %
14.06.2017 23:30 16,8 C 25,0 C 74 % 1014,9 hPa 0,0 l/m 2,2 km/h (1 Bft) NO 56 0 min 0,000 mm 0,0 UV-I 0 W/m 12,1 C 16,8 C 3,2 km/h (1 Bft) 98,00 %
14.06.2017 23:32 16,8 C 25,0 C 73 % 1014,8 hPa 0,0 l/m 1,9 km/h (1 Bft) NO 56 0 min 0,000 mm 0,0 UV-I 0 W/m 11,9 C 16,8 C 3,2 km/h (1 Bft) 93,62 %
14.06.2017 23:34 16,8 C 25,0 C 73 % 1014,8 hPa 0,0 l/m 3,4 km/h (1 Bft) O-NO 64 0 min 0,000 mm 0,0 UV-I 0 W/m 11,9 C 16,8 C 6,4 km/h (2 Bft) 97,22 %
14.06.2017 23:36 16,7 C 25,0 C 72 % 1014,7 hPa 0,0 l/m 4,3 km/h (1 Bft) O-NO 65 0 min 0,000 mm 0,0 UV-I 0 W/m 11,6 C 16,7 C 6,4 km/h (2 Bft) 94,64 %
14.06.2017 23:38 16,7 C 25,0 C 70 % 1014,7 hPa 0,0 l/m 4,7 km/h (1 Bft) O-NO 68 0 min 0,000 mm 0,0 UV-I 0 W/m 11,2 C 16,7 C 8,0 km/h (2 Bft) 96,00 %
14.06.2017 23:40 16,8 C 25,0 C 69 % 1014,7 hPa 0,0 l/m 4,2 km/h (1 Bft) O-NO 70 0 min 0,000 mm 0,0 UV-I 0 W/m 11,1 C 16,8 C 6,4 km/h (2 Bft) 95,74 %
14.06.2017 23:42 17,0 C 25,0 C 67 % 1014,7 hPa 0,0 l/m 4,3 km/h (1 Bft) O-NO 67 0 min 0,000 mm 0,0 UV-I 0 W/m 10,8 C 17,0 C 6,4 km/h (2 Bft) 98,11 %
14.06.2017 23:44 17,2 C 25,0 C 67 % 1014,6 hPa 0,0 l/m 2,9 km/h (1 Bft) O-NO 67 0 min 0,000 mm 0,0 UV-I 0 W/m 11,0 C 17,2 C 4,8 km/h (1 Bft) 94,74 %
14.06.2017 23:46 17,3 C 25,0 C 66 % 1014,6 hPa 0,0 l/m 2,7 km/h (1 Bft) O-NO 67 0 min 0,000 mm 0,0 UV-I 0 W/m 10,9 C 17,3 C 4,8 km/h (1 Bft) 98,11 %
14.06.2017 23:48 17,3 C 25,0 C 66 % 1014,6 hPa 0,0 l/m 2,7 km/h (1 Bft) O-NO 67 0 min 0,000 mm 0,0 UV-I 0 W/m 10,9 C 17,3 C 3,2 km/h (1 Bft) 95,12 %
14.06.2017 23:50 17,3 C 25,0 C 67 % 1014,6 hPa 0,0 l/m 3,3 km/h (1 Bft) O-NO 67 0 min 0,000 mm 0,0 UV-I 0 W/m 11,1 C 17,3 C 4,8 km/h (1 Bft) 94,00 %
14.06.2017 23:52 17,3 C 25,0 C 67 % 1014,6 hPa 0,0 l/m 4,2 km/h (1 Bft) O-NO 67 0 min 0,000 mm 0,0 UV-I 0 W/m 11,1 C 17,3 C 6,4 km/h (2 Bft) 100,00 %
14.06.2017 23:54 17,2 C 25,0 C 68 % 1014,7 hPa 0,0 l/m 6,1 km/h (2 Bft) O 99 0 min 0,000 mm 0,0 UV-I 0 W/m 11,2 C 17,2 C 9,7 km/h (2 Bft) 97,87 %
14.06.2017 23:56 17,1 C 25,0 C 67 % 1014,6 hPa 0,0 l/m 4,8 km/h (1 Bft) O-NO 69 0 min 0,000 mm 0,0 UV-I 0 W/m 10,9 C 17,1 C 8,0 km/h (2 Bft) 100,00 %
14.06.2017 23:58 17,1 C 25,0 C 67 % 1014,6 hPa 0,0 l/m 4,0 km/h (1 Bft) O-NO 64 0 min 0,000 mm 0,0 UV-I 0 W/m 10,9 C 17,1 C 6,4 km/h (2 Bft) 97,37 %
_ Min-Zeit 06:10 06:32 15:28 20:02 - 00:12 - - - - - - 04:48 02:00 00:28 00:02
Minimum _ 12,5 C 23,3 C 39 % 1013,8 hPa - 0,0 km/h (0 Bft) - - - - - - 8,7 C 12,1 C 0,0 km/h (0 Bft) 9,09 %
_ Max-Zeit 17:44 00:18 02:02 08:24 00:00 08:58 - - 17:43 15:02 12:52 13:56 20:12 17:20 08:58 00:36
Maximum _ 25,7 C 26,1 C 85 % 1017,6 hPa 0,0 l/m 16,4 km/h
O-NO (3 Bft)
- - 3 min 0,558 mm 6,5 UV-I 932 W/m 14,0 C 25,6 C 24,1 km/h
O-NO (4 Bft)
100,00 %
Durchschnitt _ 19,3 C 24,8 C 60 % 1015,8 hPa #0,0 l/m 3,9 km/h (1 Bft) NO - #14:46 h #5,410 mm 3,5 UV-I 477 W/m 10,8 C 19,0 C 6,8 km/h (2 Bft) 96,83 %